[[{"header":{"parameterUnit":"m.s-1","parameterCategory":1,"la1":30.6,"la2":28.766,"lo1":-90.7593,"lo2":-88.6598,"dy":0.0162,"dx":0.0183,"nx":116,"ny":114,"refTime":"2024-02-20T06:00:00:Z","depth":0,"parameterNumber":2,"parameterNumberName":"U-component_of_WINDS"},"data":[0.0,0.0,0.0,0.0,0.0,0.0,0.0,0.0,0.0,0.0,0.0,0.0,0.0,0.0,0.0,0.0,0.0,0.0,0.0,0.0,0.0,0.0,0.0,0.0,0.0,0.0,0.0,0.0,0.0,0.0,0.0,0.0,0.0,0.0,0.0,0.0,0.0,0.0,0.0,0.0,0.0,0.0,0.0,0.0,0.0,0.0,0.0,0.0,0.0,0.0,0.0,0.0,0.0,0.0,0.0,0.0,0.0,0.0,0.0,0.0,0.0,0.0,0.0,0.0,0.0,0.0,0.0,0.0,0.0,0.0,0.0,0.0,0.0,0.0,0.0,0.0,0.0,0.0,0.0,0.0,0.0,0.0,0.0,0.0,0.0,0.0,0.0,0.0,0.0,0.0,0.0,0.0,0.0,0.0,0.0,0.0,0.0,0.0,0.0,0.0,0.0,0.0,0.0,0.0,0.0,0.0,0.0,0.0,0.0,0.0,0.0,0.0,0.0,0.0,0.0,0.0,0.0,0.0,0.0,0.0,0.0,0.0,0.0,0.0,0.0,0.0,0.0,0.0,0.0,0.0,0.0,0.0,0.0,0.0,0.0,0.0,0.0,0.0,0.0,0.0,0.0,0.0,0.0,0.0,0.0,0.0,0.0,0.0,0.0,0.0,0.0,0.0,0.0,0.0,0.0,0.0,0.0,0.0,0.0,0.0,0.0,0.0,0.0,0.0,0.0,0.0,0.0,0.0,0.0,0.0,0.0,0.0,0.0,0.0,0.0,0.0,0.0,0.0,0.0,0.0,0.0,0.0,0.0,0.0,0.0,0.0,0.0,0.0,0.0,0.0,0.0,0.0,0.0,0.0,0.0,0.0,0.0,0.0,0.0,0.0,0.0,0.0,0.0,0.0,0.0,0.0,0.0,0.0,0.0,0.0,0.0,0.0,0.0,0.0,0.0,0.0,0.0,0.0,0.0,0.0,0.0,0.0,0.0,0.0,0.0,0.0,0.0,0.0,0.0,0.0,0.0,0.0,0.0,0.0,0.0,0.0,0.0,0.0,0.0,0.0,0.0,0.0,0.0,0.0,0.0,0.0,0.0,0.0,0.0,0.0,0.0,0.0,0.0,0.0,0.0,0.0,0.0,0.0,0.0,0.0,0.0,0.0,0.0,0.0,0.0,0.0,0.0,0.0,0.0,0.0,0.0,0.0,0.0,0.0,0.0,0.0,0.0,0.0,0.0,0.0,0.0,0.0,0.0,0.0,0.0,0.0,0.0,0.0,0.0,0.0,0.0,0.0,0.0,0.0,0.0,0.0,0.0,0.0,0.0,0.0,0.0,0.0,0.0,0.0,0.0,0.0,0.0,0.0,0.0,0.0,0.0,0.0,0.0,0.0,0.0,0.0,0.0,0.0,0.0,0.0,0.0,0.0,0.0,0.0,0.0,0.0,0.0,0.0,0.0,0.0,0.0,0.0,0.0,0.0,0.0,0.0,0.0,0.0,0.0,0.0,0.0,0.0,0.0,0.0,0.0,0.0,0.0,0.0,0.0,0.0,0.0,0.0,0.0,0.0,0.0,0.0,0.0,0.0,0.0,0.0,0.0,0.0,0.0,0.0,0.0,0.0,0.0,0.0,0.0,0.0,0.0,0.0,0.0,0.0,0.0,0.0,0.0,0.0,0.0,0.0,0.0,0.0,0.0,0.0,0.0,0.0,0.0,0.0,0.0,0.0,0.0,0.0,0.0,0.0,0.0,0.0,0.0,0.0,0.0,0.0,0.0,0.0,0.0,0.0,0.0,0.0,0.0,0.0,0.0,0.0,0.0,0.0,0.0,0.0,0.0,0.0,0.0,0.0,0.0,0.0,0.0,0.0,0.0,0.0,0.0,0.0,0.0,0.0,0.0,0.0,0.0,0.0,0.0,0.0,0.0,0.0,0.0,0.0,0.0,0.0,0.0,0.0,0.0,0.0,0.0,0.0,0.0,0.0,0.0,0.0,0.0,0.0,0.0,0.0,0.0,0.0,0.0,0.0,0.0,0.0,0.0,0.0,0.0,0.0,0.0,0.0,0.0,0.0,0.0,0.0,0.0,0.0,0.0,0.0,0.0,0.0,0.0,0.0,0.0,0.0,0.0,0.0,0.0,0.0,0.0,0.0,0.0,0.0,0.0,0.0,0.0,0.0,0.0,0.0,0.0,0.0,0.0,0.0,0.0,0.0,0.0,0.0,0.0,0.0,0.0,0.0,0.0,0.0,0.0,0.0,0.0,0.0,0.0,0.0,0.0,0.0,0.0,0.0,0.0,0.0,0.0,0.0,0.0,0.0,0.0,0.0,0.0,0.0,0.0,0.0,0.0,0.0,0.0,0.0,0.0,0.0,0.0,0.0,0.0,0.0,0.0,0.0,0.0,0.0,0.0,0.0,0.0,0.0,0.0,0.0,0.0,0.0,0.0,0.0,0.0,0.0,0.0,0.0,0.0,0.0,0.0,0.0,0.0,0.0,0.0,0.0,0.0,0.0,0.0,0.0,0.0,0.0,0.0,0.0,0.0,0.0,0.0,0.0,0.0,0.0,0.0,0.0,0.0,0.0,0.0,0.0,0.0,0.0,0.0,0.0,0.0,0.0,0.0,0.0,0.0,0.0,0.0,0.0,0.0,0.0,0.0,0.0,0.0,0.0,0.0,0.0,0.0,0.0,0.0,0.0,0.0,0.0,0.0,0.0,0.0,0.0,0.0,0.0,0.0,0.0,0.0,0.0,0.0,0.0,0.0,0.0,0.0,0.0,0.0,0.0,0.0,0.0,0.0,0.0,0.0,0.0,0.0,0.0,0.0,0.0,0.0,0.0,0.0,0.0,0.0,0.0,0.0,0.0,0.0,0.0,0.0,0.0,0.0,0.0,0.0,0.0,0.0,0.0,0.0,0.0,0.0,0.0,0.0,0.0,0.0,0.0,0.0,0.0,0.0,0.0,0.0,0.0,0.0,0.0,0.0,0.0,0.0,0.0,0.0,0.0,0.0,0.0,0.0,0.0,0.0,0.0,0.0,0.0,0.0,0.0,0.0,0.0,0.0,0.0,0.0,0.0,0.0,0.0,0.0,0.0,0.0,0.0,0.0,0.0,0.0,0.0,0.0,0.0,0.0,0.0,0.0,0.0,0.0,0.0,0.0,0.0,0.0,0.0,0.0,0.0,0.0,0.0,0.0,0.0,0.0,0.0,0.0,0.0,0.0,0.0,0.0,0.0,0.0,0.0,0.0,0.0,0.0,0.0,0.0,0.0,0.0,0.0,0.0,0.0,0.0,0.0,0.0,0.0,0.0,0.0,0.0,0.0,0.0,0.0,0.0,0.0,0.0,0.0,0.0,0.0,0.0,0.0,0.0,0.0,0.0,0.0,0.0,0.0,0.0,0.0,0.0,0.0,0.0,0.0,0.0,0.0,0.0,0.0,0.0,0.0,0.0,0.0,0.0,0.0,0.0,0.0,0.0,0.0,0.0,0.0,0.0,0.0,0.0,0.0,0.0,0.0,0.0,0.0,0.0,0.0,0.0,0.0,0.0,0.0,0.0,0.0,0.0,0.0,0.0,0.0,0.0,0.0,0.0,0.0,0.0,0.0,0.0,0.0,0.0,0.0,0.0,0.0,0.0,0.0,0.0,0.0,0.0,0.0,0.0,0.0,0.0,0.0,0.0,0.0,0.0,0.0,0.0,0.0,0.0,0.0,0.0,0.0,0.0,0.0,0.0,0.0,0.0,0.0,0.0,0.0,0.0,0.0,0.0,0.0,0.0,0.0,0.0,0.0,0.0,0.0,0.0,0.0,0.0,0.0,0.0,0.0,0.0,0.0,0.0,0.0,0.0,0.0,0.0,0.0,0.0,0.0,0.0,0.0,0.0,0.0,0.0,0.0,0.0,0.0,0.0,0.0,0.0,0.0,0.0,0.0,0.0,0.0,0.0,0.0,0.0,0.0,0.0,0.0,0.0,0.0,0.0,0.0,0.0,0.0,0.0,0.0,0.0,0.0,0.0,0.0,0.0,0.0,0.0,0.0,0.0,0.0,0.0,0.0,0.0,0.0,0.0,0.0,0.0,0.0,0.0,0.0,0.0,0.0,0.0,0.0,0.0,0.0,0.0,0.0,0.0,0.0,0.0,0.0,0.0,0.0,0.0,0.0,0.0,0.0,0.0,0.0,0.0,0.0,0.0,0.0,0.0,0.0,0.0,0.0,0.0,0.0,0.0,0.0,0.0,0.0,0.0,0.0,0.0,0.0,0.0,0.0,0.0,0.0,0.0,0.0,0.0,0.0,0.0,0.0,0.0,0.0,0.0,0.0,0.0,0.0,0.0,0.0,0.0,0.0,0.0,0.0,0.0,0.0,0.0,0.0,0.0,0.0,0.0,0.0,0.0,0.0,0.0,0.0,0.0,0.0,0.0,0.0,0.0,0.0,0.0,0.0,0.0,0.0,0.0,0.0,0.0,0.0,0.0,0.0,0.0,0.0,0.0,0.0,0.0,0.0,0.0,0.0,0.0,0.0,0.0,0.0,0.0,0.0,0.0,0.0,0.0,0.0,0.0,0.0,0.0,0.0,0.0,0.0,0.0,0.0,0.0,0.0,0.0,0.0,0.0,0.0,0.0,0.0,0.0,0.0,0.0,0.0,0.0,0.0,0.0,0.0,0.0,0.0,0.0,0.0,0.0,0.0,0.0,0.0,0.0,0.0,0.0,0.0,0.0,0.0,0.0,0.0,0.0,0.0,0.0,0.0,0.0,0.0,0.0,0.0,0.0,0.0,0.0,0.0,0.0,0.0,0.0,0.0,0.0,0.0,0.0,0.0,0.0,0.0,0.0,0.0,0.0,0.0,0.0,0.0,0.0,0.0,0.0,0.0,0.0,0.0,0.0,0.0,0.0,0.0,0.0,0.0,0.0,0.0,0.0,0.0,0.0,0.0,0.0,0.0,0.0,0.0,0.0,0.0,0.0,0.0,0.0,0.0,0.0,0.0,0.0,0.0,0.0,0.0,0.0,0.0,0.0,0.0,0.0,0.0,0.0,0.0,0.0,0.0,0.0,0.0,0.0,0.0,0.0,0.0,0.0,0.0,0.0,0.0,0.0,0.0,0.0,0.0,0.0,0.0,0.0,0.0,0.0,0.0,0.0,0.0,0.0,0.0,0.0,0.0,0.0,0.0,0.0,0.0,0.0,0.0,0.0,0.0,0.0,0.0,0.0,0.0,0.0,0.0,0.0,0.0,0.0,0.0,0.0,0.0,0.0,0.0,0.0,0.0,0.0,0.0,0.0,0.0,0.0,0.0,0.0,0.0,0.0,0.0,0.0,0.0,0.0,0.0,0.0,0.0,0.0,0.0,0.0,0.0,0.0,0.0,0.0,0.0,0.0,0.0,0.0,0.0,0.0,0.0,0.0,0.0,0.0,0.0,0.0,0.0,0.0,0.0,0.0,0.0,0.0,0.0,0.0,0.0,0.0,0.0,0.0,0.0,0.0,0.0,0.0,0.0,0.0,0.0,0.0,0.0,0.0,0.0,0.0,0.0,0.0,0.0,0.0,0.0,0.0,0.0,0.0,0.0,0.0,0.0,0.0,0.0,0.0,0.0,0.0,0.0,0.0,0.0,0.0,0.0,0.0,0.0,0.0,0.0,0.0,0.0,0.0,0.0,0.0,0.0,0.0,0.0,0.0,0.0,0.0,0.0,0.0,0.0,0.0,0.0,0.0,0.0,0.0,0.0,0.0,0.0,0.0,0.0,0.0,0.0,0.0,0.0,0.0,0.0,0.0,0.0,0.0,0.0,0.0,0.0,0.0,0.0,0.0,0.0,0.0,0.0,0.0,0.0,0.0,0.0,0.0,0.0,0.0,0.0,0.0,0.0,0.0,0.0,0.0,0.0,0.0,0.0,0.0,0.0,0.0,0.0,0.0,0.0,0.0,0.0,0.0,0.0,0.0,0.0,0.0,0.0,0.0,0.0,0.0,0.0,0.0,0.0,0.0,0.0,0.0,0.0,0.0,0.0,0.0,0.0,0.0,0.0,0.0,0.0,0.0,0.0,0.0,0.0,0.0,0.0,0.0,0.0,0.0,0.0,0.0,0.0,-3.3737,-3.2429,0.0,0.0,0.0,0.0,0.0,0.0,0.0,0.0,0.0,0.0,0.0,0.0,0.0,0.0,0.0,0.0,0.0,0.0,0.0,0.0,0.0,0.0,0.0,0.0,0.0,0.0,-4.0516,-4.0516,-4.0516,-4.0516,0.0,0.0,0.0,0.0,-4.1162,-4.1646,-4.209,-4.2521,-4.3117,-4.4413,-4.6313,-4.679,-4.559,-4.3085,0.0,0.0,0.0,0.0,0.0,0.0,0.0,0.0,0.0,0.0,0.0,0.0,0.0,0.0,0.0,0.0,0.0,0.0,0.0,0.0,0.0,0.0,0.0,0.0,0.0,0.0,0.0,0.0,0.0,0.0,0.0,0.0,0.0,0.0,0.0,0.0,0.0,0.0,0.0,0.0,0.0,0.0,0.0,0.0,0.0,0.0,0.0,0.0,0.0,0.0,0.0,0.0,0.0,0.0,0.0,0.0,0.0,0.0,0.0,0.0,0.0,0.0,0.0,0.0,0.0,0.0,0.0,0.0,0.0,0.0,-3.6546,-3.4507,0.0,0.0,0.0,0.0,0.0,0.0,0.0,0.0,0.0,0.0,0.0,0.0,0.0,0.0,0.0,0.0,0.0,0.0,0.0,0.0,0.0,0.0,0.0,-4.0588,-4.0516,-4.0516,-4.0516,-4.0516,-4.0516,-4.0516,-4.0554,-4.0708,-4.0746,-4.08,-4.0954,-4.177,-4.2637,-4.353,-4.5312,-4.7785,-5.083,-5.1864,-5.0008,0.0,0.0,0.0,0.0,0.0,0.0,0.0,0.0,0.0,0.0,0.0,0.0,0.0,0.0,0.0,0.0,0.0,0.0,0.0,0.0,0.0,0.0,0.0,0.0,0.0,0.0,0.0,0.0,0.0,0.0,0.0,0.0,0.0,0.0,0.0,0.0,0.0,0.0,0.0,0.0,0.0,0.0,0.0,0.0,0.0,0.0,0.0,0.0,0.0,0.0,0.0,0.0,0.0,0.0,0.0,0.0,0.0,0.0,0.0,0.0,0.0,0.0,0.0,0.0,0.0,-4.4586,-4.5355,-4.6701,-4.6556,-4.6163,-4.5355,-4.07,-3.7962,-3.6769,-3.6192,0.0,0.0,0.0,0.0,0.0,0.0,0.0,0.0,0.0,0.0,0.0,0.0,0.0,0.0,0.0,0.0,0.0,0.0,0.0,0.0,0.0,-4.0588,-4.0516,-4.0516,-4.0516,-4.0516,-4.0516,-4.0516,-4.0862,-4.1585,-4.1623,-4.2017,-4.2847,-4.2988,-4.3535,-4.4509,-4.9095,-5.2674,-5.5275,-5.6769,-5.7013,-5.6011,-4.9471,0.0,0.0,0.0,0.0,0.0,0.0,0.0,0.0,0.0,0.0,0.0,0.0,0.0,0.0,0.0,0.0,0.0,0.0,0.0,0.0,0.0,0.0,0.0,0.0,0.0,0.0,0.0,0.0,0.0,0.0,0.0,0.0,0.0,0.0,0.0,0.0,0.0,0.0,0.0,0.0,0.0,0.0,0.0,-3.3744,-3.3006,0.0,0.0,0.0,0.0,0.0,0.0,0.0,0.0,0.0,0.0,0.0,0.0,0.0,-4.4201,-4.5692,-4.7394,-4.8702,-4.9711,-5.0394,-5.0846,-5.1038,-5.0356,-5.0356,-5.0731,-4.7855,0.0,-4.1854,-3.8892,0.0,0.0,0.0,0.0,0.0,0.0,0.0,0.0,0.0,0.0,0.0,0.0,0.0,0.0,0.0,0.0,0.0,0.0,0.0,0.0,0.0,-4.2526,-4.3582,-4.4155,-4.6858,-4.7132,-4.3796,-4.4905,-4.4337,-4.1324,-4.1163,-4.1596,-4.2497,-4.3121,-4.5297,-4.906,-5.5178,-5.8871,-6.0289,-6.1444,-6.2208,-6.2358,-5.7049,-5.328,-5.0587,-4.7317,0.0,0.0,0.0,0.0,0.0,0.0,0.0,0.0,0.0,0.0,0.0,0.0,0.0,0.0,0.0,0.0,0.0,0.0,0.0,0.0,0.0,0.0,0.0,0.0,0.0,0.0,0.0,0.0,0.0,0.0,0.0,0.0,0.0,0.0,0.0,0.0,0.0,0.0,0.0,-3.5291,-3.6389,-3.5185,-3.7238,-3.7777,0.0,0.0,0.0,0.0,0.0,0.0,0.0,0.0,0.0,-4.3324,-4.5855,-4.7548,-4.8317,-5.0433,-5.2202,-5.351,-5.3395,-5.3857,-5.4741,-5.3895,-5.3703,-5.3933,-5.1856,-4.9856,-4.774,-4.3855,-4.1362,-3.9785,0.0,0.0,0.0,0.0,-3.5468,-3.5199,0.0,0.0,0.0,0.0,0.0,0.0,0.0,0.0,0.0,0.0,0.0,0.0,-4.3018,-4.565,-4.7881,-4.9332,-5.2574,-5.2636,-4.821,-4.8028,-4.615,-4.1796,-4.1022,-4.123,-4.2327,-4.4691,-4.8878,-5.4833,-6.0758,-6.4169,-6.5237,-6.6474,-6.7209,-6.7359,-6.4397,-6.0012,-5.4577,-5.0933,-4.7971,0.0,0.0,0.0,0.0,0.0,0.0,0.0,0.0,0.0,0.0,0.0,0.0,0.0,0.0,0.0,0.0,0.0,0.0,0.0,0.0,0.0,0.0,0.0,0.0,0.0,0.0,0.0,0.0,0.0,0.0,0.0,0.0,0.0,0.0,0.0,0.0,0.0,0.0,-3.6956,-3.835,-3.6601,-3.9084,-3.9892,0.0,0.0,0.0,0.0,0.0,0.0,-4.4201,-4.4586,-4.5586,-4.7471,-4.9779,-5.1125,-5.1318,-5.3433,-5.5126,-5.6357,-5.5742,-5.6126,-5.7291,-5.6434,-5.6011,-5.5934,-5.4472,-5.3241,-5.1923,-4.7663,-4.4432,-4.2085,-4.1439,-4.0392,-3.9277,-3.9046,-3.843,-3.7853,0.0,0.0,0.0,0.0,0.0,0.0,0.0,0.0,0.0,0.0,0.0,-4.3057,-4.6454,-4.984,-5.2952,-5.561,-5.4562,-5.3575,-5.3165,-4.7171,-4.3756,-4.4111,-4.1924,-4.1512,-4.328,-4.9161,-5.5195,-6.125,-6.4505,-6.7397,-6.9933,-7.2051,-7.2643,-7.1822,-7.0052,-6.6821,-6.232,-5.5742,-5.2856,-5.2202,0.0,0.0,0.0,0.0,0.0,0.0,0.0,0.0,0.0,0.0,0.0,0.0,0.0,0.0,0.0,0.0,0.0,0.0,0.0,0.0,0.0,0.0,0.0,0.0,0.0,0.0,0.0,0.0,0.0,0.0,0.0,0.0,0.0,0.0,0.0,0.0,0.0,0.0,0.0,-3.5846,-4.1316,0.0,0.0,0.0,0.0,-4.2777,-4.3547,-4.5124,-4.7702,-4.8625,-5.024,-5.2741,-5.4472,-5.578,-5.6599,-5.7588,-5.8088,-5.8165,-5.8127,-5.8165,-5.8204,-5.7319,-5.6945,-5.6868,-5.5972,-5.4664,-5.2818,-4.8586,-4.6731,-4.6355,-4.3893,-4.2931,-4.2739,-4.1931,-4.1046,-4.0323,0.0,0.0,0.0,0.0,0.0,0.0,0.0,0.0,-4.0146,-4.0453,-4.3162,-4.6452,-4.9989,-5.5391,-6.0067,-6.3359,-6.4076,-6.2719,-5.8707,-5.3605,-4.9576,-4.712,-4.4078,-4.4603,-4.9278,-5.4803,-6.0035,-6.4852,-6.9145,-7.1933,-7.3287,-7.3961,-7.4399,-7.4553,-7.2322,-7.0475,-6.8513,-6.0589,-5.5049,-5.1318,-4.8048,-4.5086,0.0,0.0,0.0,0.0,0.0,0.0,0.0,0.0,0.0,0.0,0.0,0.0,0.0,0.0,0.0,0.0,0.0,0.0,0.0,0.0,0.0,0.0,0.0,0.0,0.0,0.0,0.0,0.0,0.0,0.0,0.0,0.0,0.0,0.0,0.0,0.0,0.0,-4.2265,-4.568,0.0,-4.393,-4.5,-4.6107,-4.6702,-4.7789,-4.974,-5.2818,-5.328,-5.4395,-5.6434,-5.755,-5.828,-5.8588,-5.8934,-5.9088,-5.905,-5.7973,-5.7473,-5.7434,-5.6549,-5.5857,-5.5357,-5.5049,-5.3933,-5.2231,-5.0731,-4.9471,-4.8317,-4.6317,-4.5547,-4.5509,-4.5192,-4.4547,-4.3863,0.0,0.0,0.0,0.0,0.0,0.0,0.0,0.0,-3.983,-4.0407,-4.4739,-4.9414,-5.3843,-6.0709,-6.6392,-6.9967,-6.9993,-6.7742,-6.2757,-5.6311,-5.1262,-4.8122,-4.6173,-4.8081,-5.4336,-5.9492,-6.4327,-6.8752,-7.2561,-7.4636,-7.4978,-7.5117,-7.5284,-7.5476,-7.3514,-7.2476,-7.1783,-6.5243,-5.9242,-5.3818,-5.0664,-4.8048,-4.5577,0.0,0.0,0.0,0.0,0.0,0.0,0.0,0.0,0.0,0.0,0.0,0.0,0.0,0.0,0.0,0.0,0.0,0.0,0.0,0.0,0.0,0.0,0.0,0.0,0.0,0.0,0.0,0.0,0.0,0.0,0.0,0.0,0.0,0.0,-4.2179,-4.489,-4.6644,-4.9271,-5.0197,-4.8251,-4.8829,-4.9756,-5.0812,-5.1959,-5.3865,-5.6819,-5.6973,-5.7582,-5.8884,-5.9569,-5.9734,-5.9268,-5.9415,-5.9204,-5.8627,-5.7522,-5.6868,-5.656,-5.5972,-5.5395,-5.4895,-5.4626,-5.3857,-5.2731,-5.2154,-5.1231,-5.0125,-4.874,-4.8009,-4.7702,-4.7432,-4.6778,-4.6086,0.0,0.0,0.0,0.0,0.0,0.0,0.0,-3.8432,-3.9791,-4.046,-4.5825,-5.1903,-5.8001,-6.5544,-7.1559,-7.5098,-7.1411,-6.7736,-6.5011,-5.4608,-4.8089,-4.7157,-4.8319,0.0,-5.8047,-6.3164,-6.8194,-7.3122,-7.4593,-7.5266,-7.5094,-7.5734,-7.5553,-7.4707,-7.3899,-7.3053,-7.2091,-6.9552,-6.559,-6.0512,-5.4587,-5.2077,-5.1278,0.0,0.0,0.0,0.0,0.0,0.0,0.0,0.0,0.0,0.0,0.0,0.0,0.0,0.0,0.0,0.0,0.0,0.0,0.0,0.0,0.0,0.0,0.0,0.0,0.0,0.0,0.0,0.0,0.0,0.0,0.0,0.0,0.0,-4.0253,-4.5279,-4.8655,-4.8386,-5.192,-5.344,-5.0938,-5.2242,-5.3761,-5.4998,-5.5892,-5.7288,-5.9388,-5.9477,-5.969,-6.0079,-6.0533,-6.0162,-5.8859,-5.928,-5.8665,-5.706,-5.7022,-5.656,-5.5703,-5.5703,-5.5703,-5.5626,-5.4857,-5.4472,-5.428,-5.2577,-5.1885,-5.1769,-5.101,-5.0164,-4.9356,-4.8509,-4.7663,-4.6817,0.0,0.0,0.0,0.0,0.0,0.0,0.0,-3.7424,-3.9265,-4.1305,-4.8819,-5.6106,-6.1719,-6.9076,-7.477,-7.7602,-7.2278,-6.7348,-6.3957,-5.4688,-4.9248,-4.9195,0.0,0.0,-6.4297,-6.7617,-7.1436,-7.5815,-7.6118,-7.6471,-7.6864,-7.6274,-7.5861,-7.563,-7.4745,-7.3899,-7.3014,-7.1052,-6.8706,-6.5859,-6.0512,-5.6299,-5.297,0.0,0.0,0.0,0.0,0.0,0.0,0.0,0.0,0.0,0.0,0.0,0.0,0.0,0.0,0.0,0.0,0.0,0.0,0.0,0.0,0.0,0.0,0.0,0.0,0.0,0.0,0.0,0.0,0.0,0.0,0.0,-4.0698,-4.3514,-4.5637,-4.828,-5.098,-5.3663,-5.5758,-5.6478,-5.518,-5.6343,-5.7061,-5.6815,-5.7901,-5.883,-5.9397,-5.945,-5.9619,-6.0103,-6.0241,-6.0263,-6.0264,-5.9734,-5.8973,-5.7934,-5.7291,-5.656,-5.5703,-5.5703,-5.5395,-5.4818,-5.4587,-5.378,-5.2577,-5.2115,-5.1548,-5.101,-5.0789,-5.0558,-5.0327,-5.0048,-4.9048,-4.7548,0.0,0.0,0.0,0.0,0.0,0.0,0.0,-3.6787,-3.9044,-4.164,-5.0086,-5.7843,-6.3223,-6.955,-7.4147,-7.5996,-6.9881,-6.4293,-6.0369,-5.3575,0.0,0.0,0.0,-6.2695,-6.8359,-7.1282,-7.4056,-7.676,-7.6934,-7.6971,-7.6932,-7.6269,-7.6015,-7.5976,-7.5091,-7.4437,-7.3899,-7.2552,-7.1437,-7.0244,-6.6898,-6.2515,-5.7634,-5.441,-5.1797,-4.9534,-4.7211,-4.6891,-4.7076,-4.3737,0.0,0.0,0.0,0.0,0.0,0.0,0.0,0.0,0.0,0.0,0.0,0.0,0.0,0.0,0.0,0.0,0.0,0.0,0.0,0.0,0.0,0.0,0.0,0.0,-4.3826,-4.731,-5.0758,-5.1872,-5.3366,-5.6117,-5.7368,-5.7813,-5.7336,-5.798,-5.828,-5.8022,-5.8709,-5.9176,-5.9389,-5.9389,-5.9424,-5.9509,-5.969,-5.9649,-5.9368,-5.8744,-5.8012,-5.721,-5.6345,-5.5695,-5.5199,-5.5199,-5.5045,-5.4706,-5.4016,-5.324,-5.2385,-5.1702,-5.1125,-5.0712,0.0,0.0,0.0,0.0,-4.8509,-4.6894,0.0,0.0,0.0,0.0,0.0,0.0,0.0,-3.63,-3.8916,-4.1662,-5.0002,-5.7578,-6.2573,-6.7601,-7.095,-7.1696,-6.5561,-5.9892,-5.5758,0.0,0.0,-5.7265,-6.168,-6.6328,-7.1288,-7.4449,-7.6297,-7.6856,-7.7341,-7.7098,-7.613,-7.6053,-7.6015,-7.5976,-7.5207,-7.4861,-7.4784,-7.3976,-7.363,-7.3553,-7.2591,-6.8967,-6.3616,-5.8754,-5.6755,-5.5951,-5.1848,-4.9958,-4.9003,-4.6397,0.0,0.0,0.0,0.0,0.0,0.0,0.0,0.0,0.0,0.0,0.0,0.0,0.0,0.0,0.0,0.0,0.0,0.0,0.0,0.0,0.0,0.0,0.0,0.0,-4.7023,-5.0171,-5.5122,-5.548,-5.5653,-5.6793,-5.7556,-5.7997,-5.7997,-5.7997,-5.8186,-5.8591,-5.8632,-5.8796,-5.9212,-5.923,0.0,0.0,0.0,-5.8783,-5.7635,-5.7241,-5.6618,-5.5826,-5.5012,-5.4597,-5.4484,-5.4484,-5.4686,-5.4939,-5.339,-5.2891,-5.2997,-5.1462,-5.0789,-5.0712,-5.0712,-5.0712,-5.0519,-4.8856,-4.724,-4.5864,0.0,0.0,0.0,0.0,0.0,0.0,0.0,-3.5323,-3.8227,-4.1707,-4.9004,-5.5145,-5.8442,-6.3759,-6.7154,-6.7317,-6.2249,-5.7612,0.0,0.0,-5.6572,-6.2539,-6.7617,-7.1986,-7.5609,-7.766,-7.8585,-7.8374,-7.7855,-7.7408,-7.7015,-7.6322,-7.6015,-7.5976,-7.5822,-7.5745,-7.5707,-7.4822,-7.4476,-7.4361,-7.2822,-6.9827,-6.6124,-6.4443,-6.1235,-5.7457,-5.5948,-5.5721,-5.5574,-5.183,-5.1353,-5.1499,-4.6929,0.0,0.0,0.0,0.0,0.0,0.0,0.0,0.0,0.0,0.0,0.0,0.0,0.0,0.0,0.0,0.0,0.0,0.0,0.0,0.0,-4.7434,-5.0615,-5.3609,-5.6634,-5.7248,-5.7486,-5.774,-5.7923,-5.7997,-5.7997,-5.7997,-5.8042,-5.8142,-5.8142,-5.815,-5.826,-5.8282,-5.8397,-5.8713,-5.8776,-5.8915,-5.9022,-5.8298,-5.7503,-5.6656,-5.5859,0.0,-5.4484,-5.4484,-5.4532,-5.4587,-5.3867,-5.3251,-5.2652,-5.1945,-5.1279,-5.0712,-5.0712,-5.0712,-5.0558,-4.951,-4.8509,-4.7509,0.0,0.0,0.0,0.0,0.0,0.0,0.0,-3.5045,-3.7823,-4.1033,-4.6649,-5.157,-5.4768,-5.7598,-5.9396,-5.9808,-5.5777,-5.3516,0.0,-5.6723,-6.1339,-6.8476,-7.2412,-7.5626,-7.8082,-7.9189,-7.9221,-7.822,-7.8103,-7.7585,-7.663,-7.6207,-7.6015,-7.6015,-7.6015,-7.6015,-7.5976,-7.5553,-7.5361,-7.5284,-7.4437,-7.2608,-7.0173,-6.8104,-6.51,-6.1841,-6.0211,-5.9175,-5.807,-5.4399,-5.3482,-5.3078,-4.8984,-4.6049,-4.348,0.0,0.0,0.0,0.0,0.0,0.0,0.0,0.0,0.0,0.0,0.0,0.0,0.0,0.0,-3.8212,-4.0634,0.0,-4.6644,-4.9954,-5.2819,-5.5348,-5.7402,-5.7884,-5.7997,-5.7997,-5.7997,-5.7997,-5.7997,-5.7997,-5.7997,-5.7997,-5.7997,-5.7997,-5.7997,-5.7997,-5.8097,-5.8332,-5.8332,-5.8296,-5.808,-5.7317,-5.6497,-5.5658,-5.482,-5.4243,-5.387,-5.387,-5.3961,-5.4115,-5.343,-5.3171,-5.3124,-5.2269,-5.1433,-5.0712,-5.0712,-5.0442,-5.001,-4.9548,-4.8586,-4.7432,0.0,0.0,0.0,0.0,0.0,0.0,0.0,-3.4776,-3.7173,-3.9846,-4.3752,-4.7352,-5.0267,-5.0895,-5.1283,-5.1763,-4.9993,0.0,0.0,-6.0053,-6.6063,-7.3711,-7.637,-7.8343,-7.9808,-8.0174,-7.9579,-7.801,-7.8507,-7.79,-7.6245,-7.6245,-7.6169,-7.6015,-7.6015,-7.6092,-7.6245,-7.6053,-7.6207,-7.6438,-7.5938,-7.518,-7.3913,-7.0467,-6.796,-6.5971,-6.323,-6.0515,-5.79,-5.5464,-5.3812,-5.2307,-4.9811,-4.8159,-4.6232,-4.1882,-4.0524,0.0,0.0,0.0,0.0,0.0,0.0,0.0,0.0,-3.6009,-3.7345,-3.8447,-3.9953,-4.1735,-4.4011,-4.6838,-4.9554,-5.1867,-5.4106,-5.6051,-5.7336,-5.7666,-5.7666,-5.7336,-5.7703,-5.7923,-5.7776,-5.7923,-5.7997,-5.7997,-5.7997,-5.7997,-5.7997,-5.7997,-5.7997,-5.7997,-5.7997,-5.7593,-5.6822,-5.5978,-5.5207,-5.4399,-5.3592,-5.3203,-5.3203,-5.3203,-5.338,-5.3645,-5.2679,-5.2714,-5.3351,-5.2066,-5.116,-5.0594,-5.0692,-5.0211,-4.9557,-4.9606,-4.8586,-4.7115,0.0,0.0,0.0,0.0,0.0,0.0,0.0,0.0,-3.5438,-3.813,-4.0873,-4.281,-4.3328,-4.5259,-4.6197,-4.5395,0.0,0.0,-5.8052,-6.3784,-6.9919,-7.6484,-7.9028,-8.0651,-8.1445,-8.13,-8.068,-7.9537,-7.9608,-7.8784,-7.713,-7.713,-7.6746,-7.6015,-7.6015,-7.6438,-7.7092,-7.6322,-7.6861,-7.8015,-7.5745,-7.5216,-7.5349,-7.1516,-6.8849,-6.6671,-6.3023,-5.8764,-5.4987,-5.5354,-5.3518,-5.1132,-5.1463,-4.9517,-4.6562,-4.3864,0.0,-3.7477,-3.5518,-3.4014,-3.3316,-3.4564,-3.4454,-3.4981,0.0,-3.935,-4.0136,-4.2376,-4.4085,-4.5736,-4.7462,-4.926,-5.1096,-5.2784,-5.4473,-5.5669,-5.5831,-5.6492,-5.6418,-5.4987,-5.6712,-5.7703,-5.7005,-5.7593,-5.7997,-5.7997,-5.7997,-5.7997,-5.7997,-5.7997,-5.7997,-5.7997,-5.7997,-5.7593,-5.6822,-5.5978,-5.5207,-5.4399,-5.3592,-5.3203,-5.3203,-5.3203,-5.3209,-5.3182,-5.1974,-5.1724,-5.2099,-5.0825,-5.0248,-5.0195,-5.0573,-5.0406,-5.0042,-5.043,-4.9471,-4.7971,0.0,0.0,0.0,0.0,0.0,0.0,0.0,0.0,0.0,-3.644,-3.802,-3.9267,-3.982,-4.078,-4.1177,0.0,0.0,0.0,-5.7676,-6.4001,-7.0569,-7.743,-7.9916,-8.123,-8.1514,-8.1336,-8.0757,-7.9823,0.0,0.0,0.0,0.0,0.0,0.0,0.0,0.0,0.0,0.0,0.0,0.0,0.0,0.0,-7.4125,-7.0178,-6.6532,-6.3104,-5.9752,-5.6177,0.0,0.0,-5.0068,-4.9481,-5.0345,-4.8673,-4.592,-4.3497,-4.0598,0.0,-3.5591,-3.4894,-3.4908,-3.5605,-3.6912,-3.8505,-4.023,-4.1699,-4.324,-4.5186,-4.6874,-4.8489,-5.0141,-5.1793,-5.3115,-5.3812,-5.484,-5.5596,-5.5596,-5.5097,-5.4289,-5.3151,-5.3482,-5.4216,-5.5317,-5.6124,-5.6785,-5.7262,-5.7299,-5.7519,-5.796,-5.7556,-5.7299,-5.7299,-5.6859,-5.6198,-5.5427,-5.506,-5.4509,-5.3702,-5.3371,-5.3203,-5.3203,-5.3203,-5.3203,-5.3172,-5.2382,-5.1889,-5.1532,-5.0799,-5.0367,-5.0123,-5.0302,-5.023,-5.0147,-5.0535,-4.945,-4.782,0.0,0.0,0.0,0.0,0.0,0.0,0.0,0.0,0.0,0.0,-3.559,-3.64,-3.7019,-3.7328,-3.743,0.0,0.0,0.0,0.0,-6.2345,-6.9189,-7.6322,-7.9018,0.0,-8.1019,-8.107,0.0,0.0,0.0,0.0,0.0,0.0,0.0,0.0,0.0,0.0,0.0,0.0,0.0,0.0,0.0,0.0,-7.228,-6.7638,-6.2905,-5.8429,-5.5917,-5.2567,0.0,0.0,-4.559,-4.5553,-4.6838,-4.5883,-4.3864,-4.1882,-3.957,-3.7279,-3.5481,-3.5628,-3.645,-3.711,-3.9386,-4.1535,-4.1976,-4.3774,-4.5755,-4.7149,-4.8563,-4.9958,-5.1389,-5.2637,-5.3482,-5.3702,-5.4399,-5.484,-5.4641,-5.3592,-5.2417,-5.1132,-5.0472,-5.0732,-5.2381,-5.4007,-5.528,-5.6088,-5.6345,-5.6712,-5.7299,-5.6785,-5.6455,-5.6455,-5.5904,-5.5207,-5.4399,-5.4399,-5.3995,-5.3203,-5.3203,-5.3203,-5.3203,-5.3203,-5.3203,-5.3172,-5.2433,-5.1733,-5.112,-5.052,-5.0084,-4.9768,-4.9898,-4.9733,-4.9504,-4.9874,-4.8968,-4.7568,0.0,0.0,0.0,0.0,0.0,0.0,0.0,0.0,0.0,0.0,0.0,0.0,0.0,0.0,0.0,0.0,0.0,0.0,0.0,-5.8746,-6.5654,-7.2659,-7.6002,-7.8475,-8.0101,0.0,0.0,0.0,0.0,0.0,0.0,0.0,0.0,0.0,0.0,0.0,0.0,0.0,0.0,0.0,0.0,0.0,-7.028,-6.39,-5.8213,-5.3437,-5.2044,0.0,0.0,0.0,-4.0377,-3.8227,-4.0634,-4.0781,0.0,-3.9056,-3.7059,-3.5114,-3.5041,-3.5628,-3.6853,-3.9203,-4.1038,-4.269,-4.4214,-4.5828,-4.7259,-4.8086,-4.8967,-4.9867,-5.0692,-5.0875,-5.1169,-5.194,-5.2747,-5.3004,-5.2197,-5.205,-5.1132,-4.871,-4.8379,-4.8255,-4.7904,-5.117,-5.3628,-5.4399,-5.5207,-5.5669,-5.5647,-5.5669,-5.5647,-5.5647,-5.5611,-5.5207,-5.4399,-5.4399,-5.3995,-5.3203,-5.3203,-5.3203,-5.3203,-5.3203,-5.3203,-5.3115,-5.1557,-5.0822,-5.0715,-4.9486,-4.8949,-4.8961,-4.9371,-4.8792,-4.7836,-4.8225,-4.801,-4.7453,0.0,0.0,0.0,0.0,0.0,0.0,0.0,0.0,0.0,0.0,0.0,0.0,0.0,0.0,0.0,0.0,0.0,0.0,0.0,-5.4465,-6.0692,-6.4854,-7.0264,-7.3678,0.0,0.0,0.0,0.0,0.0,0.0,0.0,0.0,0.0,0.0,0.0,0.0,0.0,0.0,0.0,0.0,0.0,0.0,-6.3654,-5.869,-5.3439,-4.8313,0.0,0.0,0.0,0.0,0.0,-3.5275,-3.6619,-3.6509,-3.5569,-3.4247,-3.4027,-3.4468,-3.5569,-3.7257,-3.9276,-4.1679,-4.3497,-4.4966,-4.6049,-4.6709,-4.7333,-4.8122,-4.6838,-4.5791,-4.6617,-4.6324,-4.6581,-4.8453,-4.9921,-5.1096,-5.1867,-5.1536,-5.0288,-4.781,-4.7021,-4.6542,-4.6094,-4.8938,-5.1437,-5.3006,-5.3686,-5.4473,-5.5559,-5.5097,-5.4803,-5.4803,-5.4289,-5.3885,-5.3628,-5.3592,-5.3482,-5.3203,-5.3203,-5.2931,-5.2417,-5.2968,-5.2637,-5.1573,-5.1059,-5.0508,-4.9941,-4.8937,-4.8676,-4.8857,-4.8445,-4.8055,-4.7602,-4.6887,-4.6341,-4.5998,0.0,0.0,0.0,0.0,0.0,0.0,0.0,0.0,0.0,0.0,0.0,0.0,0.0,0.0,0.0,0.0,0.0,0.0,0.0,0.0,-5.3494,-5.6777,-6.1819,-6.5243,0.0,0.0,0.0,0.0,0.0,0.0,0.0,0.0,0.0,0.0,0.0,0.0,0.0,0.0,0.0,0.0,0.0,0.0,-5.6742,-5.2472,-4.7987,0.0,0.0,0.0,0.0,0.0,0.0,-3.2669,-3.3463,-3.3366,-3.2852,-3.2375,-3.3403,-3.5165,-3.7404,-3.957,-4.1772,-4.4195,-4.5553,-4.6452,-4.6966,-4.6892,-4.6489,-4.5883,-4.3864,-4.2176,-4.2139,-4.1479,-4.1992,-4.5296,-4.6471,-4.7958,-5.0749,-5.0178,-4.9003,-4.7663,-4.6838,-4.6284,-4.6094,-4.8218,-5.0043,-5.1137,-5.2581,-5.3691,-5.4274,-5.4223,-5.4133,-5.3995,-5.3482,-5.3203,-5.3203,-5.3203,-5.3203,-5.3203,-5.2931,-5.2491,-5.2013,-5.2234,-5.1793,-5.0765,-5.0508,-4.9884,-4.9077,-4.8526,-4.809,-4.7821,-4.7599,-4.7117,-4.652,-4.573,-4.5056,-4.4708,0.0,0.0,0.0,0.0,0.0,0.0,0.0,0.0,0.0,0.0,0.0,0.0,0.0,0.0,0.0,0.0,0.0,0.0,0.0,0.0,0.0,-4.8625,0.0,0.0,0.0,0.0,0.0,0.0,0.0,0.0,0.0,0.0,0.0,0.0,0.0,0.0,0.0,0.0,0.0,0.0,0.0,0.0,-4.9788,-4.5509,0.0,0.0,0.0,0.0,0.0,0.0,0.0,-3.0393,-3.1237,-3.1544,-3.1911,-3.355,-3.5238,-3.7221,-4.0398,-4.247,-4.4232,-4.6562,-4.7113,-4.7076,-4.7039,-4.6287,-4.4709,-4.1609,-4.0157,-3.8961,-3.7456,-3.6611,-3.7698,-4.2523,-4.28,-4.4121,-4.8986,-4.8343,-4.759,-4.8306,-4.7736,-4.7408,-4.7752,-4.8919,-4.9472,-4.9016,-5.1952,-5.3235,-5.2128,-5.3177,-5.3624,-5.3188,-5.3203,-5.3203,-5.3203,-5.3203,-5.3203,-5.3167,-5.238,-5.1977,-5.1903,-5.1169,-5.0729,-5.0582,-4.9867,-4.9003,-4.8196,-4.8196,-4.7278,-4.5957,-4.6709,-4.6049,-4.4691,-4.4654,-4.4158,-4.3597,0.0,0.0,0.0,0.0,0.0,0.0,0.0,0.0,0.0,0.0,0.0,0.0,0.0,0.0,0.0,0.0,0.0,0.0,0.0,0.0,0.0,0.0,0.0,0.0,0.0,0.0,0.0,0.0,0.0,0.0,0.0,0.0,0.0,0.0,0.0,0.0,0.0,0.0,0.0,0.0,0.0,0.0,-4.3662,0.0,0.0,0.0,0.0,0.0,0.0,0.0,0.0,-3.1347,-3.2742,-3.3587,-3.4527,-3.678,-3.8615,-4.0435,-4.3076,-4.4948,-4.6452,-4.7663,-4.7553,-4.6929,-4.6361,-4.3718,-4.1038,-3.9606,-3.5789,-3.2742,-3.2939,-3.3293,-3.5128,-4.001,-4.2653,-4.559,-4.9884,-5.0655,-5.0362,-4.939,-4.9627,-4.9508,-4.8682,-4.975,-5.0301,-4.9854,-5.1729,-5.292,-5.2879,-5.3474,-5.3624,-5.3188,-5.3203,-5.3203,-5.3203,-5.3203,-5.3203,-5.3167,-5.238,-5.1683,-5.1096,-5.0875,-4.9811,-4.8067,-4.8453,-4.7829,-4.6507,-4.6507,-4.6287,-4.5847,-4.548,-4.5058,-4.4635,-4.4011,-4.3698,-4.3549,0.0,0.0,0.0,0.0,0.0,0.0,0.0,0.0,0.0,0.0,0.0,0.0,0.0,0.0,0.0,0.0,0.0,0.0,0.0,0.0,0.0,0.0,0.0,0.0,0.0,0.0,0.0,0.0,0.0,0.0,0.0,0.0,0.0,0.0,0.0,0.0,0.0,0.0,0.0,0.0,0.0,0.0,0.0,0.0,0.0,0.0,0.0,0.0,0.0,0.0,0.0,-3.333,-3.5312,-3.6252,-3.7242,-4.0414,-4.1976,-4.3297,-4.6104,-4.7792,-4.8746,-4.8857,-4.8233,-4.6929,-4.4378,-4.1515,-3.8432,-3.5114,-3.1641,-2.9292,-2.9744,-3.0173,-3.2339,-3.7933,-4.0671,-4.3864,-4.8967,-5.0105,-5.0435,-5.0639,-5.1059,-5.116,-5.0823,-5.142,-5.1895,-5.1968,-5.2679,-5.2994,-5.2695,-5.34,-5.3624,-5.3188,-5.3203,-5.3203,-5.3203,-5.3203,-5.3203,-5.3188,-5.2013,-5.1242,-5.0765,-5.0031,-4.8967,-4.7626,-4.8122,-4.7388,-4.592,-4.6287,-4.581,-4.4819,-4.4745,-4.4488,-4.4121,-4.3644,-4.3515,-4.3515,0.0,0.0,0.0,0.0,0.0,0.0,0.0,0.0,0.0,0.0,0.0,0.0,0.0,0.0,0.0,0.0,0.0,0.0,0.0,0.0,0.0,0.0,0.0,0.0,0.0,0.0,0.0,0.0,0.0,0.0,0.0,0.0,0.0,0.0,0.0,0.0,0.0,0.0,0.0,0.0,0.0,0.0,0.0,0.0,0.0,0.0,0.0,0.0,0.0,0.0,-3.4747,-3.5922,-3.8395,-3.9313,-4.023,-4.4085,-4.5186,-4.5847,-4.893,-5.0251,-5.0582,-4.9684,-4.86,-4.6581,-4.1866,-3.9203,-3.6046,-3.0087,-2.8044,-2.7394,-2.7603,-2.7714,-2.9928,-3.6427,0.0,-4.0965,-4.7388,-4.8416,-4.9334,-5.172,-5.2087,-5.2417,-5.3151,-5.3203,-5.3482,-5.4179,-5.3913,-5.3269,-5.2218,-5.3177,-5.3624,-5.3188,-5.3203,-5.3203,-5.3203,-5.3203,-5.3203,-5.3167,-5.1683,-5.0912,-5.0765,-4.9187,-4.8343,-4.8159,-4.8159,-4.7241,-4.5773,-4.6489,-4.548,-4.3588,-4.4268,-4.4121,-4.3515,-4.3515,-4.3515,-4.3515,0.0,0.0,0.0,0.0,0.0,0.0,0.0,0.0,0.0,0.0,0.0,0.0,0.0,0.0,0.0,0.0,0.0,0.0,0.0,0.0,0.0,0.0,0.0,0.0,0.0,0.0,0.0,0.0,0.0,0.0,0.0,0.0,0.0,0.0,0.0,0.0,0.0,0.0,0.0,0.0,0.0,0.0,0.0,0.0,0.0,0.0,0.0,0.0,0.0,0.0,-3.6853,-3.849,-4.0928,-4.258,-4.4195,-4.6911,-4.7682,-4.8122,-5.0068,-5.0692,-5.0435,-4.893,-4.6911,-4.4214,-4.0084,-3.5752,0.0,-2.8631,-2.6319,-2.5217,-2.6576,-2.7346,-2.9928,-3.6427,-3.8175,-4.0965,-4.7388,-4.893,-5.0051,0.0,-5.2601,-5.3078,-5.3188,-5.3203,-5.324,-5.3387,-5.3345,-5.3198,-5.3004,-5.3511,-5.3624,-5.3188,-5.3203,-5.3203,-5.3203,-5.3203,-5.3203,-5.3167,-5.2234,-5.1426,-5.0765,-4.9811,-4.86,-4.7296,-4.7296,-4.6379,-4.4929,-4.5058,-4.4488,-4.3497,-4.3662,-4.3608,-4.3515,-4.3515,-4.3515,-4.3515,0.0,0.0,0.0,0.0,0.0,0.0,0.0,0.0,0.0,0.0,0.0,0.0,0.0,0.0,0.0,0.0,0.0,0.0,0.0,0.0,0.0,0.0,0.0,0.0,0.0,0.0,0.0,0.0,0.0,0.0,0.0,0.0,0.0,0.0,0.0,0.0,0.0,0.0,0.0,0.0,0.0,0.0,0.0,0.0,0.0,0.0,0.0,0.0,0.0,0.0,-3.4761,-3.7573,-4.2139,-4.4085,-4.5095,-4.7076,-4.8269,-4.9187,-5.0472,-5.1426,-5.1573,-4.9444,-4.7095,-4.3828,-3.8086,0.0,0.0,-2.6686,-2.4997,-2.4704,-2.6308,-2.7273,0.0,-3.4174,-3.5973,-3.8894,-4.4966,-4.6874,-4.8746,-5.1667,-5.2711,-5.3371,-5.3775,-5.3445,-5.335,-5.3812,-5.3445,-5.3203,-5.3203,-5.34,-5.342,-5.3225,-5.3203,-5.3203,-5.3203,-5.3203,-5.3203,-5.3188,-5.1977,-5.1169,-5.0765,-4.9481,-4.8489,-4.77,-4.77,-4.6819,-4.5333,-4.5333,-4.4599,-4.3515,-4.3515,-4.3754,-4.4121,-4.4121,-4.4378,-4.4745,0.0,0.0,0.0,0.0,0.0,0.0,0.0,0.0,-3.6206,-4.0977,-4.1131,-3.97,-3.6892,-3.2737,0.0,0.0,0.0,0.0,0.0,0.0,0.0,0.0,0.0,0.0,0.0,0.0,0.0,-2.7895,0.0,0.0,0.0,0.0,0.0,0.0,0.0,0.0,0.0,0.0,0.0,0.0,0.0,0.0,0.0,0.0,0.0,0.0,0.0,0.0,0.0,0.0,-3.2046,-3.5188,-4.0618,-4.3076,-4.4251,-4.5865,-4.7719,-4.9517,-5.0729,-5.2123,-5.2564,-4.9921,-4.7168,-4.3314,-3.6325,-3.2596,0.0,-2.5071,-2.419,-2.463,-2.6098,-2.6722,-2.8191,0.0,-3.339,-3.6288,-4.2139,-4.4525,-4.7095,-5.1022,-5.2344,0.0,-5.4069,-5.3592,-5.3482,-5.4106,-5.3555,-5.3203,-5.3203,-5.3203,-5.3203,-5.3203,-5.3203,-5.3203,-5.3203,-5.3203,-5.3115,-5.2931,-5.1646,-5.0875,-5.0508,-4.9187,-4.8489,-4.8306,-4.8306,-4.7498,-4.614,-4.5957,-4.5149,-4.3975,-4.3828,-4.4232,-4.4966,-4.4966,-4.5369,-4.5883,0.0,0.0,0.0,0.0,0.0,0.0,0.0,0.0,-3.7738,-4.4286,-4.3124,-4.1277,-4.0169,0.0,0.0,0.0,0.0,0.0,0.0,0.0,0.0,0.0,0.0,0.0,0.0,0.0,0.0,-2.7895,-2.7121,0.0,0.0,0.0,0.0,0.0,0.0,-2.8011,0.0,0.0,0.0,0.0,0.0,0.0,0.0,0.0,0.0,0.0,0.0,0.0,0.0,0.0,0.0,-3.2082,-3.4137,-3.783,-4.1756,-4.3351,0.0,0.0,-5.1242,-5.2527,-5.2433,-4.9224,-4.5516,-4.1111,-3.5238,0.0,-2.7383,-2.474,-2.419,-2.4493,-2.5338,-2.497,-2.6062,-3.0772,0.0,-3.399,-4.0398,-4.3333,-4.6067,-4.9427,0.0,0.0,-5.3225,-5.3261,-5.3203,-5.3298,-5.3261,-5.3203,-5.3203,-5.3203,-5.3203,-5.3203,-5.3203,-5.3203,-5.3203,-5.3203,-5.2821,-5.2087,-5.194,-5.1096,-4.9721,-4.9537,-4.904,-4.8306,-4.8306,-4.7773,-4.6929,-4.6214,-4.581,-4.559,-4.4892,-4.5076,-4.5773,-4.5773,-4.5847,-4.5883,0.0,0.0,0.0,0.0,0.0,0.0,0.0,0.0,-3.77,-4.6009,-4.5355,-4.3739,0.0,0.0,0.0,0.0,0.0,0.0,0.0,0.0,0.0,0.0,0.0,0.0,0.0,0.0,-2.6,-2.6351,-2.6505,0.0,0.0,0.0,0.0,0.0,0.0,-2.7121,-2.7082,0.0,0.0,0.0,0.0,0.0,0.0,0.0,0.0,0.0,0.0,0.0,0.0,0.0,0.0,0.0,-2.797,-3.0675,0.0,0.0,-4.2176,-4.5333,-4.8269,-5.0362,-5.1206,-4.8893,-4.4929,-4.023,-3.4981,0.0,-2.7137,-2.4704,-2.419,-2.43,-2.464,-2.442,-2.5144,0.0,0.0,0.0,-3.6582,-3.9129,-4.2286,-4.7498,-4.9769,-5.1525,-5.3062,-5.3404,-5.3464,-5.3246,-5.3203,-5.3203,-5.3203,-5.3203,-5.3004,-5.2491,-5.2491,-5.2234,-5.1756,-5.1756,-5.161,-5.1279,-5.0729,-5.0198,-4.9574,-4.904,-4.8636,-4.8306,-4.8306,-4.7846,-4.7076,-4.6746,-4.6361,-4.5883,-4.5553,-4.592,-4.6599,-4.6599,-4.6948,-4.7352,0.0,0.0,0.0,0.0,0.0,0.0,0.0,-3.5007,-3.7469,-4.5547,0.0,0.0,0.0,0.0,0.0,0.0,0.0,0.0,0.0,0.0,0.0,0.0,0.0,0.0,0.0,0.0,-2.5423,-2.5692,-2.6544,-2.6967,0.0,0.0,-2.7428,-2.6582,0.0,0.0,0.0,0.0,0.0,0.0,0.0,0.0,0.0,0.0,0.0,0.0,0.0,0.0,0.0,0.0,0.0,0.0,0.0,0.0,0.0,0.0,-3.8138,-4.1882,-4.4874,-4.7626,-4.926,-4.7352,-4.3424,-3.8836,0.0,0.0,-2.6549,-2.4593,-2.419,-2.419,-2.419,-2.419,-2.463,0.0,0.0,-2.8668,-3.361,-3.6156,-3.9439,-4.4691,-4.7342,-4.9559,-5.1743,-5.3069,-5.3794,-5.3773,-5.3419,-5.3203,-5.3203,-5.2968,-5.2601,-5.2013,-5.1977,-5.161,-5.0802,-5.0802,-5.0692,-5.0435,-4.9811,-4.9407,-4.9187,-4.86,-4.8306,-4.8306,-4.8306,-4.7976,-4.7443,-4.7186,-4.6892,-4.6581,-4.6361,-4.6764,-4.7443,-4.7443,-4.781,-4.8306,0.0,0.0,0.0,0.0,0.0,0.0,0.0,0.0,0.0,0.0,0.0,0.0,0.0,0.0,0.0,0.0,0.0,0.0,0.0,0.0,0.0,0.0,0.0,0.0,0.0,0.0,0.0,-2.6582,-2.7467,-2.7895,-2.7895,-2.7895,-2.7428,-2.6544,0.0,0.0,0.0,0.0,0.0,0.0,0.0,0.0,0.0,0.0,0.0,0.0,0.0,0.0,0.0,0.0,0.0,0.0,0.0,0.0,0.0,0.0,-3.4284,-3.9276,-4.1699,-4.4691,-4.6562,-4.4158,-4.054,-3.6464,0.0,-2.8312,-2.5191,-2.4373,-2.419,-2.419,-2.419,-2.419,-2.4456,-2.5264,0.0,0.0,-3.2179,-3.5422,-3.841,-4.0875,-4.359,-4.6238,-4.8779,-5.1913,-5.4168,-5.5025,-5.3924,-5.3203,-5.3203,-5.2454,-5.2013,-5.1977,-5.1977,-5.161,-5.0802,-5.0802,-5.0398,-4.961,-4.961,-4.915,-4.8306,-4.8306,-4.8306,-4.8306,-4.8306,-4.8306,-4.8233,-4.7443,-4.7553,-4.8196,-4.7406,-4.759,-4.8306,-4.8306,-4.8306,-4.8306,0.0,0.0,0.0,0.0,0.0,0.0,0.0,0.0,0.0,0.0,0.0,0.0,0.0,0.0,0.0,0.0,0.0,0.0,0.0,0.0,0.0,0.0,0.0,0.0,0.0,0.0,0.0,-2.8319,-3.0314,-3.1044,-3.0467,-2.989,-2.8852,-2.7428,-2.5962,-2.5308,0.0,0.0,0.0,0.0,0.0,0.0,0.0,0.0,0.0,0.0,0.0,0.0,0.0,0.0,0.0,0.0,0.0,0.0,0.0,-2.4153,-2.8081,-3.2729,-3.5679,-3.7646,-3.8784,-3.8615,-3.595,-3.2719,-3.032,-2.7493,-2.5154,-2.4373,-2.419,-2.419,-2.419,-2.419,-2.4892,-2.6962,-2.7579,0.0,0.0,0.0,0.0,-4.2634,-4.815,-5.197,-5.3063,-5.3827,-5.4265,-5.4205,-5.3831,-5.3504,-5.3188,-5.2454,-5.1756,-5.1206,-5.0675,-4.9958,-4.9114,-4.9077,-4.8967,-4.871,-4.871,-4.8893,-4.9206,-4.9206,-4.9481,-4.9994,-4.9407,-4.9206,-4.9114,-4.8269,-4.8086,-4.8269,-4.7993,-4.8067,-4.8306,-4.8306,-4.8306,-4.8306,0.0,0.0,0.0,0.0,0.0,0.0,0.0,0.0,0.0,0.0,0.0,0.0,0.0,0.0,0.0,0.0,0.0,0.0,0.0,0.0,0.0,0.0,0.0,0.0,0.0,0.0,-2.8429,-3.055,-3.2429,-3.3468,-3.3583,-3.3038,-3.1385,-2.8775,-2.7351,-2.6192,0.0,0.0,0.0,0.0,0.0,0.0,-2.5187,0.0,0.0,0.0,0.0,0.0,0.0,0.0,0.0,0.0,0.0,0.0,0.0,0.0,-2.3446,-2.6638,0.0,-3.2559,-3.377,-3.4321,-3.2449,-3.0063,-2.8473,0.0,-2.4824,-2.43,-2.419,-2.419,-2.419,-2.419,-2.4773,-2.6534,-2.7165,-2.847,-3.1373,-3.4311,-3.8238,-4.3791,-4.9329,-5.3115,-5.4256,-5.4604,-5.4661,-5.453,-5.4092,-5.3643,-5.3209,-5.216,-5.1316,-5.0839,-5.0014,-4.9187,-4.8306,-4.8306,-4.8306,-4.8306,-4.8306,-4.86,-4.9114,-4.9114,-4.937,-4.9848,-4.9334,-4.9114,0.0,-4.8526,-4.8306,-4.8306,-4.8306,-4.8306,-4.8306,-4.8306,-4.8306,-4.8306,0.0,0.0,0.0,0.0,0.0,0.0,0.0,0.0,0.0,0.0,0.0,0.0,0.0,0.0,0.0,0.0,0.0,0.0,0.0,0.0,0.0,0.0,0.0,0.0,0.0,-2.7198,-2.889,-3.3006,-3.4052,-3.5353,-3.6885,-3.6808,-3.4538,-3.0462,-2.9506,-2.7698,-2.5308,-2.5308,-2.5308,-2.5303,-2.5298,-2.5182,0.0,0.0,0.0,0.0,0.0,0.0,0.0,0.0,0.0,0.0,0.0,0.0,0.0,0.0,0.0,0.0,0.0,-2.8925,-3.0662,-3.0699,-2.9586,-2.8106,-2.6675,0.0,0.0,0.0,0.0,-2.4153,-2.4337,-2.4282,-2.4377,-2.4886,-2.6235,-2.7857,-2.9799,-3.3894,-3.8795,-4.4592,-4.8099,-5.0888,-5.3007,-5.4367,-5.5251,-5.5605,-5.453,-5.3644,-5.3136,-5.1646,-5.0765,-5.0729,-4.9941,-4.9114,-4.8306,-4.8306,-4.8306,-4.8306,-4.8306,-4.8343,-4.8379,-4.8379,-4.8416,-4.8489,-4.8416,-4.8379,-4.8379,-4.8343,-4.8306,-4.8306,-4.8306,-4.8306,-4.8306,-4.8306,-4.8306,-4.8306,0.0,0.0,0.0,0.0,0.0,0.0,0.0,0.0,0.0,0.0,0.0,0.0,0.0,0.0,0.0,0.0,0.0,0.0,0.0,0.0,0.0,0.0,0.0,0.0,0.0,-2.8615,-3.0968,-3.3898,-3.6706,-3.8284,-3.8661,-3.8007,-3.543,0.0,-2.9781,-2.7698,-2.5308,-2.5308,-2.5308,-2.5298,-2.5122,-2.5059,0.0,0.0,0.0,0.0,-2.4312,-2.4247,0.0,0.0,0.0,0.0,0.0,0.0,0.0,0.0,-1.9565,-1.9968,-2.1722,0.0,-2.3226,-2.3906,-2.3759,-2.3566,0.0,0.0,0.0,0.0,0.0,0.0,0.0,0.0,-2.5537,-2.8938,-2.9793,-3.0938,-3.346,-3.9709,-4.4745,-4.6789,-5.1304,-5.4007,-5.3269,-5.4639,-5.5326,-5.4812,-5.45,-5.3716,-5.2369,-5.1353,-5.0508,-4.9904,-4.904,-4.8526,-4.8306,-4.8306,-4.8306,-4.8306,-4.8306,-4.8636,-4.9224,-4.926,-4.9627,-5.0178,-4.9554,-4.9297,-4.9243,-4.8563,-4.8306,-4.8306,-4.8306,-4.8306,-4.8306,-4.8306,-4.8306,-4.8306,0.0,0.0,0.0,0.0,0.0,0.0,0.0,0.0,0.0,0.0,0.0,0.0,0.0,0.0,0.0,0.0,0.0,0.0,0.0,0.0,0.0,0.0,0.0,0.0,0.0,0.0,-3.1621,-3.5353,-3.7584,-3.9508,-4.1008,0.0,0.0,0.0,-2.9583,-2.6967,-2.5303,-2.5203,-2.5143,-2.5165,-2.4981,0.0,0.0,0.0,0.0,0.0,-2.3686,-2.3419,0.0,-2.3456,-2.3602,-2.3419,0.0,0.0,0.0,0.0,-1.9315,-1.9389,-1.9822,-2.0768,-2.1832,-2.2685,-2.3171,-2.3575,-2.4006,0.0,0.0,0.0,0.0,0.0,0.0,0.0,0.0,-2.9913,-3.091,-3.2817,-3.7521,-4.2565,-4.6604,-4.876,-5.2115,-5.4281,-5.4346,-5.5164,-5.5375,-5.4547,-5.4145,-5.3351,-5.2075,-5.0875,-5.0031,-4.961,-4.8746,-4.8306,-4.8306,-4.8306,-4.8306,-4.8306,-4.8306,-4.8526,-4.8967,-4.9003,-4.9224,-4.9627,-4.9187,-4.9003,-4.8967,-4.8489,-4.8306,-4.8306,-4.8306,-4.8306,-4.8306,-4.8306,-4.8306,-4.8306,0.0,0.0,0.0,0.0,0.0,0.0,0.0,0.0,0.0,0.0,0.0,0.0,0.0,0.0,0.0,0.0,0.0,0.0,0.0,0.0,0.0,0.0,0.0,0.0,0.0,0.0,0.0,0.0,0.0,0.0,0.0,0.0,-3.9646,0.0,-2.9344,-2.6294,-2.5203,-2.5071,-2.4973,-2.4974,-2.4795,0.0,0.0,0.0,0.0,0.0,0.0,0.0,0.0,-2.3235,-2.3272,-2.2786,-2.2529,0.0,0.0,0.0,0.0,0.0,-1.9462,-2.129,-2.3263,-2.3566,-2.4236,-2.486,-2.5007,0.0,0.0,0.0,0.0,0.0,0.0,-2.5663,0.0,-3.0273,-3.2079,-3.5293,-4.183,-4.4556,-4.7029,-5.0144,-5.2016,-5.3566,-5.4836,-5.528,-5.5145,-5.417,-5.3443,-5.2527,-5.1487,-5.0141,-4.928,-4.906,-4.8453,-4.8122,-4.8122,-4.8233,-4.8306,-4.8306,-4.8306,-4.8306,-4.8306,-4.8306,-4.8306,-4.8306,-4.8306,-4.8306,-4.8306,-4.8306,-4.8306,-4.8306,-4.8306,-4.8306,-4.8306,-4.8306,-4.8306,-4.8306,0.0,0.0,0.0,0.0,0.0,0.0,0.0,0.0,0.0,0.0,0.0,0.0,0.0,0.0,0.0,0.0,0.0,0.0,0.0,0.0,0.0,0.0,0.0,0.0,0.0,0.0,0.0,0.0,0.0,0.0,-4.0939,-4.297,-4.0021,-3.2897,-2.9777,-2.7051,-2.4895,-2.4974,-2.4943,-2.4825,-2.4623,0.0,0.0,0.0,0.0,0.0,0.0,0.0,0.0,-2.1245,-2.1473,-2.1739,-2.0307,0.0,0.0,0.0,0.0,0.0,-2.0144,-2.2134,-2.3529,-2.1575,-2.173,-2.2547,0.0,0.0,0.0,0.0,0.0,0.0,0.0,-2.8414,-3.0162,-3.3764,-3.7638,-4.183,-4.6462,-4.8702,-4.9769,-4.9625,-5.2931,-5.4237,-5.1702,-5.3433,-5.4034,-5.2522,-5.2273,-5.1232,-4.8988,-4.8636,-4.7865,-4.6507,-4.7021,-4.7259,-4.7259,-4.7957,-4.8306,-4.8306,-4.8306,-4.8306,-4.8306,-4.8306,-4.8306,-4.8306,-4.8306,-4.8306,-4.8306,-4.8306,-4.8306,-4.8306,-4.8306,-4.8306,-4.8306,-4.8306,-4.8306,-4.8306,0.0,0.0,0.0,0.0,0.0,0.0,0.0,0.0,0.0,0.0,0.0,0.0,0.0,0.0,0.0,0.0,0.0,0.0,0.0,0.0,0.0,0.0,0.0,0.0,0.0,0.0,0.0,0.0,0.0,-4.2777,-4.3209,-4.1494,-3.7806,-3.2477,-2.9285,-2.6737,-2.4797,-2.4745,-2.4685,-2.4578,0.0,0.0,0.0,0.0,0.0,0.0,0.0,0.0,0.0,0.0,-2.0768,-2.096,-2.0189,0.0,0.0,0.0,0.0,0.0,-1.9748,-2.1363,-2.2721,-2.2015,-2.3116,0.0,0.0,0.0,0.0,0.0,0.0,0.0,0.0,0.0,-3.3072,-3.855,-4.268,-4.6201,-4.9086,-5.0202,-5.0904,-5.1395,-5.2741,-5.3395,-5.2818,-5.3395,-5.3115,-5.1464,-5.0929,-4.9824,-4.7756,-4.7241,-4.6654,-4.592,-4.625,-4.6471,-4.6471,-4.6838,-4.7241,-4.7626,-4.7205,-4.7241,-4.7626,-4.7626,-4.7902,-4.8306,-4.8306,-4.8306,-4.8306,-4.8306,-4.8306,-4.8306,-4.8306,-4.8306,-4.8306,-4.8306,-4.8306,-4.8306,0.0,0.0,0.0,0.0,0.0,0.0,0.0,0.0,0.0,0.0,0.0,0.0,0.0,0.0,0.0,0.0,0.0,0.0,0.0,0.0,0.0,0.0,0.0,0.0,0.0,0.0,-3.793,-4.1131,-4.2854,-4.4239,-4.5163,-3.9945,-3.5734,0.0,-2.8961,-2.6408,-2.4723,-2.4559,-2.4485,-2.4422,0.0,0.0,0.0,0.0,0.0,0.0,0.0,0.0,0.0,0.0,0.0,0.0,0.0,0.0,0.0,-1.9499,-1.9315,-1.9352,-1.9536,-2.0674,-2.1886,-2.2309,0.0,0.0,0.0,0.0,0.0,0.0,0.0,0.0,0.0,-3.2871,-3.6466,-4.2684,-4.6355,-4.9086,-5.101,-5.1279,-5.1741,-5.3049,-5.2615,-5.251,-5.3241,-5.2805,-5.1779,-5.0141,-4.9329,-4.8203,-4.6726,-4.6011,-4.5516,-4.5333,-4.5516,-4.5626,-4.5626,-4.5626,-4.614,-4.7076,-4.6471,-4.6617,-4.7369,-4.7369,-4.77,-4.8306,-4.8306,-4.8306,-4.8306,-4.8306,-4.8306,-4.8306,-4.8306,-4.8306,-4.8306,-4.8306,-4.8306,-4.8306,0.0,0.0,0.0,0.0,0.0,0.0,0.0,0.0,0.0,0.0,0.0,0.0,0.0,0.0,0.0,0.0,0.0,0.0,0.0,0.0,0.0,0.0,0.0,0.0,0.0,-3.8507,-4.0315,-4.2893,-4.4594,-4.5056,-4.4269,-3.9481,-3.5514,-3.2281,-2.9355,-2.6721,-2.451,-2.453,-2.4485,-2.4422,-2.3409,0.0,0.0,0.0,0.0,0.0,0.0,0.0,0.0,0.0,0.0,0.0,0.0,0.0,-1.9389,-1.9315,-1.9315,-1.9462,-2.0217,-2.1106,-2.1629,-2.0878,0.0,0.0,0.0,0.0,0.0,-3.2706,0.0,0.0,0.0,-3.7427,-4.1154,-4.4825,-4.7625,-5.0164,-5.2664,-5.301,-5.3049,-5.3203,-5.3126,-5.2241,-4.9971,-5.0101,-4.9613,-4.7879,-4.7127,-4.6318,-4.5403,-4.5009,-4.4452,-4.3698,-4.4415,-4.4764,-4.4764,-4.4764,-4.5572,-4.7113,-4.7039,-4.7443,-4.8233,-4.8233,-4.8269,-4.8306,-4.8306,-4.8306,-4.8306,-4.8306,-4.8306,-4.8306,-4.8306,-4.8306,-4.8306,-4.8306,-4.8306,-4.8306,0.0,0.0,0.0,0.0,0.0,0.0,0.0,0.0,0.0,0.0,0.0,0.0,0.0,0.0,0.0,0.0,0.0,0.0,0.0,0.0,0.0,0.0,0.0,-3.4584,-3.7161,-4.0123,-4.2662,-4.4662,-4.5287,-4.4902,-4.3462,-3.8671,0.0,0.0,-2.9255,-2.7126,-2.5761,-2.5254,-2.5364,-2.5603,-2.3198,-2.2244,0.0,0.0,0.0,0.0,0.0,0.0,0.0,0.0,-1.9315,-1.9315,0.0,0.0,0.0,0.0,-1.9315,-1.9389,-1.9675,-2.1473,-2.3199,-2.2868,0.0,0.0,0.0,0.0,0.0,-3.394,-3.485,0.0,0.0,-4.0454,-4.2966,-4.6568,-4.8856,-5.0894,-5.2933,-5.3203,-5.3203,-5.3203,-5.2731,-5.1818,-5.0356,-4.9707,-4.8647,-4.687,-4.6111,-4.537,-4.4504,-4.414,-4.3791,-4.3515,-4.3791,-4.3938,-4.3938,-4.3938,-4.4525,-4.5608,-4.5608,-4.603,-4.6838,-4.7333,-4.781,-4.8306,-4.8306,-4.8306,-4.8306,-4.8306,-4.8306,-4.8269,-4.7736,-4.7846,-4.8233,-4.7736,-4.7846,-4.8306,0.0,0.0,0.0,0.0,0.0,0.0,0.0,0.0,0.0,0.0,0.0,0.0,0.0,0.0,0.0,0.0,0.0,0.0,0.0,0.0,0.0,0.0,0.0,-3.343,-3.6269,-4.0008,-4.2701,-4.4393,-4.4563,-4.3797,-4.2061,0.0,0.0,0.0,0.0,-2.8272,-2.7748,-2.636,-2.615,-2.6432,-2.3125,-2.1812,0.0,0.0,0.0,0.0,0.0,0.0,0.0,0.0,-1.9315,-1.9315,0.0,0.0,0.0,0.0,-1.9315,-1.9315,-1.9315,-2.1335,-2.3428,0.0,0.0,0.0,0.0,0.0,0.0,0.0,-3.8196,-3.9225,-4.1162,0.0,-4.3636,-4.678,-4.8971,-5.0779,-5.2202,-5.2395,-5.2318,-5.2049,-5.1241,-5.0394,-4.9586,-4.8548,-4.736,-4.6031,-4.5172,-4.4522,-4.402,-4.3677,-4.3515,-4.3515,-4.3515,-4.3515,-4.3515,-4.3515,-4.3791,-4.4305,-4.4599,-4.5241,-4.6324,-4.6856,-4.7553,-4.8306,-4.8306,-4.8306,-4.8269,-4.8049,-4.7939,-4.7846,-4.7333,-4.7443,-4.7902,-4.759,-4.7663,-4.7957,0.0,0.0,0.0,0.0,0.0,0.0,0.0,0.0,0.0,0.0,0.0,0.0,0.0,0.0,0.0,0.0,0.0,0.0,0.0,0.0,0.0,0.0,0.0,-3.1962,-3.5385,-3.793,-4.0085,-4.1769,-4.2326,-4.1713,-3.9996,-3.6915,0.0,0.0,0.0,0.0,-3.0304,-2.7711,-2.672,-2.6581,-2.3197,-2.1812,-2.1629,0.0,0.0,0.0,0.0,0.0,0.0,0.0,-1.9315,-1.9315,0.0,0.0,0.0,0.0,-1.9315,-1.9315,-1.9315,-2.0564,-2.1849,0.0,0.0,0.0,0.0,0.0,0.0,-4.234,-4.3114,-4.2626,-4.2096,-4.2356,-4.3282,-4.5281,-4.774,-4.9663,-5.0548,-5.0664,-5.0356,-4.9471,-4.8615,-4.7769,-4.6962,-4.6244,-4.5609,-4.5132,-4.4125,-4.3664,-4.3967,-4.3677,-4.3515,-4.3515,-4.3515,-4.3515,-4.3515,-4.3515,-4.3515,-4.3515,-4.4305,-4.5535,-4.7076,-4.7076,-4.7516,-4.8306,-4.8306,-4.8306,-4.8233,-4.7443,-4.7113,-4.7113,-4.7113,-4.7113,-4.7186,-4.7993,-4.7773,-4.7186,0.0,0.0,0.0,0.0,0.0,0.0,0.0,0.0,0.0,0.0,0.0,0.0,0.0,0.0,0.0,0.0,0.0,0.0,0.0,0.0,0.0,0.0,0.0,0.0,0.0,0.0,-3.6815,-4.0893,-4.0286,-3.9108,0.0,0.0,0.0,-3.2563,0.0,0.0,-2.8522,-2.7158,-2.6618,-2.6458,-2.3741,-2.2318,-2.1666,0.0,0.0,0.0,0.0,0.0,0.0,0.0,0.0,0.0,0.0,0.0,0.0,-1.9462,-2.0123,-2.1041,-2.1041,-2.2657,0.0,-2.6429,0.0,0.0,0.0,0.0,0.0,0.0,-4.3436,-4.382,-4.2775,-4.3596,-4.461,-4.5169,-4.6838,-4.8176,-4.8477,-4.8515,-4.8334,-4.7845,-4.7554,-4.7048,-4.62,-4.5725,-4.5261,-4.4777,-4.3958,-4.3664,-4.3967,-4.3677,-4.3515,-4.3515,-4.3515,-4.3515,-4.3515,-4.3515,-4.3515,-4.3515,-4.3718,-4.4415,-4.5461,-4.6562,-4.7223,-4.748,-4.803,-4.8306,-4.8269,-4.8049,-4.759,-4.7113,-4.7113,-4.7113,-4.7113,-4.7369,-4.6929,-4.6361,0.0,0.0,0.0,0.0,0.0,0.0,0.0,0.0,0.0,0.0,-2.3355,-2.4091,0.0,0.0,0.0,0.0,0.0,0.0,0.0,0.0,0.0,0.0,0.0,0.0,0.0,-3.2545,-3.4563,0.0,0.0,0.0,0.0,0.0,0.0,-3.3153,0.0,-3.2155,-3.0063,-2.829,-2.7372,-2.6869,-2.4447,-2.2978,-2.2171,0.0,0.0,0.0,0.0,0.0,0.0,0.0,0.0,0.0,0.0,0.0,0.0,-1.9536,-2.0233,-2.1363,-2.1702,-2.3795,0.0,-2.8877,-3.1788,-3.4908,-3.8175,0.0,0.0,0.0,-4.3534,-4.4132,-4.3801,-4.402,-4.4504,-4.5229,-4.6187,-4.6833,-4.6858,-4.6858,-4.6682,-4.6174,-4.611,-4.5908,-4.5366,-4.4711,-4.4318,-4.4369,-4.3542,-4.3249,-4.377,-4.3614,-4.3515,-4.3515,-4.3515,-4.3515,-4.3515,-4.3515,-4.3515,-4.3515,-4.3515,-4.3754,-4.4268,-4.5572,-4.6305,-4.6636,-4.7131,-4.7168,-4.6874,-4.6874,-4.6562,-4.6159,-4.6159,-4.6159,-4.6195,-4.6489,-4.6104,-4.5553,0.0,0.0,-2.4482,-2.3504,0.0,0.0,0.0,0.0,0.0,0.0,-2.2816,-2.3898,0.0,0.0,0.0,0.0,0.0,0.0,0.0,0.0,0.0,0.0,0.0,0.0,0.0,0.0,0.0,0.0,0.0,0.0,0.0,0.0,-3.4747,-3.4931,0.0,-3.4908,-3.3146,-2.9941,-2.8143,-2.7284,-2.4924,-2.3529,-2.2786,-2.1996,0.0,0.0,0.0,0.0,0.0,0.0,0.0,0.0,0.0,0.0,0.0,-1.9601,-1.9968,-2.0804,-2.1776,0.0,0.0,-2.9953,-3.377,0.0,-4.0618,-4.2433,-4.3478,-4.3404,0.0,-4.4002,-4.4862,-4.3989,-4.3654,-4.5372,-4.569,-4.5741,-4.5666,-4.5628,-4.5351,-4.4595,-4.4444,-4.4406,-4.4406,-4.3315,-4.2962,-4.3676,-4.2775,-4.2543,-4.3368,-4.3404,-4.3441,-4.3515,-4.3515,-4.3515,-4.3515,-4.3515,-4.3515,-4.3515,-4.3515,-4.3515,-4.3551,-4.4342,-4.5149,-4.5883,-4.5883,-4.5443,-4.4709,-4.4764,-4.4782,-4.4709,-4.4764,-4.4764,-4.4819,-4.559,-4.5333,-4.4745,0.0,0.0,-2.4518,-2.3625,0.0,0.0,0.0,0.0,0.0,0.0,0.0,0.0,0.0,-2.3855,0.0,0.0,0.0,0.0,0.0,0.0,0.0,0.0,0.0,0.0,0.0,0.0,0.0,0.0,0.0,0.0,0.0,0.0,0.0,-3.4027,0.0,-3.1531,-2.9831,-2.6612,-2.5144,-2.4814,-2.3024,-2.2216,-2.1959,-2.1106,-2.0152,0.0,0.0,0.0,0.0,0.0,0.0,0.0,-2.0107,-2.0364,-2.0474,-2.0291,-2.0849,-2.1849,0.0,-2.5107,0.0,0.0,-3.7499,-4.1368,-4.269,-4.324,-4.3331,-4.269,-4.4085,-4.5075,-4.4039,-4.4608,-4.504,-4.4468,-4.4901,-4.5088,-4.4468,-4.4393,-4.4236,-4.3795,-4.3171,-4.2802,-4.2802,-4.1968,-4.1535,-4.1719,-4.1491,-4.1699,-4.2506,-4.2543,-4.2837,-4.3478,-4.3515,-4.3515,-4.3515,-4.3515,-4.3515,-4.3515,-4.3515,-4.3515,-4.3551,-4.4342,-4.5149,-4.5883,-4.5883,-4.5443,-4.4728,-4.5369,-4.5259,-4.4764,-4.5406,-4.5259,-4.4819,-4.559,-4.5002,-4.3938,0.0,0.0,0.0,0.0,0.0,0.0,0.0,0.0,0.0,0.0,0.0,0.0,0.0,-2.4163,0.0,0.0,-2.4966,0.0,0.0,0.0,-2.5505,-2.7198,0.0,0.0,0.0,0.0,0.0,0.0,0.0,0.0,0.0,0.0,0.0,-3.2596,0.0,-3.0503,-2.884,-2.6392,-2.5144,-2.4677,-2.3428,-2.2951,-2.2877,-2.2015,-2.0951,-1.9858,-1.9858,0.0,0.0,0.0,0.0,0.0,0.0,0.0,-2.1033,-2.0621,-2.1391,-2.2721,0.0,0.0,0.0,-3.4688,0.0,-4.2506,-4.3331,-4.3515,-4.3404,-4.2947,-4.3864,-4.4488,-4.3662,-4.4195,-4.4539,-4.389,-4.4108,-4.4256,-4.3812,-4.3442,-4.3139,-4.2944,-4.2213,-4.1735,-4.1735,-4.1001,-4.0708,-4.1058,-4.0744,-4.0891,-4.1699,-4.1735,-4.1919,-4.2323,-4.2727,-4.291,-4.291,-4.3314,-4.3515,-4.3515,-4.3515,-4.3515,-4.3497,-4.3938,-4.4342,-4.4745,-4.4745,-4.4488,-4.4158,-4.4562,-4.4488,-4.4158,-4.4599,-4.4488,-4.4195,-4.4599,-4.4195,-4.3625,0.0,0.0,0.0,0.0,0.0,0.0,0.0,0.0,0.0,0.0,0.0,0.0,0.0,0.0,-2.5077,0.0,0.0,0.0,0.0,-2.474,-2.5202,-2.6774,0.0,0.0,0.0,0.0,0.0,0.0,0.0,0.0,0.0,0.0,0.0,-3.1568,0.0,0.0,-2.8877,-2.6675,-2.5548,-2.5081,-2.4006,-2.3712,-2.3896,-2.3088,-2.1942,-2.0731,-2.0731,-2.0731,-2.0621,-1.9976,0.0,0.0,0.0,0.0,-2.1298,-2.0841,-2.1612,-2.2933,0.0,0.0,0.0,-3.6024,-3.9717,0.0,-4.291,-4.3167,-4.3277,-4.3277,-4.3387,-4.3515,-4.3515,-4.3515,-4.3441,-4.3331,-4.3277,-4.3258,-4.3094,-4.2506,-4.2103,-4.2103,-4.1368,-4.0875,-4.0875,-4.0157,-3.9974,-4.0618,-4.0084,-4.0047,-4.0838,-4.0875,-4.0948,-4.1095,-4.1772,-4.2103,-4.2103,-4.2763,-4.3167,-4.3277,-4.3441,-4.3515,-4.3515,-4.3515,-4.3515,-4.3515,-4.3515,-4.3515,-4.3515,-4.3515,-4.3515,-4.3515,-4.3515,-4.3515,-4.3515,-4.3515,-4.3515,-4.3515,0.0,0.0,0.0,0.0,0.0,0.0,0.0,0.0,0.0,0.0,-2.3009,-2.3394,0.0,0.0,0.0,-2.424,-2.4168,0.0,-2.424,0.0,0.0,0.0,0.0,0.0,0.0,0.0,0.0,0.0,0.0,0.0,0.0,0.0,0.0,-3.2326,0.0,0.0,0.0,-2.43,-2.3171,-2.4153,-2.1905,-2.1868,-2.3079,-2.229,-2.1812,-2.1629,-2.1629,-2.1629,-2.1592,-2.1482,-2.1106,0.0,0.0,0.0,-1.9903,-2.1225,-2.1253,-2.1355,0.0,0.0,0.0,0.0,-3.8888,-4.0414,0.0,0.0,-4.247,-4.247,-4.302,-4.3515,-4.3515,-4.3515,-4.3294,-4.258,-4.247,-4.2213,-4.1499,-4.1315,-4.1242,-4.1242,-4.0561,-4.0047,-4.0047,-3.935,-3.8909,-3.9019,-3.8909,-3.9203,-4.001,-4.0047,-4.0377,-4.1058,-4.1205,-4.1242,-4.1242,-4.1352,-4.1772,-4.247,-4.3167,-4.3515,-4.3515,-4.3515,-4.3515,-4.3515,-4.3515,-4.3515,-4.3515,-4.3515,-4.3515,-4.3515,-4.3515,-4.3515,-4.3515,-4.3515,-4.3515,-4.3625,0.0,0.0,0.0,0.0,0.0,0.0,0.0,0.0,0.0,0.0,0.0,-2.4351,0.0,0.0,0.0,0.0,0.0,0.0,-2.2624,-2.424,0.0,0.0,0.0,0.0,0.0,0.0,0.0,0.0,0.0,0.0,0.0,-2.742,-2.8815,0.0,0.0,0.0,0.0,0.0,-2.3125,-2.4043,-2.2024,-2.1951,0.0,0.0,-2.2171,-2.1849,-2.2318,-2.2464,-2.2391,-2.1959,-2.184,-2.1905,-2.1812,0.0,0.0,0.0,-2.2538,0.0,-2.4456,0.0,0.0,0.0,-3.6024,-3.8212,-3.946,-4.0377,-4.1075,-4.1552,-4.1552,-4.1752,-4.2653,-4.247,-4.2029,-4.1682,-4.1609,-4.1515,-4.1132,-4.0708,-4.0414,-4.0414,-3.9717,-3.9239,-3.9239,-3.8909,-3.8689,-3.8689,-3.8689,-3.8836,-3.9203,-3.9239,-3.9386,-3.9738,-4.0194,-4.0414,-4.0414,-4.0875,-4.1515,-4.2286,-4.2653,-4.3057,-4.3515,-4.3515,-4.3515,-4.3515,-4.3515,-4.3515,-4.3515,-4.3515,-4.3515,-4.3515,-4.3515,-4.3515,-4.3515,-4.3515,-4.3515,-4.3551,0.0,0.0,0.0,0.0,0.0,0.0,0.0,0.0,0.0,0.0,0.0,0.0,0.0,0.0,0.0,0.0,0.0,0.0,-2.1504,0.0,0.0,0.0,0.0,0.0,0.0,0.0,0.0,0.0,0.0,0.0,-2.6319,-2.7126,-2.7824,0.0,-2.7556,0.0,0.0,0.0,0.0,0.0,-2.2547,-2.2281,0.0,0.0,0.0,0.0,-2.2786,-2.3116,-2.3189,-2.262,-2.2685,-2.2859,-2.2069,-2.2208,0.0,0.0,0.0,0.0,0.0,0.0,0.0,-3.0393,-3.2926,-3.5459,0.0,0.0,-3.9276,-4.0288,-3.9863,-3.9732,-4.1148,-4.1075,-4.0818,-4.0818,-4.0818,-4.0728,-4.0508,-3.979,-3.9365,-3.957,-3.8689,-3.8248,-3.8652,-3.8505,-3.8469,-3.8689,-3.8689,-3.8689,-3.8689,-3.8689,-3.8689,-3.8689,-3.9276,-3.9606,-3.9606,-4.0377,-4.1111,-4.1699,-4.2103,-4.2616,-4.3204,-4.3404,-4.3515,-4.3515,-4.3515,-4.3515,-4.3515,-4.3515,-4.3515,-4.3515,-4.3515,-4.3515,-4.3515,-4.3515,-4.3515,-4.3515,0.0,0.0,0.0,0.0,0.0,0.0,0.0,0.0,0.0,0.0,0.0,0.0,0.0,0.0,0.0,-2.4154,0.0,0.0,0.0,0.0,0.0,0.0,0.0,0.0,0.0,0.0,0.0,0.0,0.0,0.0,-2.5485,-2.6282,-2.6675,-2.6785,-2.8216,-2.8033,-2.6492,0.0,0.0,0.0,-2.273,-2.2281,-2.2933,0.0,0.0,0.0,-2.2969,-2.3492,-2.4116,-2.408,-2.3602,-2.2859,-2.2069,-2.1812,-2.1849,0.0,0.0,0.0,0.0,-2.6062,0.0,-2.873,0.0,0.0,0.0,0.0,-3.6927,-3.8505,-3.8175,-3.7896,-3.8726,-3.946,-3.9974,-3.9974,-3.9974,-3.968,-3.8946,-3.8138,-3.7896,-3.8689,-3.7367,-3.7,-3.8542,-3.8006,-3.7896,-3.8652,-3.8689,-3.8689,-3.8689,-3.8689,-3.8689,-3.8689,-3.8726,-3.8762,-3.8762,-3.957,-3.9974,-4.0047,-4.1552,-4.2323,-4.2396,-4.313,-4.3515,-4.3515,-4.3515,-4.3515,-4.3515,-4.3515,-4.3515,-4.3515,-4.3515,-4.3515,-4.3515,-4.3515,-4.3515,-4.3515,0.0,0.0,0.0,0.0,0.0,0.0,0.0,0.0,0.0,0.0,0.0,0.0,0.0,-2.4773,-2.4346,-2.4125,-2.3317,0.0,0.0,0.0,0.0,0.0,0.0,0.0,0.0,0.0,0.0,0.0,0.0,-2.5023,-2.5411,-2.6209,-2.6062,-2.5071,-2.5658,-2.5878,-2.5668,-2.2978,0.0,-2.3749,-2.2363,-2.1959,-2.2318,0.0,-2.3529,-2.3896,-2.4951,-2.5841,-2.6502,-2.6502,-2.5988,-2.5181,-2.4346,-2.3759,-2.3355,-2.3355,0.0,0.0,0.0,0.0,0.0,-2.6429,-2.7897,-2.9365,-3.0454,-3.1971,-3.3623,-3.5238,-3.5312,-3.5385,-3.6178,-3.7037,-3.7588,-3.7588,-3.7588,-3.7477,-3.7184,-3.689,-3.6817,-3.711,-3.6633,-3.6707,-3.7823,-3.7676,-3.7823,-3.8652,-3.8689,-3.8689,-3.8689,-3.8689,-3.8469,-3.7955,-3.7933,-3.7933,-3.7933,-3.8726,-3.9386,-3.99,-4.1001,-4.1809,-4.2323,-4.313,-4.3515,-4.3515,-4.3515,-4.3515,-4.3515,-4.3515,-4.3515,-4.3515,-4.3515,-4.3515,-4.3515,-4.3515,-4.3515,-4.3515,0.0,0.0,0.0,0.0,0.0,-2.5099,0.0,0.0,0.0,0.0,0.0,0.0,0.0,0.0,-2.4312,-2.4125,-2.3586,-2.2855,-2.2004,-2.2197,0.0,0.0,0.0,0.0,0.0,0.0,0.0,0.0,0.0,0.0,0.0,-2.5548,-2.5071,-2.3786,-2.3492,-2.3979,0.0,0.0,0.0,-2.3712,-2.2648,-2.2363,-2.273,-2.3786,-2.452,-2.5181,-2.6539,-2.753,-2.8191,-2.8191,-2.7493,-2.6465,-2.5668,-2.4677,-2.3859,0.0,0.0,0.0,-2.3749,0.0,0.0,0.0,0.0,-2.6796,-2.7603,-2.8815,-3.032,-3.2192,-3.2596,-3.2926,-3.4014,-3.4468,-3.4908,-3.5716,-3.5862,-3.5973,-3.6266,-3.6046,-3.5973,-3.6266,-3.5789,-3.5899,-3.6978,-3.6831,-3.7,-3.7845,-3.8138,-3.8285,-3.8285,-3.8285,-3.7918,-3.7125,-3.7345,-3.7492,-3.7492,-3.8285,-3.8982,-3.9496,-4.0581,-4.1389,-4.1919,-4.302,-4.3515,-4.3515,-4.3515,-4.3515,-4.3515,-4.3515,-4.3515,-4.3515,-4.3515,-4.3515,-4.3515,-4.3515,-4.3515,-4.3515,0.0,-2.5062,-2.5219,-2.5047,-2.5176,-2.5303,0.0,0.0,0.0,0.0,0.0,0.0,0.0,0.0,0.0,-2.4308,-2.4245,-2.3817,-2.2932,-2.2043,0.0,0.0,0.0,0.0,0.0,0.0,0.0,0.0,0.0,0.0,0.0,0.0,-2.3749,-2.2933,-2.2143,-2.2657,-2.4116,0.0,-2.4566,-2.5154,-2.3639,-2.3483,-2.419,-2.4263,-2.5291,-2.6796,-2.7603,-2.8411,-2.9097,-2.9097,-2.8033,-2.6539,-2.5668,-2.43,0.0,0.0,0.0,0.0,0.0,0.0,0.0,0.0,0.0,-2.441,-2.5227,-2.5988,-2.7189,-2.9622,-3.0136,-3.0613,-3.2179,-3.1861,-3.2082,-3.4491,-3.4894,-3.5188,-3.6083,-3.5445,-3.5261,-3.6119,-3.4798,-3.4431,-3.6083,-3.5481,-3.5371,-3.6229,-3.7015,-3.7456,-3.7456,-3.7456,-3.7088,-3.6303,-3.7015,-3.7456,-3.7456,-3.8248,-3.8689,-3.8726,-4.0288,-4.1058,-4.1132,-4.269,-4.3441,-4.3478,-4.3478,-4.3478,-4.3515,-4.3515,-4.3515,-4.3515,-4.3515,-4.3515,-4.3515,-4.3515,-4.3515,-4.3515,-2.4607,-2.4782,-2.4935,-2.4888,-2.4981,-2.5088,0.0,0.0,0.0,0.0,0.0,0.0,0.0,0.0,0.0,-2.7741,-2.7164,-2.6197,-2.4692,-2.3851,-2.3151,-2.2604,0.0,0.0,0.0,0.0,0.0,0.0,0.0,0.0,0.0,0.0,0.0,0.0,-2.1886,-2.2033,-2.2437,-2.1804,-2.2024,-2.2841,-2.3566,-2.4006,-2.4373,-2.6135,-2.7457,-2.851,-2.9916,-3.0907,-3.1592,-3.1592,-3.0528,-2.8778,-2.6182,0.0,0.0,0.0,0.0,0.0,-2.3933,0.0,0.0,0.0,0.0,0.0,-2.5227,-2.5117,-2.5548,-2.797,-2.8448,-2.8778,-2.9794,-2.9794,-3.0051,-3.1298,-3.2008,-3.2669,-3.35,-3.3426,-3.3573,-3.4394,-3.4064,-3.4211,-3.5261,-3.5151,-3.5371,-3.6229,-3.6486,-3.6633,-3.6633,-3.6046,-3.5899,-3.6303,-3.5899,-3.6009,-3.6633,-3.7419,-3.8102,-3.8726,-3.9753,-4.023,-4.0267,-4.1295,-4.2103,-4.2616,-4.2616,-4.2947,-4.3515,-4.3515,-4.3515,-4.3515,-4.3515,-4.3515,-4.3515,-4.3515,-4.3515,-4.3515,-2.4816,-2.4948,-2.5133,-2.5482,-2.5906,-2.6315,0.0,0.0,0.0,0.0,0.0,0.0,0.0,0.0,0.0,-2.8621,-2.7852,-2.6928,-2.5923,-2.474,-2.3981,0.0,0.0,0.0,0.0,0.0,0.0,0.0,0.0,0.0,0.0,0.0,0.0,0.0,-2.2281,-2.2106,0.0,0.0,-2.2208,-2.3355,-2.3979,-2.4814,-2.5878,-2.764,-2.8998,-3.021,-3.1825,-3.2706,-3.3096,-3.3096,-3.1825,-2.9622,-2.6403,-2.5081,0.0,0.0,0.0,0.0,0.0,0.0,0.0,0.0,0.0,0.0,-2.3869,-2.3538,-2.3676,-2.5438,-2.5805,-2.6135,-2.731,-2.7236,-2.7273,-2.8081,-2.8606,-2.9671,-3.1788,-3.2118,-3.2265,-3.2742,-3.3109,-3.3463,-3.394,-3.4307,-3.4711,-3.5202,-3.5569,-3.5752,-3.5752,-3.5628,-3.5459,-3.5275,-3.5459,-3.5591,-3.5752,-3.656,-3.7404,-3.8212,-3.9019,-3.957,-3.9937,-4.0728,-4.1535,-4.2286,-4.2286,-4.2763,-4.3515,-4.3515,-4.3515,-4.3515,-4.3515,-4.3515,-4.3515,-4.3515,-4.3515,-4.3515,0.0,-2.5288,-2.5615,-2.6582,-2.739,0.0,0.0,0.0,0.0,0.0,0.0,0.0,0.0,0.0,0.0,0.0,-2.7582,-2.6967,-2.689,-2.5394,0.0,0.0,0.0,0.0,0.0,0.0,0.0,0.0,0.0,0.0,0.0,0.0,0.0,0.0,-2.3006,-2.2611,-2.1996,-2.2795,-2.4043,-2.5485,-2.486,-2.5988,-2.8154,-2.906,-3.0283,-3.1715,-3.3256,-3.3807,-3.377,-3.3587,-3.2118,-2.9806,-2.677,-2.5742,-2.5521,-2.4704,-2.441,0.0,0.0,0.0,0.0,0.0,-2.3263,0.0,-2.229,-2.1996,-2.2143,-2.2859,-2.2933,-2.3345,-2.486,-2.4566,-2.4337,-2.5154,-2.5264,-2.6623,-3.0479,-3.0993,-3.1066,-3.125,-3.1898,-3.2362,-3.2472,-3.3109,-3.3587,-3.366,-3.4417,-3.4931,-3.5004,-3.5642,-3.5385,-3.399,-3.5275,-3.5679,-3.5004,-3.5789,-3.6597,-3.7492,-3.8212,-3.8982,-3.979,-4.0524,-4.1315,-4.2176,-4.2176,-4.2653,-4.3515,-4.3515,-4.3515,-4.3515,-4.3515,-4.3515,-4.3515,-4.3515,-4.3515,-4.3515,-2.4922,-2.5115,-2.5808,-2.7351,0.0,0.0,0.0,0.0,0.0,0.0,0.0,0.0,0.0,0.0,0.0,0.0,0.0,-2.9346,0.0,0.0,0.0,0.0,0.0,0.0,0.0,0.0,0.0,0.0,0.0,0.0,0.0,0.0,0.0,0.0,-2.3006,-2.2896,-2.2822,-2.3639,-2.4887,-2.6429,-2.6906,-2.8154,-2.9879,-3.1335,-3.2069,-3.2472,-3.344,-3.3807,-3.3587,-3.2302,-3.158,-3.0834,-2.8913,-2.786,-2.7174,-2.6355,-2.5658,-2.5007,0.0,0.0,-2.497,-2.4153,-2.4961,0.0,-2.4043,-2.3235,-2.2822,-2.2969,-2.2464,-2.2326,-2.3309,-2.3336,-2.3492,-2.43,-2.441,-2.5411,-2.8128,-2.8496,-2.8962,-3.0283,-3.0577,-3.0907,-3.1568,-3.1801,-3.2155,-3.2803,-3.3587,-3.4307,-3.4968,-3.4541,-3.4431,-3.4747,-3.4468,-3.4541,-3.5004,-3.5188,-3.6009,-3.7492,-3.7676,-3.8138,-3.8946,-3.9093,-3.9958,-4.1315,-4.1315,-4.2176,-4.3515,-4.3515,-4.3515,-4.3515,-4.3515,-4.3515,-4.3515,-4.3515,-4.3515,-4.3515,-2.5043,-2.5521,-2.6505,-2.8203,0.0,0.0,0.0,0.0,0.0,0.0,0.0,0.0,0.0,0.0,0.0,0.0,0.0,0.0,0.0,0.0,0.0,0.0,0.0,0.0,0.0,0.0,0.0,0.0,0.0,0.0,0.0,0.0,0.0,0.0,0.0,0.0,0.0,0.0,-2.6172,-2.8338,-2.753,-2.8411,-3.032,-3.1531,-3.2265,-3.2693,-3.3513,-3.3807,-3.3623,-3.2412,-3.1715,-3.1213,-2.9989,-2.8778,-2.764,-2.6833,-2.6025,-2.5227,-2.442,-2.4493,-2.4787,-2.4787,-2.5107,0.0,0.0,-2.3566,-2.3116,-2.3529,-2.2281,-2.1547,-2.2786,-2.2309,-2.1905,-2.2272,-2.2721,-2.3428,-2.464,-2.6172,-2.7493,-2.8301,-2.9097,-2.9769,-3.0173,-3.0907,-3.158,-3.1971,-3.2375,-3.2963,-3.3757,-3.3807,-3.399,-3.438,-3.438,-3.4601,-3.5004,-3.4601,-3.5422,-3.7492,-3.7088,-3.7514,-3.8689,-3.8689,-3.957,-4.1095,-4.1095,-4.2029,-4.3515,-4.3515,-4.3515,-4.3515,-4.3515,-4.3515,-4.3515,-4.3515,-4.3515,-4.3515,-2.5371,-2.597,-2.7071,-2.8918,0.0,0.0,0.0,0.0,0.0,0.0,0.0,0.0,0.0,0.0,0.0,0.0,0.0,0.0,0.0,0.0,0.0,0.0,0.0,-2.7917,0.0,0.0,0.0,0.0,0.0,0.0,0.0,0.0,0.0,0.0,0.0,0.0,0.0,0.0,-2.7383,-3.0026,-2.8264,-2.8778,-3.076,-3.1568,-3.2155,-3.2693,-3.3513,-3.3807,-3.3697,-3.2876,-3.2265,-3.1678,-3.0723,-2.9549,-2.8301,-2.7346,-2.6502,-2.5705,-2.4887,-2.4887,-2.5217,-2.5558,-2.5374,-2.4961,0.0,0.0,0.0,-2.3676,-2.2134,-2.1171,-2.2529,-2.1538,-2.0503,-2.0503,-2.1216,-2.1739,-2.1555,-2.408,-2.5941,-2.6135,-2.7152,-2.8033,-2.851,-2.9843,-3.0846,-3.114,-3.1176,-3.1531,-3.2326,-3.3146,-3.3587,-3.3587,-3.4491,-3.4931,-3.4784,-3.427,-3.5128,-3.7272,-3.6611,-3.7147,-3.8689,-3.8689,-3.957,-4.1095,-4.1095,-4.2029,-4.3515,-4.3515,-4.3515,-4.3515,-4.3515,-4.3515,-4.3515,-4.3515,-4.3515,-4.3515,-2.5876,-2.5874,-2.6836,-2.9187,0.0,0.0,0.0,0.0,0.0,0.0,0.0,0.0,0.0,0.0,0.0,0.0,0.0,-3.2122,-3.3513,-3.2122,0.0,0.0,0.0,0.0,-2.8796,0.0,0.0,0.0,0.0,0.0,0.0,0.0,0.0,0.0,-2.4153,0.0,0.0,0.0,-2.7897,-3.0246,-3.0687,-3.1458,-3.2399,-3.322,-3.3146,-3.2693,-3.3513,-3.3807,-3.3697,-3.2876,-3.2999,-3.3256,-3.1727,-3.114,-3.0699,-2.917,-2.8154,-2.7346,-2.6539,-2.7372,-2.8143,-2.6796,-2.7482,-2.7703,-2.485,0.0,-2.3676,-2.2363,0.0,-2.1702,-2.1886,0.0,0.0,-2.0503,-2.1216,-2.1519,-2.0768,-2.2235,-2.3666,-2.4373,-2.3997,-2.451,-2.6675,-2.7677,-2.8778,-3.0246,-3.0356,-3.0687,-3.1507,-3.2302,-3.2729,-3.2729,-3.4197,-3.4674,-3.3954,-3.4564,-3.5371,-3.645,-3.634,-3.7147,-3.8689,-3.8689,-3.957,-4.1095,-4.1095,-4.2029,-4.3515,-4.3515,-4.3515,-4.3515,-4.3515,-4.3515,-4.3515,-4.3515,-4.3515,-4.3515,-2.7041,-2.7413,-2.8306,-2.9827,0.0,0.0,0.0,0.0,0.0,0.0,0.0,0.0,-3.8007,-3.7353,-3.6892,-3.6692,-3.5,-3.4192,-3.493,-3.3353,0.0,0.0,-3.2577,-3.1468,0.0,0.0,0.0,0.0,-2.5935,0.0,0.0,0.0,0.0,0.0,-2.4493,0.0,-2.5999,0.0,-2.884,-3.0283,-3.1103,-3.1617,-3.2045,-3.333,-3.3587,-3.333,-3.3697,-3.3807,-3.3733,-3.3403,-3.3513,-3.377,-3.355,-3.2522,-3.1286,-3.0577,-2.9145,-2.7714,-2.7383,-2.7787,-2.8253,-2.8033,-2.8143,-2.797,-2.6612,-2.5558,-2.4824,-2.463,0.0,0.0,0.0,0.0,0.0,0.0,-2.1216,-2.1335,-2.0005,-2.0409,-2.1327,-2.2657,-2.2905,-2.374,-2.5695,-2.5768,-2.6172,-2.7321,-2.786,-2.8448,-2.9267,-3.0944,-3.2118,-3.2583,-3.372,-3.438,-3.4491,-3.4821,-3.5665,-3.7015,-3.7015,-3.7588,-3.8726,-3.9166,-4.001,-4.1132,-4.1589,-4.2433,-4.3515,-4.3515,-4.3515,-4.3515,-4.3515,-4.3515,-4.3515,-4.3515,-4.3515,-4.3515,-2.844,0.0,0.0,0.0,0.0,0.0,0.0,0.0,0.0,0.0,0.0,-3.8354,-3.8661,-3.87,-3.87,-3.8777,-3.7623,-3.6962,-3.7192,-3.5161,-3.4507,-3.5769,-3.443,-3.3122,-3.2045,-3.1423,0.0,0.0,0.0,0.0,0.0,0.0,0.0,0.0,0.0,-2.5778,-2.6513,-2.8473,-3.0051,-3.1237,-3.1825,-3.2045,-3.2155,-3.3109,-3.3623,-3.3807,-3.3807,-3.3807,-3.3844,-3.4064,-3.4137,-3.4234,-3.4821,-3.3793,-3.2339,-3.2131,-3.0797,-2.9402,-2.9182,-2.9108,-2.9219,-2.9586,-2.8888,-2.8117,-2.8117,-2.7064,-2.6109,-2.6245,-2.5061,0.0,0.0,0.0,-2.2529,0.0,0.0,-2.1225,-1.9536,-1.9499,-2.0079,-2.1298,-2.2171,-2.3125,-2.4309,-2.3869,-2.3979,-2.5007,-2.5621,-2.6392,-2.742,-2.9549,-3.1201,-3.2228,-3.3256,-3.41,-3.4674,-3.5114,-3.5973,-3.7162,-3.7382,-3.7918,-3.8726,-3.9313,-4.012,-4.1132,-4.1735,-4.2543,-4.3515,-4.3515,-4.3515,-4.3515,-4.3515,-4.3515,-4.3515,-4.3515,-4.3515,-4.3515,-2.9937,-2.9156,0.0,0.0,0.0,0.0,0.0,0.0,-3.2776,-3.5231,-3.5577,-3.6853,-4.0054,-4.0439,-4.1401,-4.3855,-4.1785,-4.07,-4.1538,-3.8462,-3.6615,-3.6654,-3.5846,-3.4615,-3.2891,-3.2814,0.0,0.0,0.0,0.0,0.0,0.0,0.0,0.0,0.0,-2.6686,-2.895,-2.9806,-3.1531,-3.3697,-3.3697,-3.3733,-3.3623,-3.2926,-3.3109,-3.3807,-3.3807,-3.3807,-3.3917,-3.4711,-3.4968,-3.4968,-3.5004,-3.4968,-3.4747,-3.3954,-3.366,-3.344,-3.2656,-3.2436,-3.2252,-3.1494,-3.0136,-2.895,-2.895,-2.8338,-2.7284,-2.5742,-2.5988,-2.6025,-2.4483,-2.3529,0.0,0.0,0.0,0.0,0.0,-1.9968,-2.0474,-2.0548,-2.1327,-2.1849,-2.1923,-2.1886,-2.2547,-2.4116,-2.4263,-2.4961,-2.6528,-2.818,-2.9794,-3.1397,-3.2963,-3.3807,-3.3844,-3.5459,-3.6303,-3.634,-3.7125,-3.7918,-3.8689,-3.8726,-3.9591,-4.1095,-4.1132,-4.2029,-4.3515,-4.3515,-4.3515,-4.3515,-4.3515,-4.3515,-4.3515,-4.3515,-4.3515,-4.3515,-3.026,0.0,0.0,0.0,-3.0221,-3.0593,-3.1532,-3.3583,-3.5738,-3.7738,-3.9969,-4.22,-4.4509,-4.4739,-4.5086,-4.597,-4.4162,-4.3124,-4.3431,-4.1316,-4.0077,-4.0077,-3.8738,-3.7199,-3.5468,-3.4314,-3.2321,-2.9376,0.0,0.0,0.0,0.0,0.0,0.0,0.0,-2.742,-2.8338,-3.021,-3.147,-3.2278,-3.2779,-3.3023,-3.3036,-3.3293,-3.355,-3.3807,-3.3807,-3.3807,-3.3844,-3.41,-3.4945,-3.5862,-3.5862,-3.5862,-3.5826,-3.5532,-3.4651,-3.3844,-3.4124,-3.4197,-3.4124,-3.383,-3.2583,-3.1225,-3.0723,-2.9953,-2.8925,-2.7321,-2.764,-2.7519,-2.5374,-2.4787,0.0,0.0,0.0,0.0,0.0,-2.1188,-2.1143,-2.0584,-2.0768,-2.0951,-2.0951,-2.0446,-2.0821,-2.2473,-2.3088,-2.4116,-2.5705,-2.8338,-3.0283,-3.136,-3.2963,-3.3807,-3.3807,-3.5459,-3.6303,-3.6303,-3.7661,-3.8432,-3.8726,-3.979,-4.0581,-4.1168,-4.2249,-4.2983,-4.3515,-4.3515,-4.3515,-4.3515,-4.3515,-4.3515,-4.3515,-4.3515,-4.3515,-4.3515,-3.1168,-3.1102,-3.0911,-3.0482,-3.0654,-3.1346,-3.2846,-3.5661,-3.8123,-3.9554,-4.2393,-4.4855,-4.6278,-4.6701,-4.7163,-4.774,-4.6778,-4.5855,-4.5278,-4.3624,-4.2547,-4.2277,-4.0623,-3.9084,-3.7661,-3.5968,-3.3691,-3.078,0.0,-2.8482,0.0,0.0,0.0,0.0,0.0,-2.797,-2.8374,-3.0515,-3.158,-3.1861,-3.2399,-3.2766,-3.306,-3.3293,-3.355,-3.3807,-3.3807,-3.3807,-3.3844,-3.4137,-3.5165,-3.634,-3.6648,-3.6927,-3.7147,-3.7147,-3.6376,-3.5605,-3.5826,-3.5665,-3.5445,-3.5445,-3.4234,-3.2889,-3.2375,-3.1861,-3.0944,-2.9035,-2.9072,-2.8778,-2.666,-2.5778,0.0,0.0,0.0,0.0,0.0,-2.2069,-2.1914,-2.107,-2.0951,-2.0731,-2.0144,-2.0152,-2.0527,-2.129,-2.2382,-2.3712,-2.5301,-2.7908,-2.9989,-3.136,-3.2669,-3.366,-3.4197,-3.5605,-3.645,-3.6758,-3.8358,-3.8982,-3.8762,-4.0361,-4.1095,-4.1168,-4.2506,-4.3258,-4.3515,-4.3515,-4.3515,-4.3515,-4.3515,-4.3515,-4.3515,-4.3515,-4.3515,-4.3515,-3.2569,-3.2785,-3.2423,-3.0911,-3.1308,-3.266,-3.5077,-3.7623,-3.9631,-4.0516,-4.2893,-4.4855,-4.5748,-4.6624,-4.7778,-4.9317,-4.9471,-4.874,-4.7077,-4.5393,-4.4085,-4.3201,-4.1516,-4.0246,-3.94,-3.7623,-3.5383,-3.2668,-3.0788,0.0,0.0,0.0,0.0,0.0,-2.7835,0.0,-2.9097,-3.0687,-3.1861,-3.2656,-3.2656,-3.3183,-3.3844,-3.3023,-3.322,-3.3917,-3.388,-3.3844,-3.399,-3.4747,-3.5591,-3.6486,-3.7199,-3.8028,-3.8689,-3.8689,-3.8689,-3.8542,-3.7786,-3.7015,-3.6413,-3.6413,-3.5165,-3.3917,-3.3917,-3.3917,-3.3256,-3.087,-3.043,-2.9916,-2.8227,-2.6586,-2.5227,0.0,0.0,0.0,0.0,-2.2575,-2.2795,-2.1996,-2.1923,-2.1262,-1.9572,-2.0858,-2.1482,-2.0694,-2.2089,-2.3712,0.0,-2.6953,-2.8936,-3.1286,-3.2228,-3.3463,-3.5004,-3.5899,-3.6743,-3.7529,-3.9145,-3.9496,-3.8799,-4.0451,-4.1168,-4.1205,-4.2029,-4.28,-4.3515,-4.3515,-4.3515,-4.3515,-4.3515,-4.3515,-4.3515,-4.3515,-4.3515,-4.3515,-3.2753,-3.2865,-3.3121,-3.38,-3.3695,-3.3776,-3.443,-3.7245,-4.0054,-4.2162,-4.5163,-4.7702,-4.925,-5.0125,-5.0548,-5.0394,-5.0366,-4.9625,-4.7894,-4.7355,-4.6201,-4.4085,-4.297,-4.1739,-4.0208,-3.7892,-3.5659,-3.3486,-3.1744,0.0,-2.9626,0.0,0.0,0.0,0.0,0.0,-2.906,-3.0099,-3.1678,-3.3476,-3.3476,-3.4357,-3.5569,-3.4711,-3.4894,-3.5569,-3.4931,-3.4674,-3.4711,-3.4931,-3.5973,-3.7125,-3.6721,-3.7551,-3.8689,-3.8689,-3.8689,-3.8652,-3.8469,-3.8248,-3.8065,-3.8065,-3.6853,-3.5642,-3.5642,-3.5642,-3.5128,-3.3256,-3.3353,-3.2913,-3.0099,-2.8264,-2.6733,0.0,0.0,0.0,-2.3602,-2.3749,-2.3823,-2.3602,-2.3566,-2.2951,-2.1335,-2.1555,-2.1959,-2.2345,-2.2749,-2.3712,-2.5301,-2.7493,-2.9244,-3.0467,-3.3023,-3.4601,-3.5004,-3.645,-3.7309,-3.7529,-3.9145,-3.979,-3.9643,-4.1258,-4.1992,-4.2029,-4.2837,-4.3314,-4.3515,-4.3515,-4.3515,-4.3515,-4.3515,-4.3515,-4.3515,-4.3515,-4.3515,-4.3515,-3.3967,-3.4314,-3.4934,-3.6151,-3.6411,-3.6668,-3.7392,-3.9777,-4.2277,-4.447,-4.7355,-4.9317,-4.9548,-5.0317,-5.0471,-4.9625,-4.9548,-4.9009,-4.7663,-4.7586,-4.6778,-4.4932,-4.3739,-4.2624,-4.1662,-3.8777,-3.6387,-3.4557,-3.2745,0.0,-2.9829,0.0,0.0,0.0,0.0,-2.9112,-2.9097,-3.0601,-3.2228,-3.3844,-3.4174,-3.5128,0.0,-3.5334,-3.5555,-3.6266,-3.6156,-3.5862,-3.5555,-3.5555,-3.6413,-3.7419,-3.6978,-3.7698,-3.8689,-3.8689,-3.8689,-3.8689,-3.8689,-3.8689,-3.8689,-3.8689,-3.8028,-3.7257,-3.689,-3.6831,-3.645,-3.5165,-3.4688,-3.3903,-3.2118,-2.9879,-2.7787,-2.6172,-2.5264,-2.4713,-2.4713,-2.441,-2.419,-2.419,-2.419,-2.3823,-2.2951,-2.2841,-2.2905,-2.3006,-2.3639,-2.474,-2.6366,-2.8081,-2.9537,-3.0687,-3.35,-3.4821,-3.4491,-3.7184,-3.819,-3.7529,-3.9827,-4.0561,-3.9989,-4.1919,-4.2616,-4.2323,-4.313,-4.3515,-4.3515,-4.3515,-4.3515,-4.3515,-4.3515,-4.3515,-4.3515,-4.3515,-4.3515,-4.3515,-3.5773,-3.6385,-3.7199,-3.8161,-3.8931,-4.0123,-4.2162,-4.3508,-4.4893,-4.6509,-4.8933,-4.9894,-4.8279,-4.8894,-4.9048,-4.8202,-4.8086,-4.7778,-4.6962,-4.6885,-4.6509,-4.5633,-4.4085,-4.3278,-4.3278,-4.0008,-3.7507,-3.5846,-3.3784,0.0,0.0,0.0,0.0,0.0,0.0,0.0,0.0,-3.1775,-3.3293,-3.4174,-3.4894,-3.5738,-3.6523,-3.5665,-3.5848,-3.6707,-3.7419,-3.7162,-3.645,-3.645,-3.7015,-3.7639,-3.7529,-3.8028,-3.8689,-3.8689,-3.8689,-3.8689,-3.8689,-3.8689,-3.8689,-3.8689,-3.8689,-3.8505,-3.7676,-3.7566,-3.7419,-3.6486,-3.5128,-3.4064,-3.3844,-3.1152,-2.851,-2.7005,-2.6062,-2.5558,-2.5558,-2.5044,-2.463,-2.452,-2.4593,0.0,-2.4373,-2.4263,-2.3896,-2.3226,-2.4447,-2.5888,-2.7431,-2.8338,-2.9586,-3.1213,-3.3683,-3.4784,-3.4284,-3.8028,-3.9255,-3.8006,-4.0891,-4.1552,-4.0267,-4.2523,-4.313,-4.2506,-4.3204,-4.3515,-4.3515,-4.3515,-4.3515,-4.3515,-4.3515,-4.3515,-4.3515,-4.3515,-4.3515,-4.3515,-3.7509,-3.77,-3.8277,-3.9785,-4.0208,-4.1585,-4.5432,-4.5047,-4.4662,-4.571,-4.8048,-4.924,-4.8202,-4.8894,-4.9048,-4.8202,-4.8086,-4.7778,-4.6962,-4.6885,-4.6509,-4.5633,-4.4624,-4.4085,-4.4085,-4.1439,-3.9238,-3.7546,-3.5133,0.0,0.0,0.0,0.0,0.0,0.0,0.0,-3.1091,-3.2852,-3.4468,-3.5862,-3.6009,-3.6964,-3.8175,-3.7367,-3.7551,-3.8285,-3.8432,-3.7955,-3.7309,-3.7309,-3.7823,-3.8358,-3.7713,-3.8028,-3.8689,-3.8689,-3.8689,-3.8689,-3.8689,-3.8689,-3.8689,-3.8689,-3.8689,-3.8505,-3.7676,-3.8006,-3.8065,-3.6597,-3.6083,-3.5422,-3.4064,-3.1152,-2.8693,-2.775,-2.6906,-2.6392,-2.6392,-2.6833,-2.6906,-2.6245,-2.6759,-2.666,-2.5301,-2.4603,-2.4153,-2.4006,-2.4263,-2.4824,-2.5778,-2.721,-2.8741,-3.0356,-3.339,-3.5591,-3.6831,-3.8888,-4.0084,-4.0471,-4.1699,-4.2139,-4.1919,-4.2983,-4.3441,-4.3294,-4.3441,-4.3515,-4.3515,-4.3515,-4.3515,-4.3515,-4.3515,-4.3515,-4.3515,-4.3515,-4.3515,-4.3515,-3.8569,-3.8661,-3.9354,-4.147,-4.2555,-4.4132,-4.7086,-4.7586,-4.7625,-4.7586,-4.8625,-4.8894,-4.7625,-4.824,-4.8202,-4.6932,-4.6817,-4.6624,-4.624,-4.624,-4.6047,-4.5633,-4.4778,-4.4316,-4.4316,-4.1785,-3.9669,-3.8007,-3.5892,-3.4007,0.0,0.0,0.0,0.0,0.0,-3.2072,0.0,0.0,-3.5688,-3.6376,-3.7221,-3.8028,-3.8652,-3.8285,-3.8358,-3.8689,-3.8689,-3.8469,-3.8102,-3.8102,-3.8395,-3.8615,-3.8248,-3.8395,-3.8689,-3.8689,-3.8689,-3.8689,-3.8689,-3.8689,-3.8689,-3.8689,-3.8689,-3.8615,-3.8212,-3.8432,-3.8358,-3.7162,-3.6597,-3.5642,-3.355,-3.1922,-3.0748,-3.0356,-2.8913,-2.7996,-2.8411,-2.8081,-2.7651,-2.7273,-2.7567,-2.7504,-2.6733,-2.5558,-2.464,-2.4226,-2.4603,-2.5374,-2.6586,-2.7394,-2.8741,-3.076,-3.3537,-3.5188,-3.5583,-3.9276,-4.0708,-3.9884,-4.1956,-4.269,-4.2323,-4.313,-4.3515,-4.3515,-4.3515,-4.3515,-4.3515,-4.3515,-4.3515,-4.3515,-4.3515,-4.3515,-4.3515,-4.3515,-4.3754,-4.4048,-4.0131,-4.0362,-4.1123,-4.3508,-4.5009,-4.6432,-4.8125,-4.9548,-5.025,-4.974,-4.951,-4.8817,-4.7317,-4.7586,-4.724,-4.5748,-4.5594,-4.5594,-4.5594,-4.5594,-4.5594,-4.5594,-4.4932,-4.4586,-4.4586,-4.2439,-4.0469,-3.8815,-3.6923,-3.5154,-3.343,0.0,0.0,0.0,0.0,0.0,-3.362,-3.5974,-3.6909,-3.6927,-3.8175,-3.8689,-3.8689,-3.8689,-3.8689,-3.8689,-3.8689,-3.8689,-3.8689,-3.8689,-3.8689,-3.8689,-3.8689,-3.8689,-3.8689,-3.8689,-3.8689,-3.8689,-3.8689,-3.8689,-3.8689,-3.8689,-3.8689,-3.8652,-3.8469,-3.8579,-3.8358,-3.7235,-3.634,-3.5165,-3.322,-3.2729,-3.2583,-3.2583,-3.0858,-2.9647,-3.0136,-2.9402,-2.8631,-2.8117,-2.8374,-2.8349,-2.786,-2.666,-2.5595,-2.4777,-2.5154,-2.6109,-2.7714,-2.7798,-2.89,-3.1323,-3.339,-3.4527,-3.4578,-3.9386,-4.1075,-3.9753,-4.2286,-4.3167,-4.258,-4.3221,-4.3515,-4.3515,-4.3515,-4.3515,-4.3515,-4.3515,-4.3515,-4.3515,-4.3681,-4.3754,-4.3754,-4.3938,-4.4415,-4.4856,-4.3355,-4.3816,-4.4393,-4.624,-4.6663,-4.7355,-4.9009,-4.9433,-4.9779,-5.0481,-4.9894,-4.9048,-4.8086,-4.7394,-4.6624,-4.5671,-4.5594,-4.5594,-4.5594,-4.5594,-4.5594,-4.5594,-4.5518,-4.5479,-4.5479,-4.447,-4.3124,-4.1423,-3.8969,-3.6892,-3.5231,0.0,0.0,0.0,-3.4652,-3.5216,-3.6373,-3.7366,-3.8058,-3.8505,-3.8652,-3.8689,-3.8689,-3.8689,-3.8689,-3.8689,-3.8689,-3.8689,-3.8689,-3.8689,-3.8689,-3.8689,-3.8689,-3.8689,-3.8689,-3.8689,-3.8689,-3.8689,-3.8689,-3.8689,-3.8689,-3.8689,-3.8689,-3.8505,-3.7786,-3.8175,-3.805,-3.5701,-3.4614,-3.3954,-3.3733,-3.3109,-3.2583,-3.2583,-3.1788,-3.0944,-3.0283,-3.1347,-3.1335,-2.9133,-3.0173,-3.0222,-2.8007,-2.7651,-2.7236,-2.6429,-2.5778,-2.6109,-2.7714,-2.7798,-2.89,-3.1323,-3.2339,-3.4211,-3.7125,-3.9145,-4.1111,-4.3074,-4.3368,-4.3478,-4.3404,-4.3478,-4.3515,-4.3515,-4.3515,-4.3515,-4.3515,-4.3515,-4.3515,-4.3588,-4.4305,-4.4599,-4.4672,-4.5406,-4.5736,-4.5663,-4.4786,-4.5094,-4.5624,-4.7317,-4.8048,-4.8817,-5.001,-5.0587,-5.0856,-5.0712,-4.9933,-4.9086,-4.8202,-4.7394,-4.6547,-4.5671,-4.5594,-4.5594,-4.5594,-4.5594,-4.5594,-4.5594,-4.5594,-4.5594,-4.5594,-4.4739,-4.3739,-4.2585,-4.0508,-3.9161,-3.8469,-3.7123,-3.6527,-3.6646,-3.7691,-3.8299,-3.8548,-3.9513,-3.9852,-3.9666,-3.917,-3.8826,-3.8689,-3.8689,-3.8689,-3.8689,-3.8689,-3.8689,-3.8689,-3.8689,-3.8689,-3.8689,-3.8689,-3.8689,-3.8689,-3.8689,-3.8689,-3.8689,-3.8689,-3.8689,-3.8689,-3.8689,-3.8689,-3.8615,-3.8285,-3.8469,-3.8138,-3.6193,-3.4724,-3.3807,-3.3807,-3.394,-3.405,-3.405,-3.3757,-3.3096,-3.1812,-3.2619,-3.2399,-3.0026,-3.0723,-3.1029,-3.0038,-2.8643,-2.8081,-2.8705,-2.7126,-2.6612,-2.775,-2.8705,-2.9879,-3.136,-3.3623,-3.5679,-3.7492,-3.957,-4.1368,-4.28,-4.3294,-4.3515,-4.3515,-4.3515,-4.3515,-4.3515,-4.3515,-4.3515,-4.3515,-4.3515,-4.3515,-4.3551,-4.3864,-4.4268,-4.4654,-4.4525,-4.5076,-4.5773,-4.6556,-4.6941,-4.748,-4.8663,-4.9356,-4.9971,-5.0596,-5.1164,-5.1356,-5.0789,-4.9702,-4.8779,-4.8163,-4.7394,-4.6547,-4.5671,-4.5594,-4.5594,-4.5594,-4.5594,-4.5594,-4.5594,-4.5594,-4.5594,-4.5594,-4.5017,-4.4278,-4.3431,-4.197,-4.1131,-4.0854,-3.9392,-3.8785,-3.8882,-4.026,-4.0775,-4.0615,-4.1366,-4.1332,-4.0686,-3.9852,-3.9318,-3.9019,-3.8799,-3.8689,-3.8689,-3.8689,-3.8689,-3.8689,-3.8689,-3.8689,-3.8689,-3.8689,-3.8689,-3.8689,-3.8689,-3.8689,-3.8689,-3.8689,-3.8689,-3.8689,-3.8689,-3.8689,-3.8689,-3.8689,-3.8689,-3.8322,-3.6927,-3.5532,-3.4541,-3.4541,-3.5018,-3.5371,-3.5371,-3.5371,-3.4821,-3.317,-3.3647,-3.3256,-3.0834,-3.1066,-3.1397,-3.1397,-2.9622,-2.8962,-3.0099,-2.8631,-2.8007,-2.8826,-2.9696,-3.0687,-3.1715,-3.4211,-3.6193,-3.7492,-3.9643,-4.1405,-4.2653,-4.3204,-4.3515,-4.3515,-4.3515,-4.3515,-4.3515,-4.3515,-4.3515,-4.3515,-4.3515,-4.3515,-4.3551,-4.4011,-4.4562,-4.5039,-4.4929,-4.5626,-4.6507,-4.9163,-5.0048,-5.0635,-5.0673,-5.0673,-5.0712,-5.0712,-5.0712,-5.0712,-5.0712,-4.9202,-4.8125,-4.8086,-4.7394,-4.6547,-4.5671,-4.5594,-4.5594,-4.5594,-4.5594,-4.5594,-4.5594,-4.5594,-4.5594,-4.5594,-4.5594,-4.5171,-4.4278,-4.347,-4.2624,-4.1769,-4.0893,-4.0931,-4.1731,-4.1769,-4.2073,-4.2591,-4.2591,-4.2214,-4.153,-4.0724,-4.0185,-3.979,-3.9019,-3.8689,-3.8689,-3.8689,-3.8689,-3.8689,-3.8689,-3.8689,-3.8689,-3.8689,-3.8689,-3.8689,-3.8689,-3.8689,-3.8689,-3.8689,-3.8689,-3.8689,-3.8689,-3.8689,-3.8689,-3.8689,-3.8689,-3.8469,-3.7639,-3.6831,-3.6266,-3.6266,-3.6266,-3.6266,-3.6266,-3.6266,-3.5679,-3.4027,-3.4491,-3.4087,-3.1678,-3.1397,-3.1397,-3.1397,-3.065,-3.0173,-3.021,-3.0173,-3.0503,-3.1323,-3.0613,-3.0944,-3.2546,-3.3403,-3.5018,-3.7492,-3.9108,-4.1128,-4.3515,-4.3515,-4.3515,-4.3515,-4.3515,-4.3515,-4.3515,-4.3515,-4.3515,-4.3515,-4.3515,-4.3515,-4.3662,-4.5259,-4.5883,-4.6067,-4.7682,-4.8269,-4.8159,-5.0125,-5.0519,-5.0712,-5.0712,-5.0712,-5.0712,-5.0712,-5.0712,-5.0712,-5.0712,-5.0212,-4.9433,-4.824,-4.6855,-4.5893,-4.5633,-4.5594,-4.5594,-4.5594,-4.5594,-4.5594,-4.5594,-4.5594,-4.5594,-4.5594,-4.5594,-4.5479,-4.521,-4.4316,-4.3778,-4.3508,-4.3201,-4.3239,-4.3508,-4.3508,-4.359,-4.3711,-4.2928,-4.234,-4.1819,-4.0171,-3.9355,-3.9056,-3.8799,-3.8689,-3.8689,-3.8689,-3.8689,-3.8689,-3.8689,-3.8689,-3.8689,-3.8689,-3.8689,-3.8689,-3.8689,-3.8689,-3.8689,-3.8689,-3.8689,-3.8689,-3.8689,-3.8689,-3.8689,-3.8689,-3.8285,-3.7823,-3.7566,-3.6868,-3.6303,-3.6303,-3.6758,-3.6942,-3.6376,-3.7221,-3.6964,-3.4174,-3.4491,-3.4307,-3.2436,-3.2228,-3.2449,-3.2963,-3.2302,-3.1849,-3.1849,-3.1311,-3.114,-3.1397,-3.2192,-3.3403,-3.5055,-3.6964,-3.8579,-3.9937,-4.1001,-4.2176,-4.3515,-4.3515,-4.3515,-4.3515,-4.3515,-4.3515,-4.3515,-4.3515,-4.3515,-4.3515,-4.3515,-4.3515,-4.3625,-4.4672,-4.5406,-4.5957,-4.6471,-4.7021,-4.7443,-5.1048,-5.1164,-5.1048,-5.075,-5.0712,-5.0712,-5.0712,-5.0712,-5.0712,-5.0712,-5.0404,-4.9663,-4.824,-4.6894,-4.597,-4.5633,-4.5594,-4.5594,-4.5594,-4.5594,-4.5594,-4.5594,-4.5594,-4.5594,-4.5594,-4.5594,-4.5594,-4.5594,-4.5056,-4.4778,-4.4778,-4.4778,-4.4778,-4.4778,-4.4778,-4.4778,-4.4731,-4.402,-4.3291,-4.2422,-4.0854,-3.9779,-3.9129,-3.8836,-3.8689,-3.8689,-3.8689,-3.8689,-3.8689,-3.8689,-3.8689,-3.8689,-3.8689,-3.8689,-3.8689,-3.8689,-3.8689,-3.8689,-3.8689,-3.8689,-3.8689,-3.8689,-3.8689,-3.8689,-3.8689,-3.8322,-3.7955,-3.7955,-3.7551,-3.7184,-3.7184,-3.7588,-3.7713,-3.6905,-3.7588,-3.7294,-3.4651,-3.4674,-3.4527,-3.3206,-3.306,-3.3353,-3.416,-3.3793,-3.35,-3.35,-3.3036,-3.2889,-3.3233,-3.388,-3.5018,-3.6721,-3.8799,-4.0304,-4.1095,-4.1919,-4.269,-4.3515,-4.3515,-4.3515,-4.3515,-4.3515,-4.3515,-4.3515,-4.3515,-4.3515,-4.3515,-4.3515,-4.3698,-4.4011,-4.4856,-4.5663,-4.6397,-4.6691,-4.7131,-4.7553,-5.1808,-5.1808,-5.1587,-5.0827,-5.0712,-5.0712,-5.0712,-5.0712,-5.0712,-5.0712,-4.9971,-4.9163,-4.8279,-4.7471,-4.6624,-4.5787,-4.5633,-4.5594,-4.5594,-4.5594,-4.5594,-4.5594,-4.5594,-4.5594,-4.5594,-4.5594,-4.5594,-4.5594,-4.5594,-4.5594,-4.5594,-4.5594,-4.5594,-4.5594,-4.5594,-4.5594,-4.5594,-4.5538,-4.4638,-4.3228,-4.2347,-4.1142,-3.979,-3.9019,-3.8689,-3.8689,-3.8689,-3.8689,-3.8689,-3.8689,-3.8689,-3.8689,-3.8689,-3.8689,-3.8689,-3.8689,-3.8689,-3.8689,-3.8689,-3.8689,-3.8689,-3.8689,-3.8689,-3.8689,-3.8689,-3.8689,-3.8689,-3.8689,-3.8689,-3.8689,-3.8689,-3.8689,-3.8432,-3.7639,-3.7492,-3.6905,-3.5151,-3.4954,-3.4711,-3.3954,-3.3954,-3.4284,-3.5114,-3.5188,-3.5151,-3.5078,-3.5151,-3.5518,-3.634,-3.5775,-3.6142,-3.7713,-3.9255,-4.0451,-4.1242,-4.2029,-4.2763,-4.3515,-4.3515,-4.3515,-4.3515,-4.3515,-4.3515,-4.3515,-4.3515,-4.3515,-4.3515,-4.3515,-4.3975,-4.4764,-4.559,-4.6397,-4.7186,-4.8012,-4.8306,-4.8306,-5.0971,-5.0971,-5.0933,-5.075,-5.0712,-5.0712,-5.0712,-5.0712,-5.0712,-5.0712,-5.0519,-5.0048,-4.9202,-4.8317,-4.7509,-4.6663,-4.597,-4.5594,-4.5594,-4.5594,-4.5594,-4.5594,-4.5594,-4.5594,-4.5594,-4.5594,-4.5594,-4.5594,-4.5594,-4.5594,-4.5594,-4.5594,-4.5594,-4.5594,-4.5594,-4.5594,-4.5547,-4.4681,-4.3907,-4.3127,-4.149,-4.0457,-3.979,-3.9019,-3.8689,-3.8689,-3.8689,-3.8689,-3.8689,-3.8689,-3.8689,-3.8689,-3.8689,-3.8689,-3.8689,-3.8689,-3.8689,-3.8689,-3.8689,-3.8689,-3.8689,-3.8689,-3.8689,-3.8689,-3.8689,-3.8689,-3.8689,-3.8689,-3.8689,-3.8689,-3.8689,-3.8689,-3.8432,-3.7639,-3.7492,-3.6684,-3.4394,-3.4601,-3.4931,-3.4747,-3.5312,-3.6009,-3.6831,-3.6905,-3.6633,-3.6046,-3.656,-3.7015,-3.7199,-3.8762,-3.9848,-4.023,-4.1222,-4.2103,-4.291,-4.313,-4.3314,-4.3515,-4.3515,-4.3515,-4.3515,-4.3515,-4.3515,-4.3515,-4.3515,-4.3515,-4.3515,-4.3515,-4.3975,-4.4764,-4.559,-4.6397,-4.7186,-4.8012,-4.8306,-4.8306,-5.1164,-5.0933,-5.0712,-5.0712,-5.0712,-5.0712,-5.0712,-5.0712,-5.0712,-5.0712,-5.0712,-5.0366,-4.951,-4.8625,-4.7778,-4.6962,-4.6086,-4.5594,-4.5594,-4.5594,-4.5594,-4.5594,-4.5594,-4.5594,-4.5594,-4.5594,-4.5594,-4.5594,-4.5594,-4.5594,-4.5594,-4.5594,-4.5594,-4.5594,-4.5594,-4.5594,-4.5547,-4.493,-4.4151,-4.3215,-4.2132,-4.1198,-4.0377,-3.957,-3.9239,-3.9203,-3.8836,-3.8689,-3.8689,-3.8689,-3.8689,-3.8689,-3.8689,-3.8689,-3.8689,-3.8689,-3.8689,-3.8689,-3.8689,-3.8689,-3.8689,-3.8689,-3.8982,-3.9166,-3.8799,-3.9276,-3.9606,-3.8872,-3.8982,-3.9129,-3.8762,-3.8395,-3.7881,-3.7088,-3.6317,-3.5202,-3.3476,-3.394,-3.4747,-3.5481,-3.667,-3.7845,-3.9019,-3.9129,-3.8946,-3.8542,-3.8909,-3.9129,-3.9129,-4.0744,-4.1462,-4.1095,-4.2249,-4.3057,-4.3515,-4.3515,-4.3515,-4.3515,-4.3515,-4.3515,-4.3515,-4.3515,-4.3515,-4.3515,-4.3515,-4.3515,-4.3551,-4.3901,-4.4525,-4.5333,-4.614,-4.6948,-4.77,-4.8159,-4.8306,-4.8306,-5.1769,-5.1356,-5.0894,-5.0894,-5.0789,-5.0712,-5.0712,-5.0712,-5.0712,-5.0712,-5.0712,-5.0442,-4.9663,-4.8817,-4.8009,-4.7355,-4.6471,-4.5864,-4.5633,-4.5594,-4.5594,-4.5594,-4.5594,-4.5594,-4.5594,-4.5594,-4.5594,-4.5594,-4.5594,-4.5594,-4.5594,-4.5594,-4.5594,-4.5594,-4.5594,-4.5594,-4.5594,-4.5594,-4.4832,-4.3567,-4.3453,-4.2585,-4.1282,-4.0452,-4.0037,-3.979,-3.9129,-3.8799,-3.8689,-3.8689,-3.8689,-3.8689,-3.8689,-3.8799,-3.8872,-3.8872,-3.8982,-3.9019,-3.8762,-3.8799,-3.8872,-3.8872,-3.9496,-3.99,-3.9239,-4.0104,-4.0691,-3.935,-3.9496,-3.968,-3.9019,-3.8117,-3.7235,-3.6413,-3.4871,-3.355,-3.2876,-3.3587,-3.4761,-3.6303,-3.8028,-3.9591,-4.0948,-4.1095,-4.1132,-4.1279,-4.1279,-4.1279,-4.1279,-4.2029,-4.2103,-4.1315,-4.2727,-4.3515,-4.3515,-4.3515,-4.3534,-4.3681,-4.3681,-4.3681,-4.3681,-4.3681,-4.3608,-4.3515,-4.3515,-4.3515,-4.3534,-4.4378,-4.5186,-4.5993,-4.6782,-4.759,-4.8306,-4.8306,-4.8306,-4.8306,-5.2,-5.1808,-5.1692,-5.1692,-5.1164,-5.0712,-5.0712,-5.0712,-5.0712,-5.0712,-5.0712,-5.0635,-5.0519,-4.9702,-4.9163,-4.9009,-4.8202,-4.7124,-4.571,-4.5594,-4.5594,-4.5594,-4.5594,-4.5594,-4.5594,-4.5594,-4.5594,-4.5594,-4.5594,-4.5594,-4.5594,-4.5594,-4.5594,-4.5594,-4.5594,-4.5594,-4.5594,-4.5594,-4.5314,-4.4744,-4.4092,-4.3303,-4.2434,-4.163,-4.074,-3.9879,-3.9753,-3.9276,-3.8689,-3.8689,-3.8689,-3.8689,-3.8689,-3.9166,-3.9717,-3.9717,-4.0194,-4.0435,-3.9093,-3.9203,-3.9717,-3.9717,-4.0304,-4.0875,-4.0765,-4.0912,-4.1022,-4.0765,-4.0304,-3.9863,-3.9753,-3.8521,-3.7235,-3.6413,-3.4871,-3.377,-3.3623,-3.4945,-3.6266,-3.7199,-3.935,-4.0838,-4.1058,-4.1095,-4.1389,-4.2066,-4.2103,-4.2103,-4.2103,-4.2873,-4.2947,-4.2139,-4.302,-4.3515,-4.3515,-4.3515,-4.3828,-4.4525,-4.4525,-4.4525,-4.4525,-4.4525,-4.4158,-4.3515,-4.3515,-4.3515,-4.3534,-4.4378,-4.5186,-4.5993,-4.6782,-4.759,-4.8306,-4.8306,-4.8306,-4.8306,-5.2692,-5.2577,-5.2577,-5.2577,-5.2279,-5.2049,-5.2049,-5.1664,-5.1356,-5.1356,-5.0971,-5.0712,-5.0712,-4.9933,-4.9394,-4.9394,-4.8586,-4.7586,-4.6394,-4.6317,-4.6086,-4.5633,-4.5594,-4.5594,-4.5594,-4.5594,-4.5594,-4.5594,-4.5594,-4.5594,-4.5594,-4.5594,-4.5594,-4.5594,-4.5594,-4.5594,-4.5594,-4.5594,-4.541,-4.5077,-4.4717,-4.4218,-4.368,-4.266,-4.1898,-4.1369,-4.0767,-4.0304,-3.9994,-3.9994,-3.9717,-3.935,-3.935,-3.9606,-3.99,-3.99,-4.0487,-4.0948,-4.0178,-4.0251,-4.0561,-4.0561,-4.1148,-4.1609,-4.1205,-4.1772,-4.2139,-4.1279,-4.1148,-4.1075,-4.0634,-3.9239,-3.8028,-3.7661,-3.5811,-3.4601,-3.5092,-3.6193,-3.7419,-3.8667,-4.0524,-4.1919,-4.2359,-4.2396,-4.2543,-4.291,-4.2947,-4.2947,-4.2947,-4.3294,-4.3331,-4.2947,-4.3314,-4.3515,-4.3515,-4.3938,-4.4342,-4.4709,-4.5149,-4.5369,-4.5369,-4.5369,-4.4929,-4.4158,-4.4158,-4.3901,-4.3534,-4.4378,-4.5186,-4.5993,-4.6782,-4.759,-4.8306,-4.8306,-4.8306,-4.8306,-5.3549,-5.351,-5.351,-5.351,-5.3318,-5.3203,-5.3203,-5.2615,-5.2192,-5.2192,-5.1664,-5.1279,-5.1279,-5.051,-4.9971,-4.9971,-4.9202,-4.8355,-4.7548,-4.7471,-4.6932,-4.5671,-4.5594,-4.5594,-4.5594,-4.5594,-4.5594,-4.5594,-4.5594,-4.5594,-4.5594,-4.5594,-4.5594,-4.5594,-4.5594,-4.5594,-4.5594,-4.5594,-4.5448,-4.5211,-4.5211,-4.5011,-4.4613,-4.3591,-4.3019,-4.2664,-4.1714,-4.1242,-4.1095,-4.1095,-4.0708,-4.0194,-4.0194,-4.0304,-4.0451,-4.0451,-4.1038,-4.1572,-4.1205,-4.1242,-4.1389,-4.1389,-4.1992,-4.2433,-4.1809,-4.2616,-4.313,-4.1919,-4.1992,-4.2103,-4.1499,-4.0084,-3.8982,-3.8982,-3.7074,-3.5958,-3.7,-3.7676,-3.8667,-4.0267,-4.1699,-4.28,-4.3441,-4.3515,-4.3515,-4.3515,-4.3515,-4.3515,-4.3515,-4.3515,-4.3571,-4.3754,-4.3625,-4.3571,-4.3791,-4.4378,-4.4874,-4.5278,-4.5883,-4.6177,-4.6177,-4.6177,-4.5736,-4.5002,-4.5002,-4.4635,-4.4085,-4.4709,-4.5443,-4.625,-4.6856,-4.759,-4.8306,-4.8306,-4.8306,-4.8306,-5.4549,-5.4395,-5.4395,-5.4395,-5.3741,-5.3203,-5.3203,-5.3164,-5.3087,-5.3087,-5.3049,-5.301,-5.301,-5.2231,-5.1731,-5.1731,-5.0971,-5.0125,-4.9279,-4.9202,-4.8125,-4.571,-4.5594,-4.5594,-4.5594,-4.5594,-4.5594,-4.5594,-4.5594,-4.5594,-4.5594,-4.5594,-4.5594,-4.5594,-4.5594,-4.5594,-4.5594,-4.5594,-4.5586,-4.5568,-4.5568,-4.5371,-4.5011,-4.4625,-4.3769,-4.2739,-4.2341,-4.1735,-4.1095,-4.1095,-4.1058,-4.1022,-4.1022,-4.1515,-4.2103,-4.2103,-4.269,-4.2983,-4.1515,-4.1662,-4.2213,-4.2213,-4.28,-4.3387,-4.3314,-4.3404,-4.3478,-4.3368,-4.2763,-4.2286,-4.2213,-4.0891,-3.979,-3.979,-3.841,-3.786,-3.9439,-3.9696,-4.0304,-4.1919,-4.2873,-4.3441,-4.3515,-4.3515,-4.3515,-4.3515,-4.3515,-4.3515,-4.3515,-4.3515,-4.3828,-4.4599,-4.3901,-4.3864,-4.4599,-4.4654,-4.5461,-4.6929,-4.6966,-4.7003,-4.7003,-4.7003,-4.6562,-4.581,-4.581,-4.5773,-4.5736,-4.5773,-4.6287,-4.7003,-4.7076,-4.759,-4.8306,-4.8306,-4.8306,-4.8306,-5.528,-5.5241,-5.5241,-5.5241,-5.4972,-5.4741,-5.4741,-5.4318,-5.401,-5.401,-5.3549,-5.3203,-5.3203,-5.2895,-5.25,-5.1962,-5.1625,-5.0856,-4.9471,-4.9394,-4.8509,-4.6509,-4.5893,-4.5594,-4.5594,-4.5594,-4.5594,-4.5594,-4.5594,-4.5594,-4.5594,-4.5594,-4.5594,-4.5594,-4.5594,-4.5594,-4.5594,-4.5594,-4.5594,-4.5594,-4.5594,-4.5541,-4.5371,-4.4812,-4.4307,-4.3854,-4.325,-4.2837,-4.258,-4.258,-4.2249,-4.1846,-4.1846,-4.2066,-4.2396,-4.291,-4.324,-4.3351,-4.2763,-4.28,-4.302,-4.302,-4.3294,-4.3515,-4.3515,-4.3515,-4.3515,-4.3515,-4.324,-4.302,-4.302,-4.2139,-4.1405,-4.1405,-4.0451,-4.012,-4.1222,-4.1405,-4.1809,-4.291,-4.3314,-4.3681,-4.4195,-4.3791,-4.3901,-4.4892,-4.4048,-4.3955,-4.4929,-4.5002,-4.5112,-4.5443,-4.5149,-4.5149,-4.5443,-4.5938,-4.6489,-4.7113,-4.759,-4.7846,-4.7846,-4.7846,-4.7406,-4.6636,-4.6636,-4.6361,-4.5883,-4.5883,-4.6361,-4.7113,-4.7113,-4.759,-4.8306,-4.8306,-4.8636,-4.9003,-5.5703,-5.5703,-5.5703,-5.5703,-5.5703,-5.5703,-5.5703,-5.5241,-5.4895,-5.4895,-5.4357,-5.3972,-5.3972,-5.378,-5.328,-5.2385,-5.2038,-5.1308,-4.9894,-4.9548,-4.8663,-4.6962,-4.6317,-4.5893,-4.5594,-4.5594,-4.5594,-4.5594,-4.5594,-4.5594,-4.5594,-4.5594,-4.5594,-4.5594,-4.5594,-4.5594,-4.5594,-4.5594,-4.5594,-4.5594,-4.5594,-4.5594,-4.5541,-4.4861,-4.4612,-4.4519,-4.3758,-4.3515,-4.3515,-4.3515,-4.313,-4.269,-4.269,-4.269,-4.28,-4.3314,-4.3515,-4.3515,-4.3515,-4.3515,-4.3515,-4.3515,-4.3515,-4.3515,-4.3515,-4.3515,-4.3515,-4.3515,-4.3515,-4.3515,-4.3515,-4.3057,-4.269,-4.269,-4.2213,-4.2066,-4.2616,-4.269,-4.2873,-4.3441,-4.3515,-4.3718,-4.4268,-4.4048,-4.4342,-4.5443,-4.4709,-4.4745,-4.5847,-4.5883,-4.603,-4.6287,-4.6287,-4.6397,-4.6654,-4.6929,-4.7223,-4.748,-4.8049,-4.8306,-4.8306,-4.8306,-4.8012,-4.748,-4.748,-4.7149,-4.6617,-4.6397,-4.6764,-4.7443,-4.7186,-4.759,-4.8343,-4.86,-4.8893,-4.915,-5.5703,-5.5703,-5.5703,-5.5703,-5.5703,-5.5703,-5.5703,-5.5703,-5.5703,-5.5703,-5.5703,-5.5703,-5.5703,-5.4972,-5.4164,-5.328,-5.2423,-5.1587,-5.075,-4.9894,-4.8663,-4.7,-4.6923,-4.6509,-4.5633,-4.5633,-4.5594,-4.5594,-4.5594,-4.5594,-4.5594,-4.5594,-4.5594,-4.5594,-4.5594,-4.5594,-4.5594,-4.5594,-4.5594,-4.5594,-4.5594,-4.5594,-4.5541,-4.4861,-4.4612,-4.4519,-4.3758,-4.3515,-4.3515,-4.3515,-4.3515,-4.3515,-4.3515,-4.3515,-4.3515,-4.3515,-4.3515,-4.3515,-4.3515,-4.3515,-4.3515,-4.3515,-4.3515,-4.3515,-4.3515,-4.3515,-4.3515,-4.3515,-4.3515,-4.3515,-4.3515,-4.3515,-4.3515,-4.3515,-4.3515,-4.3515,-4.3515,-4.3515,-4.3515,-4.3515,-4.3515,-4.3515,-4.3515,-4.4232,-4.4691,-4.4728,-4.548,-4.592,-4.592,-4.592,-4.6287,-4.7076,-4.7113,-4.748,-4.8306,-4.7516,-4.7516,-4.8306,-4.8306,-4.8306,-4.8306,-4.8306,-4.8306,-4.8306,-4.8306,-4.8306,-4.8233,-4.7443,-4.759,-4.8233,-4.7406,-4.759,-4.8416,-4.928,-4.904,-4.8453,-5.5703,-5.5703,-5.5703,-5.5703,-5.5703,-5.5703,-5.5703,-5.5703,-5.5703,-5.5703,-5.5703,-5.5703,-5.5703,-5.5472,-5.4741,-5.3318,-5.2972,-5.2202,-5.0789,-5.0481,-4.9817,-4.8702,-4.8086,-4.7355,-4.6547,-4.7086,-4.6778,-4.5594,-4.6201,-4.6201,-4.5594,-4.5594,-4.5594,-4.5594,-4.5594,-4.5594,-4.5594,-4.5594,-4.5594,-4.5594,-4.5594,-4.5448,-4.5201,-4.4776,-4.4414,-4.4102,-4.3644,-4.3515,-4.3515,-4.3515,-4.3515,-4.3515,-4.3515,-4.3515,-4.3515,-4.3515,-4.3515,-4.3515,-4.3515,-4.3515,-4.3644,-4.4195,-4.3901,-4.3662,-4.4195,-4.3901,-4.3515,-4.3515,-4.3515,-4.3515,-4.3515,-4.3515,-4.3515,-4.3515,-4.3515,-4.3681,-4.4268,-4.3864,-4.3718,-4.4268,-4.4342,-4.4562,-4.5112,-4.5406,-4.603,-4.7131,-4.7462,-4.7352,-4.6746,-4.7278,-4.7682,-4.792,-4.792,-4.8086,-4.8306,-4.8086,-4.8086,-4.8306,-4.8306,-4.8306,-4.8306,-4.8306,-4.8306,-4.8306,-4.8306,-4.8306,-4.8269,-4.8049,-4.8067,-4.8269,-4.8049,-4.8086,-4.8416,-4.928,-4.9774,-4.9994,-5.5703,-5.5703,-5.5703,-5.5703,-5.5703,-5.5703,-5.5703,-5.5703,-5.5703,-5.5703,-5.5703,-5.5703,-5.5703,-5.5703,-5.5164,-5.3818,-5.3395,-5.2626,-5.1241,-5.1164,-5.0779,-4.9933,-4.9394,-4.8586,-4.7394,-4.7855,-4.7432,-4.6124,-4.6624,-4.6624,-4.6124,-4.5748,-4.5787,-4.6086,-4.5748,-4.5594,-4.5594,-4.5594,-4.5594,-4.5594,-4.5594,-4.5466,-4.5253,-4.4931,-4.4638,-4.4411,-4.4236,-4.4173,-4.414,-4.4007,-4.3754,-4.3515,-4.3515,-4.3718,-4.3901,-4.3571,-4.3938,-4.4378,-4.4048,-4.4195,-4.4635,-4.5443,-4.4562,-4.3625,-4.4121,-4.4085,-4.3975,-4.3975,-4.4232,-4.4452,-4.4452,-4.4195,-4.4085,-4.4378,-4.4195,-4.4268,-4.5076,-4.4745,-4.4635,-4.5112,-4.5186,-4.5369,-4.5847,-4.6177,-4.6911,-4.8196,-4.8306,-4.8086,-4.759,-4.8049,-4.8306,-4.8306,-4.8306,-4.8306,-4.8306,-4.8306,-4.8306,-4.8306,-4.8306,-4.8306,-4.8306,-4.8306,-4.8306,-4.8306,-4.8306,-4.8306,-4.8306,-4.8306,-4.8306,-4.8306,-4.8306,-4.8306,-4.8416,-4.928,-4.9904,-5.0288,-5.5818,-5.5895,-5.5934,-5.5934,-5.5934,-5.5895,-5.5818,-5.5818,-5.578,-5.5703,-5.5703,-5.5703,-5.5703,-5.5703,-5.5395,-5.4549,-5.3703,-5.2856,-5.2077,-5.2,-5.1702,-5.0981,-5.0866,-5.0048,-4.8471,-4.8355,-4.7894,-4.7,-4.7077,-4.7038,-4.6885,-4.6163,-4.6201,-4.6885,-4.6163,-4.5825,-4.5825,-4.5748,-4.571,-4.571,-4.5633,-4.5577,-4.5532,-4.5298,-4.5181,-4.5194,-4.5273,-4.5323,-4.526,-4.4923,-4.4305,-4.3735,-4.3735,-4.4232,-4.4672,-4.3938,-4.4745,-4.5736,-4.5002,-4.5333,-4.6067,-4.6819,-4.5333,-4.3718,-4.3791,-4.4342,-4.4801,-4.4801,-4.5406,-4.5883,-4.5883,-4.5296,-4.5039,-4.5773,-4.5296,-4.5112,-4.5883,-4.5957,-4.592,-4.5993,-4.5993,-4.5993,-4.5993,-4.6764,-4.7516,-4.8233,-4.8306,-4.8306,-4.8306,-4.8306,-4.8306,-4.8306,-4.8306,-4.8306,-4.8306,-4.8306,-4.8306,-4.8306,-4.8306,-4.8306,-4.8306,-4.8306,-4.8306,-4.8306,-4.8306,-4.8306,-4.8306,-4.8306,-4.8306,-4.8306,-4.8306,-4.8306,-4.8416,-4.928,-4.9647,-4.9831,-5.6714,-5.728,-5.7742,-5.7742,-5.7742,-5.7511,-5.683,-5.6714,-5.6483,-5.578,-5.5703,-5.5703,-5.5703,-5.5703,-5.5395,-5.4549,-5.3703,-5.3126,-5.2933,-5.2933,-5.2856,-5.2664,-5.201,-5.1462,-5.1077,-5.0471,-4.9394,-4.7855,-4.8509,-4.8202,-4.6923,-4.7355,-4.7317,-4.6923,-4.7355,-4.7548,-4.7509,-4.6894,-4.6624,-4.6547,-4.5855,-4.5438,-4.5277,-4.5835,-4.5893,-4.5683,-4.6061,-4.6227,-4.6169,-4.575,-4.5516,-4.5369,-4.5369,-4.548,-4.5626,-4.5443,-4.5626,-4.5847,-4.57,-4.5773,-4.5957,-4.6104,-4.5773,-4.5553,-4.6159,-4.5993,-4.5626,-4.5626,-4.5773,-4.5883,-4.5883,-4.5773,-4.57,-4.5883,-4.5736,-4.592,-4.6709,-4.6324,-4.614,-4.6746,-4.6819,-4.6819,-4.6819,-4.7553,-4.8122,-4.8306,-4.8306,-4.8306,-4.8306,-4.8306,-4.8306,-4.8306,-4.8306,-4.8306,-4.8306,-4.8306,-4.8306,-4.8306,-4.8306,-4.8306,-4.8306,-4.8306,-4.8306,-4.8306,-4.8306,-4.8306,-4.8306,-4.8306,-4.8306,-4.8306,-4.8306,-4.8306,-4.8416,-4.928,-4.9994,-5.0765,-5.7627,-5.7973,-5.8319,-5.8319,-5.8319,-5.8165,-5.7703,-5.7627,-5.7473,-5.7011,-5.6934,-5.678,-5.6368,-5.6329,-5.5972,-5.5164,-5.4664,-5.4241,-5.3857,-5.3818,-5.3626,-5.3241,-5.2769,-5.25,-5.25,-5.2125,-5.0856,-4.8702,-4.9163,-4.8933,-4.8086,-4.8086,-4.8086,-4.8086,-4.8086,-4.8086,-4.8086,-4.7663,-4.7471,-4.7432,-4.6971,-4.6704,-4.6577,-4.7009,-4.6942,-4.6683,-4.7122,-4.7063,-4.6774,-4.6544,-4.6214,-4.5883,-4.5883,-4.6177,-4.6397,-4.5993,-4.6434,-4.6948,-4.6581,-4.6764,-4.7058,-4.7058,-4.7058,-4.6948,-4.6617,-4.6507,-4.6471,-4.6471,-4.6801,-4.7058,-4.7058,-4.6728,-4.6617,-4.6985,-4.6728,-4.6764,-4.7553,-4.7315,-4.7205,-4.7626,-4.7663,-4.7663,-4.7663,-4.803,-4.8306,-4.8306,-4.8306,-4.8306,-4.8306,-4.8306,-4.8306,-4.8306,-4.8306,-4.8306,-4.8306,-4.8306,-4.8526,-4.893,-4.8489,-4.8306,-4.8306,-4.8306,-4.8306,-4.8306,-4.8306,-4.8306,-4.8306,-4.8306,-4.8306,-4.8306,-4.8306,-4.8306,-4.8379,-4.882,-4.9738,-5.0908,-5.8511,-5.8627,-5.8742,-5.8742,-5.8742,-5.8665,-5.855,-5.8511,-5.8473,-5.8319,-5.8319,-5.8011,-5.7291,-5.7099,-5.6714,-5.5972,-5.578,-5.5434,-5.4741,-5.4703,-5.4395,-5.3664,-5.351,-5.3433,-5.3433,-5.328,-5.2164,-5.0048,-4.9894,-4.974,-4.9625,-4.8894,-4.8856,-4.9356,-4.8817,-4.8548,-4.8548,-4.8394,-4.8317,-4.8317,-4.8163,-4.8086,-4.8125,-4.8279,-4.8064,-4.7791,-4.8394,-4.8161,-4.748,-4.7369,-4.6874,-4.6324,-4.6324,-4.6764,-4.7149,-4.6507,-4.7352,-4.8343,-4.7516,-4.7993,-4.871,-4.8563,-4.8636,-4.8379,-4.7021,-4.7021,-4.7296,-4.7296,-4.7846,-4.8306,-4.8306,-4.7736,-4.7516,-4.8196,-4.7736,-4.7553,-4.8233,-4.8306,-4.8379,-4.8489,-4.8636,-4.86,-4.8343,-4.8563,-4.86,-4.8343,-4.8453,-4.8526,-4.8526,-4.8526,-4.86,-4.871,-4.8746,-4.8746,-4.8746,-4.8746,-4.9077,-4.9794,-4.9077,-4.8746,-4.8746,-4.8746,-4.8746,-4.871,-4.86,-4.8526,-4.8526,-4.8379,-4.8306,-4.8306,-4.8306,-4.8306,-4.8343,-4.8489,-4.9481,-5.0794,-5.9358,-5.9935,-6.0473,-6.0473,-6.0473,-6.0204,-5.9435,-5.9358,-5.9088,-5.8396,-5.8319,-5.828,-5.8127,-5.7434,-5.6945,-5.683,-5.6137,-5.5665,-5.5549,-5.5549,-5.5472,-5.5357,-5.4703,-5.4318,-5.4318,-5.3587,-5.3049,-5.2702,-5.1923,-5.1202,-5.0519,-5.0404,-5.001,-4.9433,-5.0048,-5.0366,-5.0289,-4.9548,-4.9202,-4.9163,-4.8394,-4.8086,-4.8202,-4.8933,-4.8956,-4.8793,-4.9944,-4.9894,-4.915,-4.8379,-4.8086,-4.7976,-4.7976,-4.8049,-4.8122,-4.8012,-4.8673,-4.9243,-4.8379,-4.9297,-5.0288,-4.961,-4.9958,-5.0398,-5.0178,-4.9114,-4.8159,-4.8159,-4.8233,-4.8306,-4.8306,-4.8233,-4.8196,-4.8269,-4.8233,-4.8196,-4.8269,-4.8306,-4.86,-4.9353,-5.0031,-4.9884,-4.8453,-4.9627,-4.9848,-4.8416,-4.9003,-4.9427,-4.9427,-4.9427,-4.9738,-5.0435,-5.0472,-5.0472,-5.0472,-5.0472,-5.0508,-5.0655,-5.0508,-5.0472,-5.0472,-5.0472,-5.0472,-5.0435,-4.9738,-4.9427,-4.939,-4.86,-4.8306,-4.8306,-4.8306,-4.8306,-4.8379,-4.915,-4.9994,-5.0721,-6.0242,-6.055,-6.0781,-6.0781,-6.0781,-6.0666,-6.0281,-6.0242,-6.0089,-5.9742,-5.9704,-5.9511,-5.9011,-5.8242,-5.7742,-5.7742,-5.7357,-5.6934,-5.6483,-5.6445,-5.6214,-5.5703,-5.5357,-5.5164,-5.5164,-5.478,-5.4587,-5.4587,-5.328,-5.2433,-5.2087,-5.1587,-5.1164,-5.0779,-5.0741,-5.0712,-5.0712,-5.0779,-5.0818,-5.0818,-5.0894,-5.0971,-5.0952,-5.113,-5.095,-5.0605,-5.0708,-5.0546,-5.0215,-4.9848,-4.9701,-4.9701,-4.9701,-4.9701,-4.9701,-4.9701,-4.9958,-5.0178,-4.9811,-5.0251,-5.0729,-5.0362,-5.0545,-5.0802,-5.0802,-5.0215,-4.9701,-4.9701,-4.9701,-4.9701,-4.9701,-4.9701,-4.9701,-4.9701,-4.9701,-4.9701,-4.9701,-4.9297,-4.915,-4.9537,-5.0288,-5.0508,-4.9774,-5.0362,-5.0508,-4.9738,-5.0031,-5.0251,-5.0251,-5.0251,-5.0435,-5.0802,-5.0802,-5.0802,-5.0802,-5.0802,-5.1022,-5.1463,-5.1463,-5.1242,-5.0802,-5.0802,-5.0802,-5.0765,-4.9958,-4.961,-4.9537,-4.8673,-4.8306,-4.8306,-4.8306,-4.8306,-4.8453,-4.9774,-5.0508,-5.0717]},{"header":{"parameterUnit":"m.s-1","parameterCategory":1,"la1":30.6,"la2":28.766,"lo1":-90.7593,"lo2":-88.6598,"dy":0.0162,"dx":0.0183,"nx":116,"ny":114,"refTime":"2024-02-20T06:00:00:Z","depth":0,"parameterNumber":3,"parameterNumberName":"V-component_of_WINDS"},"data":[0.0,0.0,0.0,0.0,0.0,0.0,0.0,0.0,0.0,0.0,0.0,0.0,0.0,0.0,0.0,0.0,0.0,0.0,0.0,0.0,0.0,0.0,0.0,0.0,0.0,0.0,0.0,0.0,0.0,0.0,0.0,0.0,0.0,0.0,0.0,0.0,0.0,0.0,0.0,0.0,0.0,0.0,0.0,0.0,0.0,0.0,0.0,0.0,0.0,0.0,0.0,0.0,0.0,0.0,0.0,0.0,0.0,0.0,0.0,0.0,0.0,0.0,0.0,0.0,0.0,0.0,0.0,0.0,0.0,0.0,0.0,0.0,0.0,0.0,0.0,0.0,0.0,0.0,0.0,0.0,0.0,0.0,0.0,0.0,0.0,0.0,0.0,0.0,0.0,0.0,0.0,0.0,0.0,0.0,0.0,0.0,0.0,0.0,0.0,0.0,0.0,0.0,0.0,0.0,0.0,0.0,0.0,0.0,0.0,0.0,0.0,0.0,0.0,0.0,0.0,0.0,0.0,0.0,0.0,0.0,0.0,0.0,0.0,0.0,0.0,0.0,0.0,0.0,0.0,0.0,0.0,0.0,0.0,0.0,0.0,0.0,0.0,0.0,0.0,0.0,0.0,0.0,0.0,0.0,0.0,0.0,0.0,0.0,0.0,0.0,0.0,0.0,0.0,0.0,0.0,0.0,0.0,0.0,0.0,0.0,0.0,0.0,0.0,0.0,0.0,0.0,0.0,0.0,0.0,0.0,0.0,0.0,0.0,0.0,0.0,0.0,0.0,0.0,0.0,0.0,0.0,0.0,0.0,0.0,0.0,0.0,0.0,0.0,0.0,0.0,0.0,0.0,0.0,0.0,0.0,0.0,0.0,0.0,0.0,0.0,0.0,0.0,0.0,0.0,0.0,0.0,0.0,0.0,0.0,0.0,0.0,0.0,0.0,0.0,0.0,0.0,0.0,0.0,0.0,0.0,0.0,0.0,0.0,0.0,0.0,0.0,0.0,0.0,0.0,0.0,0.0,0.0,0.0,0.0,0.0,0.0,0.0,0.0,0.0,0.0,0.0,0.0,0.0,0.0,0.0,0.0,0.0,0.0,0.0,0.0,0.0,0.0,0.0,0.0,0.0,0.0,0.0,0.0,0.0,0.0,0.0,0.0,0.0,0.0,0.0,0.0,0.0,0.0,0.0,0.0,0.0,0.0,0.0,0.0,0.0,0.0,0.0,0.0,0.0,0.0,0.0,0.0,0.0,0.0,0.0,0.0,0.0,0.0,0.0,0.0,0.0,0.0,0.0,0.0,0.0,0.0,0.0,0.0,0.0,0.0,0.0,0.0,0.0,0.0,0.0,0.0,0.0,0.0,0.0,0.0,0.0,0.0,0.0,0.0,0.0,0.0,0.0,0.0,0.0,0.0,0.0,0.0,0.0,0.0,0.0,0.0,0.0,0.0,0.0,0.0,0.0,0.0,0.0,0.0,0.0,0.0,0.0,0.0,0.0,0.0,0.0,0.0,0.0,0.0,0.0,0.0,0.0,0.0,0.0,0.0,0.0,0.0,0.0,0.0,0.0,0.0,0.0,0.0,0.0,0.0,0.0,0.0,0.0,0.0,0.0,0.0,0.0,0.0,0.0,0.0,0.0,0.0,0.0,0.0,0.0,0.0,0.0,0.0,0.0,0.0,0.0,0.0,0.0,0.0,0.0,0.0,0.0,0.0,0.0,0.0,0.0,0.0,0.0,0.0,0.0,0.0,0.0,0.0,0.0,0.0,0.0,0.0,0.0,0.0,0.0,0.0,0.0,0.0,0.0,0.0,0.0,0.0,0.0,0.0,0.0,0.0,0.0,0.0,0.0,0.0,0.0,0.0,0.0,0.0,0.0,0.0,0.0,0.0,0.0,0.0,0.0,0.0,0.0,0.0,0.0,0.0,0.0,0.0,0.0,0.0,0.0,0.0,0.0,0.0,0.0,0.0,0.0,0.0,0.0,0.0,0.0,0.0,0.0,0.0,0.0,0.0,0.0,0.0,0.0,0.0,0.0,0.0,0.0,0.0,0.0,0.0,0.0,0.0,0.0,0.0,0.0,0.0,0.0,0.0,0.0,0.0,0.0,0.0,0.0,0.0,0.0,0.0,0.0,0.0,0.0,0.0,0.0,0.0,0.0,0.0,0.0,0.0,0.0,0.0,0.0,0.0,0.0,0.0,0.0,0.0,0.0,0.0,0.0,0.0,0.0,0.0,0.0,0.0,0.0,0.0,0.0,0.0,0.0,0.0,0.0,0.0,0.0,0.0,0.0,0.0,0.0,0.0,0.0,0.0,0.0,0.0,0.0,0.0,0.0,0.0,0.0,0.0,0.0,0.0,0.0,0.0,0.0,0.0,0.0,0.0,0.0,0.0,0.0,0.0,0.0,0.0,0.0,0.0,0.0,0.0,0.0,0.0,0.0,0.0,0.0,0.0,0.0,0.0,0.0,0.0,0.0,0.0,0.0,0.0,0.0,0.0,0.0,0.0,0.0,0.0,0.0,0.0,0.0,0.0,0.0,0.0,0.0,0.0,0.0,0.0,0.0,0.0,0.0,0.0,0.0,0.0,0.0,0.0,0.0,0.0,0.0,0.0,0.0,0.0,0.0,0.0,0.0,0.0,0.0,0.0,0.0,0.0,0.0,0.0,0.0,0.0,0.0,0.0,0.0,0.0,0.0,0.0,0.0,0.0,0.0,0.0,0.0,0.0,0.0,0.0,0.0,0.0,0.0,0.0,0.0,0.0,0.0,0.0,0.0,0.0,0.0,0.0,0.0,0.0,0.0,0.0,0.0,0.0,0.0,0.0,0.0,0.0,0.0,0.0,0.0,0.0,0.0,0.0,0.0,0.0,0.0,0.0,0.0,0.0,0.0,0.0,0.0,0.0,0.0,0.0,0.0,0.0,0.0,0.0,0.0,0.0,0.0,0.0,0.0,0.0,0.0,0.0,0.0,0.0,0.0,0.0,0.0,0.0,0.0,0.0,0.0,0.0,0.0,0.0,0.0,0.0,0.0,0.0,0.0,0.0,0.0,0.0,0.0,0.0,0.0,0.0,0.0,0.0,0.0,0.0,0.0,0.0,0.0,0.0,0.0,0.0,0.0,0.0,0.0,0.0,0.0,0.0,0.0,0.0,0.0,0.0,0.0,0.0,0.0,0.0,0.0,0.0,0.0,0.0,0.0,0.0,0.0,0.0,0.0,0.0,0.0,0.0,0.0,0.0,0.0,0.0,0.0,0.0,0.0,0.0,0.0,0.0,0.0,0.0,0.0,0.0,0.0,0.0,0.0,0.0,0.0,0.0,0.0,0.0,0.0,0.0,0.0,0.0,0.0,0.0,0.0,0.0,0.0,0.0,0.0,0.0,0.0,0.0,0.0,0.0,0.0,0.0,0.0,0.0,0.0,0.0,0.0,0.0,0.0,0.0,0.0,0.0,0.0,0.0,0.0,0.0,0.0,0.0,0.0,0.0,0.0,0.0,0.0,0.0,0.0,0.0,0.0,0.0,0.0,0.0,0.0,0.0,0.0,0.0,0.0,0.0,0.0,0.0,0.0,0.0,0.0,0.0,0.0,0.0,0.0,0.0,0.0,0.0,0.0,0.0,0.0,0.0,0.0,0.0,0.0,0.0,0.0,0.0,0.0,0.0,0.0,0.0,0.0,0.0,0.0,0.0,0.0,0.0,0.0,0.0,0.0,0.0,0.0,0.0,0.0,0.0,0.0,0.0,0.0,0.0,0.0,0.0,0.0,0.0,0.0,0.0,0.0,0.0,0.0,0.0,0.0,0.0,0.0,0.0,0.0,0.0,0.0,0.0,0.0,0.0,0.0,0.0,0.0,0.0,0.0,0.0,0.0,0.0,0.0,0.0,0.0,0.0,0.0,0.0,0.0,0.0,0.0,0.0,0.0,0.0,0.0,0.0,0.0,0.0,0.0,0.0,0.0,0.0,0.0,0.0,0.0,0.0,0.0,0.0,0.0,0.0,0.0,0.0,0.0,0.0,0.0,0.0,0.0,0.0,0.0,0.0,0.0,0.0,0.0,0.0,0.0,0.0,0.0,0.0,0.0,0.0,0.0,0.0,0.0,0.0,0.0,0.0,0.0,0.0,0.0,0.0,0.0,0.0,0.0,0.0,0.0,0.0,0.0,0.0,0.0,0.0,0.0,0.0,0.0,0.0,0.0,0.0,0.0,0.0,0.0,0.0,0.0,0.0,0.0,0.0,0.0,0.0,0.0,0.0,0.0,0.0,0.0,0.0,0.0,0.0,0.0,0.0,0.0,0.0,0.0,0.0,0.0,0.0,0.0,0.0,0.0,0.0,0.0,0.0,0.0,0.0,0.0,0.0,0.0,0.0,0.0,0.0,0.0,0.0,0.0,0.0,0.0,0.0,0.0,0.0,0.0,0.0,0.0,0.0,0.0,0.0,0.0,0.0,0.0,0.0,0.0,0.0,0.0,0.0,0.0,0.0,0.0,0.0,0.0,0.0,0.0,0.0,0.0,0.0,0.0,0.0,0.0,0.0,0.0,0.0,0.0,0.0,0.0,0.0,0.0,0.0,0.0,0.0,0.0,0.0,0.0,0.0,0.0,0.0,0.0,0.0,0.0,0.0,0.0,0.0,0.0,0.0,0.0,0.0,0.0,0.0,0.0,0.0,0.0,0.0,0.0,0.0,0.0,0.0,0.0,0.0,0.0,0.0,0.0,0.0,0.0,0.0,0.0,0.0,0.0,0.0,0.0,0.0,0.0,0.0,0.0,0.0,0.0,0.0,0.0,0.0,0.0,0.0,0.0,0.0,0.0,0.0,0.0,0.0,0.0,0.0,0.0,0.0,0.0,0.0,0.0,0.0,0.0,0.0,0.0,0.0,0.0,0.0,0.0,0.0,0.0,0.0,0.0,0.0,0.0,0.0,0.0,0.0,0.0,0.0,0.0,0.0,0.0,0.0,0.0,0.0,0.0,0.0,0.0,0.0,0.0,0.0,0.0,0.0,0.0,0.0,0.0,0.0,0.0,0.0,0.0,0.0,0.0,0.0,0.0,0.0,0.0,0.0,0.0,0.0,0.0,0.0,0.0,0.0,0.0,0.0,0.0,0.0,0.0,0.0,0.0,0.0,0.0,0.0,0.0,0.0,0.0,0.0,0.0,0.0,0.0,0.0,0.0,0.0,0.0,0.0,0.0,0.0,0.0,0.0,0.0,0.0,0.0,0.0,0.0,0.0,0.0,0.0,0.0,0.0,0.0,0.0,0.0,0.0,0.0,0.0,0.0,0.0,0.0,0.0,0.0,0.0,0.0,0.0,0.0,0.0,0.0,0.0,0.0,0.0,0.0,0.0,0.0,0.0,0.0,0.0,0.0,0.0,0.0,0.0,0.0,0.0,0.0,0.0,0.0,0.0,0.0,0.0,0.0,0.0,0.0,0.0,0.0,0.0,0.0,0.0,0.0,0.0,0.0,0.0,0.0,0.0,0.0,0.0,0.0,0.0,0.0,0.0,0.0,0.0,0.0,0.0,0.0,0.0,0.0,0.0,0.0,0.0,0.0,0.0,0.0,0.0,0.0,0.0,0.0,0.0,0.0,0.0,0.0,0.0,0.0,0.0,0.0,0.0,0.0,0.0,0.0,0.0,0.0,0.0,0.0,0.0,0.0,0.0,0.0,0.0,0.0,0.0,0.0,0.0,0.0,0.0,0.0,0.0,0.0,0.0,0.0,0.0,0.0,0.0,0.0,0.0,0.0,0.0,0.0,0.0,0.0,0.0,0.0,0.0,0.0,0.0,0.0,0.0,0.0,0.0,0.0,0.0,0.0,0.0,0.0,0.0,0.0,0.0,0.0,0.0,0.0,0.0,0.0,0.0,0.0,0.0,0.0,0.0,0.0,0.0,0.0,0.0,0.0,0.0,0.0,0.0,0.0,0.0,0.0,0.0,0.0,0.0,0.0,0.0,0.0,0.0,0.0,0.0,0.0,0.0,0.0,0.0,0.0,0.0,0.0,0.0,0.0,0.0,0.0,0.0,0.0,0.0,0.0,0.0,0.0,0.0,0.0,0.0,0.0,0.0,0.0,0.0,0.0,0.0,0.5949,0.5718,0.0,0.0,0.0,0.0,0.0,0.0,0.0,0.0,0.0,0.0,0.0,0.0,0.0,0.0,0.0,0.0,0.0,0.0,0.0,0.0,0.0,0.0,0.0,0.0,0.0,0.0,0.7098,0.7098,0.7098,0.7098,0.0,0.0,0.0,0.0,0.7258,0.6736,0.6431,0.645,0.4579,0.4179,0.5174,0.5124,0.5951,0.7597,0.0,0.0,0.0,0.0,0.0,0.0,0.0,0.0,0.0,0.0,0.0,0.0,0.0,0.0,0.0,0.0,0.0,0.0,0.0,0.0,0.0,0.0,0.0,0.0,0.0,0.0,0.0,0.0,0.0,0.0,0.0,0.0,0.0,0.0,0.0,0.0,0.0,0.0,0.0,0.0,0.0,0.0,0.0,0.0,0.0,0.0,0.0,0.0,0.0,0.0,0.0,0.0,0.0,0.0,0.0,0.0,0.0,0.0,0.0,0.0,0.0,0.0,0.0,0.0,0.0,0.0,0.0,0.0,0.0,0.0,0.6444,0.6084,0.0,0.0,0.0,0.0,0.0,0.0,0.0,0.0,0.0,0.0,0.0,0.0,0.0,0.0,0.0,0.0,0.0,0.0,0.0,0.0,0.0,0.0,0.0,0.6428,0.7098,0.7098,0.7098,0.7098,0.7098,0.7098,0.7105,0.7132,0.7139,0.7057,0.6853,0.5917,0.533,0.5104,0.3268,0.3184,0.4782,0.5051,0.6196,0.0,0.0,0.0,0.0,0.0,0.0,0.0,0.0,0.0,0.0,0.0,0.0,0.0,0.0,0.0,0.0,0.0,0.0,0.0,0.0,0.0,0.0,0.0,0.0,0.0,0.0,0.0,0.0,0.0,0.0,0.0,0.0,0.0,0.0,0.0,0.0,0.0,0.0,0.0,0.0,0.0,0.0,0.0,0.0,0.0,0.0,0.0,0.0,0.0,0.0,0.0,0.0,0.0,0.0,0.0,0.0,0.0,0.0,0.0,0.0,0.0,0.0,0.0,0.0,0.0,0.7862,0.7997,0.8235,0.8157,0.814,0.7997,0.7177,0.6736,0.6525,0.6422,0.0,0.0,0.0,0.0,0.0,0.0,0.0,0.0,0.0,0.0,0.0,0.0,0.0,0.0,0.0,0.0,0.0,0.0,0.0,0.0,0.0,0.6428,0.7098,0.7098,0.7098,0.7098,0.7098,0.7098,0.7159,0.7333,0.7339,0.689,0.5831,0.566,0.5056,0.3992,0.4457,0.4782,0.5079,0.6907,0.8584,0.9876,0.8723,0.0,0.0,0.0,0.0,0.0,0.0,0.0,0.0,0.0,0.0,0.0,0.0,0.0,0.0,0.0,0.0,0.0,0.0,0.0,0.0,0.0,0.0,0.0,0.0,0.0,0.0,0.0,0.0,0.0,0.0,0.0,0.0,0.0,0.0,0.0,0.0,0.0,0.0,0.0,0.0,0.0,0.0,0.0,0.5912,0.582,0.0,0.0,0.0,0.0,0.0,0.0,0.0,0.0,0.0,0.0,0.0,0.0,0.0,0.7794,0.8108,0.8357,0.8587,0.871,0.8886,0.9023,0.9057,0.8879,0.8879,0.9002,0.8438,0.0,0.738,0.6858,0.0,0.0,0.0,0.0,0.0,0.0,0.0,0.0,0.0,0.0,0.0,0.0,0.0,0.0,0.0,0.0,0.0,0.0,0.0,0.0,0.0,0.7164,0.7244,0.6353,0.6481,0.6205,0.5184,0.5762,0.6182,0.6268,0.629,0.6031,0.5501,0.4152,0.3466,0.3431,0.3858,0.5215,0.7403,0.8226,0.9505,1.0995,1.0059,0.9395,0.892,0.8343,0.0,0.0,0.0,0.0,0.0,0.0,0.0,0.0,0.0,0.0,0.0,0.0,0.0,0.0,0.0,0.0,0.0,0.0,0.0,0.0,0.0,0.0,0.0,0.0,0.0,0.0,0.0,0.0,0.0,0.0,0.0,0.0,0.0,0.0,0.0,0.0,0.0,0.0,0.0,0.7381,0.7073,0.6283,0.6566,0.6661,0.0,0.0,0.0,0.0,0.0,0.0,0.0,0.0,0.0,0.7591,0.8085,0.8384,0.852,0.8893,0.9205,0.9435,0.9415,0.9496,0.9652,0.9503,0.9469,0.951,0.9144,0.8791,0.8418,0.7733,0.7247,0.697,0.0,0.0,0.0,0.0,0.6254,0.6207,0.0,0.0,0.0,0.0,0.0,0.0,0.0,0.0,0.0,0.0,0.0,0.0,0.6813,0.7179,0.6783,0.5239,0.541,0.5184,0.4271,0.4942,0.5564,0.6014,0.5628,0.5245,0.4963,0.2587,0.1653,0.2334,0.3517,0.5614,0.8444,0.949,1.0645,1.1877,1.1355,1.0582,0.9685,0.8981,0.8459,0.0,0.0,0.0,0.0,0.0,0.0,0.0,0.0,0.0,0.0,0.0,0.0,0.0,0.0,0.0,0.0,0.0,0.0,0.0,0.0,0.0,0.0,0.0,0.0,0.0,0.0,0.0,0.0,0.0,0.0,0.0,0.0,0.0,0.0,0.0,0.0,0.0,0.0,0.7813,0.7628,0.6577,0.6892,0.7034,0.0,0.0,0.0,0.0,0.0,0.0,0.7794,0.7862,0.8038,0.837,0.8777,0.9015,0.9049,0.9422,0.972,0.9937,0.9829,0.9897,1.0038,0.9951,0.9876,0.9863,0.9605,0.9388,0.9214,0.8404,0.7834,0.7421,0.726,0.7122,0.6926,0.6885,0.6776,0.6675,0.0,0.0,0.0,0.0,0.0,0.0,0.0,0.0,0.0,0.0,0.0,0.682,0.5652,0.5623,0.5157,0.3828,0.3696,0.4334,0.5764,0.5583,0.6101,0.7629,0.6219,0.4867,0.3691,0.1341,0.012,0.0134,0.4299,0.6341,0.6503,1.0768,1.2727,1.2664,1.2352,1.1782,1.0989,0.9829,0.932,0.9205,0.0,0.0,0.0,0.0,0.0,0.0,0.0,0.0,0.0,0.0,0.0,0.0,0.0,0.0,0.0,0.0,0.0,0.0,0.0,0.0,0.0,0.0,0.0,0.0,0.0,0.0,0.0,0.0,0.0,0.0,0.0,0.0,0.0,0.0,0.0,0.0,0.0,0.0,0.0,0.6361,0.7285,0.0,0.0,0.0,0.0,0.7543,0.7678,0.7957,0.8411,0.8574,0.8859,0.93,0.9605,0.9836,0.9916,1.0154,1.0243,1.0256,1.0249,1.0256,1.0263,1.0107,0.9977,0.9963,0.9869,0.9639,0.9313,0.8567,0.8292,0.8174,0.774,0.757,0.7536,0.7394,0.7238,0.7065,0.0,0.0,0.0,0.0,0.0,0.0,0.0,0.0,0.4441,0.677,0.7611,0.7357,0.5696,0.625,0.6247,0.4986,0.4832,0.5143,0.6106,0.6048,0.5868,0.5681,0.4779,0.3315,0.1344,0.0418,0.0655,0.1981,0.5138,0.7323,0.8593,1.1714,1.3119,1.3146,1.2752,1.2427,1.2081,1.0683,0.9707,0.9049,0.8472,0.795,0.0,0.0,0.0,0.0,0.0,0.0,0.0,0.0,0.0,0.0,0.0,0.0,0.0,0.0,0.0,0.0,0.0,0.0,0.0,0.0,0.0,0.0,0.0,0.0,0.0,0.0,0.0,0.0,0.0,0.0,0.0,0.0,0.0,0.0,0.0,0.0,0.0,0.9322,1.0861,0.0,1.1106,1.0337,0.9853,0.9874,0.9019,0.8771,0.9313,0.9395,0.9591,0.9951,1.0148,1.0276,1.0331,1.0392,1.0419,1.0412,1.0222,1.0134,1.0127,0.9971,0.9849,0.9761,0.9707,0.951,0.9268,0.9002,0.8723,0.852,0.8167,0.8031,0.8024,0.8019,0.7855,0.7685,0.0,0.0,0.0,0.0,0.0,0.0,0.0,0.0,0.445,0.6807,0.7889,0.7882,0.6373,0.7185,0.7344,0.6121,0.5816,0.6001,0.6804,0.6105,0.5558,0.5164,0.3786,0.2047,0.0059,0.0,0.1053,0.3227,0.5551,0.7762,0.9871,1.215,1.3275,1.3308,1.2963,1.2779,1.2657,1.1504,1.0446,0.949,0.8933,0.8472,0.8088,0.0,0.0,0.0,0.0,0.0,0.0,0.0,0.0,0.0,0.0,0.0,0.0,0.0,0.0,0.0,0.0,0.0,0.0,0.0,0.0,0.0,0.0,0.0,0.0,0.0,0.0,0.0,0.0,0.0,0.0,0.0,0.0,0.0,0.0,1.0859,1.1609,1.1846,1.3375,1.4275,1.3836,1.2913,1.2118,1.1556,1.0689,1.0105,1.0019,1.0046,1.0412,1.1313,1.0839,1.0802,1.1386,1.0811,1.0439,1.0337,1.0078,0.9963,0.9909,0.9869,0.9768,0.968,0.9632,0.9496,0.9357,0.9255,0.9091,0.8838,0.8594,0.8465,0.8411,0.8364,0.8248,0.8126,0.0,0.0,0.0,0.0,0.0,0.0,0.0,0.3531,0.4446,0.6725,0.8029,0.8395,0.7443,0.8193,0.8232,0.7066,0.664,0.6895,0.8054,0.586,0.5107,0.6313,0.3379,0.0,0.0,0.0,0.1116,0.3432,0.5625,0.7745,0.9886,1.2249,1.3322,1.3173,1.303,1.2881,1.2712,1.2264,1.1565,1.067,0.9625,0.9241,0.9273,0.0,0.0,0.0,0.0,0.0,0.0,0.0,0.0,0.0,0.0,0.0,0.0,0.0,0.0,0.0,0.0,0.0,0.0,0.0,0.0,0.0,0.0,0.0,0.0,0.0,0.0,0.0,0.0,0.0,0.0,0.0,0.0,0.0,1.2499,1.1974,1.2018,1.3646,1.4643,1.5009,1.4666,1.4795,1.428,1.2697,1.2647,1.2112,1.0739,1.0688,1.1467,1.3251,1.163,1.149,1.2981,1.1322,1.0344,0.9997,0.999,0.9909,0.9822,0.9822,0.9822,0.9808,0.9673,0.9605,0.9571,0.933,0.9207,0.9187,0.8994,0.8845,0.8703,0.8554,0.8404,0.8255,0.0,0.0,0.0,0.0,0.0,0.0,0.0,0.4512,0.4908,0.5575,0.7896,0.8573,0.6215,0.7946,0.9346,0.9357,0.8475,0.8568,1.0201,0.7747,0.5285,0.3171,0.0,0.0,0.0,0.0,0.1169,0.3559,0.5657,0.7869,1.0205,1.2337,1.3376,1.3336,1.318,1.303,1.2874,1.2528,1.2115,1.1613,1.067,1.0689,1.1199,0.0,0.0,0.0,0.0,0.0,0.0,0.0,0.0,0.0,0.0,0.0,0.0,0.0,0.0,0.0,0.0,0.0,0.0,0.0,0.0,0.0,0.0,0.0,0.0,0.0,0.0,0.0,0.0,0.0,0.0,0.0,1.081,1.1001,1.3032,1.3446,1.4378,1.6599,1.8386,1.9309,1.9,1.8103,1.7241,1.656,1.5582,1.4804,1.4466,1.441,1.4038,1.3325,1.2873,1.2192,1.1373,1.0802,1.0399,1.0215,1.0038,0.9909,0.9822,0.9822,0.9768,0.9666,0.9625,0.9483,0.933,0.9248,0.9089,0.8994,0.8898,0.8858,0.8817,0.8825,0.8648,0.8384,0.0,0.0,0.0,0.0,0.0,0.0,0.0,0.4884,0.5097,0.5113,0.7095,0.7744,0.567,0.7924,0.9597,0.9921,0.9666,0.9824,1.0577,0.7529,0.0,0.0,0.0,0.0,0.0,0.1011,0.2586,0.4863,0.7154,0.9366,1.1669,1.2849,1.3403,1.3397,1.3241,1.3125,1.303,1.2793,1.2596,1.2386,1.1796,1.2081,1.2909,1.2812,1.4061,1.5797,1.5739,1.6433,1.7192,1.5973,0.0,0.0,0.0,0.0,0.0,0.0,0.0,0.0,0.0,0.0,0.0,0.0,0.0,0.0,0.0,0.0,0.0,0.0,0.0,0.0,0.0,0.0,0.0,0.0,1.2826,1.3287,1.5943,1.6045,1.6634,1.8913,2.0315,2.1042,2.0869,2.0106,1.9218,1.8364,1.746,1.6689,1.5913,1.5913,1.5784,1.5459,1.4744,1.4252,1.3911,1.2956,1.2463,1.2291,1.2041,1.1902,1.1796,1.1796,1.1387,1.0696,1.0561,1.0048,0.9296,0.9117,0.9015,0.8885,0.0,0.0,0.0,0.0,0.8554,0.8269,0.0,0.0,0.0,0.0,0.0,0.0,0.0,0.4981,0.5167,0.4931,0.5918,0.6369,0.5474,0.7777,0.9341,0.9359,1.0311,1.0359,0.9268,0.0,0.0,0.0125,0.0,0.0145,0.0389,0.2519,0.475,0.7147,0.9239,1.1351,1.3424,1.341,1.3403,1.3397,1.3261,1.32,1.3186,1.3044,1.2983,1.2969,1.28,1.3484,1.4614,1.4785,1.6207,1.8045,1.8233,1.8183,1.7836,1.6887,0.0,0.0,0.0,0.0,0.0,0.0,0.0,0.0,0.0,0.0,0.0,0.0,0.0,0.0,0.0,0.0,0.0,0.0,0.0,0.0,0.0,0.0,0.0,0.0,1.5563,1.6241,1.952,1.8968,1.8824,2.0531,2.0949,2.1109,2.1109,2.1109,2.0462,1.8896,1.8768,1.8116,1.656,1.6496,0.0,0.0,0.0,1.6786,1.8034,1.6211,1.5237,1.5024,1.4741,1.4629,1.4599,1.4599,1.3825,1.2431,1.202,1.1001,0.9643,0.9132,0.8898,0.8885,0.8885,0.8885,0.8851,0.8615,0.833,0.8035,0.0,0.0,0.0,0.0,0.0,0.0,0.0,0.5951,0.5585,0.3741,0.5367,0.5979,0.4215,0.6983,0.9139,0.9386,0.9999,0.906,0.0,0.0,0.2779,0.0136,0.0,0.0942,0.2888,0.3391,0.5667,0.9797,1.0163,1.1396,1.358,1.3458,1.3403,1.3397,1.337,1.3356,1.3349,1.3193,1.3132,1.3112,1.284,1.4365,1.687,1.6816,1.8284,2.0417,2.0225,2.0281,2.0227,1.8865,1.8691,1.8744,1.7139,0.0,0.0,0.0,0.0,0.0,0.0,0.0,0.0,0.0,0.0,0.0,0.0,0.0,0.0,0.0,0.0,0.0,0.0,0.0,0.0,1.5184,1.6263,1.7289,1.847,1.9712,2.0569,2.1015,2.1082,2.1109,2.1109,2.1109,2.0982,2.0589,2.0589,2.0449,2.0132,2.0068,1.961,1.8512,1.818,1.7451,1.6368,1.5757,1.5408,1.5247,1.4902,0.0,1.4599,1.4599,1.4421,1.4054,1.256,1.1745,1.1191,0.9745,0.9042,0.8885,0.8885,0.8885,0.8858,0.873,0.8554,0.8377,0.0,0.0,0.0,0.0,0.0,0.0,0.0,0.6179,0.5906,0.4222,0.4595,0.4398,0.287,0.4976,0.6636,0.6814,0.8398,0.7938,0.0,0.4153,0.2879,0.0149,0.1185,0.2393,0.358,0.5972,0.8239,1.0385,1.1498,1.2549,1.3512,1.3437,1.3403,1.3403,1.3403,1.3403,1.3397,1.3322,1.3288,1.3275,1.3125,1.4607,1.6766,1.635,1.813,2.0767,2.0219,2.0593,2.1136,1.98,1.9466,1.9319,1.7889,1.6817,1.5879,0.0,0.0,0.0,0.0,0.0,0.0,0.0,0.0,0.0,0.0,0.0,0.0,0.0,0.0,1.3908,1.479,0.0,1.5833,1.6896,1.8058,1.899,1.9625,2.0498,2.1109,2.1109,2.1109,2.1109,2.1109,2.1109,2.1109,2.1109,2.1109,2.1109,2.1109,2.1109,2.0716,1.9801,1.9801,1.9294,1.8312,1.8003,1.7746,1.7549,1.7219,1.7103,1.6985,1.6985,1.6562,1.5773,1.4755,1.3442,1.1777,0.9924,0.9069,0.8885,0.8885,0.8838,0.8818,0.8737,0.8567,0.8364,0.0,0.0,0.0,0.0,0.0,0.0,0.0,0.6132,0.6012,0.4981,0.4117,0.3207,0.214,0.3503,0.4543,0.487,0.7193,0.0,0.0,0.4133,0.3029,0.0161,0.2333,0.3849,0.427,0.8515,1.083,1.105,1.2962,1.3736,1.3444,1.3444,1.3431,1.3403,1.3403,1.3417,1.3444,1.341,1.3437,1.3478,1.339,1.4273,1.5626,1.53,1.7417,2.0563,2.0164,2.0542,2.1145,2.0187,1.9586,1.9038,1.813,1.7528,1.6884,1.5244,1.475,0.0,0.0,0.0,0.0,0.0,0.0,0.0,0.0,1.3106,1.3547,1.3946,1.4492,1.519,1.6019,1.7048,1.8036,1.8878,1.9693,2.0401,2.0869,2.0989,2.0989,2.0869,2.1002,2.1082,2.1029,2.1082,2.1109,2.1109,2.1109,2.1109,2.1109,2.1109,2.1109,2.1109,2.1109,2.0962,2.0681,2.0374,2.0094,1.98,1.9506,1.943,1.943,1.943,1.8706,1.743,1.6863,1.4991,1.2194,1.0357,0.9482,0.932,0.8995,0.9023,0.9129,0.8858,0.8567,0.8361,0.0,0.0,0.0,0.0,0.0,0.0,0.0,0.0,0.5732,0.4851,0.4612,0.4122,0.3077,0.4358,0.5826,0.7291,0.0,0.0,0.4187,0.453,0.3358,0.0167,0.2328,0.458,0.6678,0.9353,1.1698,1.3667,1.3947,1.3892,1.36,1.36,1.3532,1.3403,1.3403,1.3478,1.3593,1.3458,1.3553,1.3756,1.3356,1.3432,1.3795,1.4875,1.7565,2.0941,2.1777,2.1171,2.0013,2.0147,1.9479,1.8611,1.8731,1.8023,1.7005,1.5965,0.0,1.3641,1.2971,1.2422,1.2167,1.2623,1.2583,1.2732,0.0,1.4322,1.4559,1.5371,1.6046,1.6647,1.7275,1.7929,1.8597,1.9212,1.9826,2.0193,2.0321,2.0561,2.0535,2.0013,2.0641,2.1002,2.0748,2.0962,2.1109,2.1109,2.1109,2.1109,2.1109,2.1109,2.1109,2.1109,2.1109,2.0962,2.0681,2.0374,2.0094,1.98,1.9506,1.943,1.943,1.943,1.9301,1.9029,1.7138,1.5321,1.3534,1.1675,1.0852,1.0726,0.943,0.9684,1.0694,0.9347,0.8723,0.8459,0.0,0.0,0.0,0.0,0.0,0.0,0.0,0.0,0.0,0.5649,0.509,0.4561,0.4185,0.4736,0.565,0.0,0.0,0.0,0.397,0.574,0.5476,0.2197,0.5676,0.8179,0.9197,1.1522,1.3243,1.4075,0.0,0.0,0.0,0.0,0.0,0.0,0.0,0.0,0.0,0.0,0.0,0.0,0.0,0.0,1.332,1.4597,1.6203,1.7871,1.8983,1.9343,0.0,0.0,1.8223,1.8009,1.8262,1.7716,1.6714,1.5832,1.4776,0.0,1.2998,1.2744,1.2705,1.2959,1.3481,1.4015,1.4643,1.5177,1.5738,1.6446,1.7061,1.7649,1.825,1.8851,1.9332,1.9586,1.996,2.0167,2.0167,2.0054,1.976,1.9345,1.9466,1.9733,2.0134,2.0428,2.0668,2.0842,2.0855,2.0935,2.1096,2.0949,2.0855,2.0855,2.0695,2.0454,2.0174,2.004,1.984,1.9546,1.9426,1.943,1.943,1.943,1.943,1.9287,1.7273,1.5988,1.5142,1.3256,1.1918,1.1055,1.0406,1.0562,1.0945,0.9423,0.9277,0.9675,0.0,0.0,0.0,0.0,0.0,0.0,0.0,0.0,0.0,0.0,0.5518,0.5116,0.5203,0.5246,0.5636,0.0,0.0,0.0,0.0,0.6621,0.6891,0.4334,0.8305,0.0,1.0666,1.3022,0.0,0.0,0.0,0.0,0.0,0.0,0.0,0.0,0.0,0.0,0.0,0.0,0.0,0.0,0.0,0.0,1.2989,1.4146,1.474,1.5111,1.6431,1.7334,0.0,0.0,1.6593,1.658,1.7048,1.67,1.5965,1.5244,1.4402,1.3615,1.2958,1.3012,1.3267,1.3507,1.4335,1.5169,1.533,1.5986,1.671,1.7219,1.7675,1.8183,1.8704,1.9158,1.9466,1.9546,1.98,1.996,1.982,1.9506,1.9078,1.8611,1.837,1.834,1.8485,1.9391,2.012,2.0414,2.0508,2.0641,2.0855,2.0668,2.0548,2.0548,2.0347,2.0094,1.98,1.98,1.9653,1.943,1.943,1.943,1.943,1.943,1.943,1.9287,1.7735,1.6996,1.6733,1.4845,1.3361,1.2236,1.1864,1.1882,1.1999,1.0544,1.0297,1.0491,0.0,0.0,0.0,0.0,0.0,0.0,0.0,0.0,0.0,0.0,0.0,0.0,0.0,0.0,0.0,0.0,0.0,0.0,0.0,0.6823,0.69,0.5798,0.8575,1.0244,1.0457,0.0,0.0,0.0,0.0,0.0,0.0,0.0,0.0,0.0,0.0,0.0,0.0,0.0,0.0,0.0,0.0,0.0,1.263,1.351,1.3707,1.382,1.5478,0.0,0.0,0.0,1.4696,1.3866,1.479,1.4843,0.0,1.4215,1.3534,1.2824,1.2797,1.3012,1.3414,1.4269,1.4937,1.5538,1.6147,1.6737,1.7259,1.7502,1.7822,1.8089,1.845,1.8517,1.8624,1.8905,1.9199,1.9292,1.8998,1.8945,1.8611,1.7729,1.7609,1.7029,1.5507,1.7807,1.9519,1.98,2.0094,2.0193,2.0254,2.0193,2.0254,2.0254,2.0241,2.0094,1.98,1.98,1.9653,1.943,1.943,1.943,1.943,1.943,1.943,1.9332,1.8701,1.8435,1.8271,1.6199,1.5316,1.5144,1.375,1.3933,1.4682,1.3204,1.1859,1.0466,0.0,0.0,0.0,0.0,0.0,0.0,0.0,0.0,0.0,0.0,0.0,0.0,0.0,0.0,0.0,0.0,0.0,0.0,0.0,0.7655,0.853,0.7031,1.0031,1.1752,0.0,0.0,0.0,0.0,0.0,0.0,0.0,0.0,0.0,0.0,0.0,0.0,0.0,0.0,0.0,0.0,0.0,0.0,1.1295,1.1076,1.1054,1.1265,0.0,0.0,0.0,0.0,0.0,1.2839,1.3373,1.3333,1.2946,1.2465,1.2385,1.2545,1.2946,1.3561,1.4295,1.5118,1.5832,1.6366,1.6817,1.7058,1.7286,1.7515,1.7048,1.661,1.6967,1.686,1.6954,1.7635,1.817,1.8597,1.8878,1.8758,1.8303,1.746,1.7114,1.6367,1.4755,1.697,1.8341,1.7993,1.9011,1.9826,2.0153,2.0054,1.9947,1.9947,1.976,1.9613,1.9519,1.9506,1.9466,1.943,1.943,1.9265,1.9078,1.9279,1.9158,1.8771,1.8584,1.8384,1.8115,1.7209,1.6287,1.5346,1.4696,1.4635,1.4781,1.3058,1.2688,1.2756,0.0,0.0,0.0,0.0,0.0,0.0,0.0,0.0,0.0,0.0,0.0,0.0,0.0,0.0,0.0,0.0,0.0,0.0,0.0,0.0,0.8832,0.8043,1.0206,1.1504,0.0,0.0,0.0,0.0,0.0,0.0,0.0,0.0,0.0,0.0,0.0,0.0,0.0,0.0,0.0,0.0,0.0,0.0,1.0005,0.9252,0.9436,0.0,0.0,0.0,0.0,0.0,0.0,1.1891,1.2221,1.2144,1.1957,1.1784,1.2158,1.2799,1.3614,1.4402,1.5204,1.6086,1.658,1.6965,1.7152,1.7125,1.6978,1.67,1.5965,1.5351,1.5337,1.5097,1.5284,1.6486,1.6914,1.7396,1.8408,1.8263,1.7836,1.7407,1.7048,1.6276,1.4755,1.6662,1.7598,1.6554,1.7785,1.8881,1.9687,1.9135,1.9037,1.9653,1.9466,1.943,1.943,1.943,1.943,1.943,1.9265,1.9105,1.8931,1.9011,1.8851,1.8477,1.8384,1.8156,1.7862,1.7662,1.6911,1.5885,1.5811,1.5651,1.534,1.409,1.4152,1.4473,0.0,0.0,0.0,0.0,0.0,0.0,0.0,0.0,0.0,0.0,0.0,0.0,0.0,0.0,0.0,0.0,0.0,0.0,0.0,0.0,0.0,0.8574,0.0,0.0,0.0,0.0,0.0,0.0,0.0,0.0,0.0,0.0,0.0,0.0,0.0,0.0,0.0,0.0,0.0,0.0,0.0,0.0,0.8723,0.8024,0.0,0.0,0.0,0.0,0.0,0.0,0.0,1.1062,1.1369,1.1442,1.1575,1.2211,1.2826,1.3547,1.4754,1.5458,1.6099,1.7005,1.7206,1.7192,1.7179,1.6847,1.6273,1.5196,1.4616,1.4133,1.3586,1.328,1.3721,1.5425,1.5578,1.6059,1.7769,1.7595,1.738,1.7582,1.7434,1.673,1.5343,1.6904,1.7337,1.5749,1.6443,1.7554,1.8844,1.7728,1.7747,1.9359,1.943,1.943,1.943,1.943,1.943,1.9417,1.9065,1.8918,1.8891,1.8624,1.8464,1.841,1.8089,1.7836,1.7542,1.7542,1.7208,1.6727,1.7058,1.6817,1.6321,1.6308,1.6072,1.5439,0.0,0.0,0.0,0.0,0.0,0.0,0.0,0.0,0.0,0.0,0.0,0.0,0.0,0.0,0.0,0.0,0.0,0.0,0.0,0.0,0.0,0.0,0.0,0.0,0.0,0.0,0.0,0.0,0.0,0.0,0.0,0.0,0.0,0.0,0.0,0.0,0.0,0.0,0.0,0.0,0.0,0.0,0.7699,0.0,0.0,0.0,0.0,0.0,0.0,0.0,0.0,1.141,1.1917,1.2225,1.261,1.3387,1.4055,1.4767,1.5732,1.6415,1.6965,1.7407,1.7367,1.7139,1.6874,1.5912,1.4937,1.4416,1.3026,1.1917,1.1948,1.2118,1.2786,1.4563,1.5524,1.6593,1.8156,1.8437,1.833,1.7916,1.8063,1.7471,1.5642,1.7252,1.7689,1.6078,1.6372,1.7386,1.9181,1.7827,1.7747,1.9359,1.943,1.943,1.943,1.943,1.943,1.9417,1.9065,1.8811,1.8597,1.8517,1.813,1.7554,1.7635,1.7408,1.6927,1.6927,1.6847,1.6687,1.6553,1.6455,1.6246,1.6019,1.5851,1.5689,0.0,0.0,0.0,0.0,0.0,0.0,0.0,0.0,0.0,0.0,0.0,0.0,0.0,0.0,0.0,0.0,0.0,0.0,0.0,0.0,0.0,0.0,0.0,0.0,0.0,0.0,0.0,0.0,0.0,0.0,0.0,0.0,0.0,0.0,0.0,0.0,0.0,0.0,0.0,0.0,0.0,0.0,0.0,0.0,0.0,0.0,0.0,0.0,0.0,0.0,0.0,1.2131,1.2852,1.3239,1.3601,1.471,1.533,1.5812,1.678,1.7395,1.7742,1.7782,1.7555,1.7139,1.6152,1.511,1.3988,1.2824,1.1516,1.0661,1.0789,1.0982,1.177,1.376,1.4803,1.5965,1.7822,1.8237,1.8357,1.8368,1.8584,1.8305,1.7376,1.8272,1.8568,1.7767,1.7117,1.7411,1.9114,1.7803,1.7747,1.9359,1.943,1.943,1.943,1.943,1.943,1.9359,1.8931,1.8651,1.8477,1.821,1.7822,1.7393,1.7515,1.7248,1.6714,1.6847,1.6673,1.6313,1.6286,1.6192,1.6059,1.5885,1.5784,1.5784,0.0,0.0,0.0,0.0,0.0,0.0,0.0,0.0,0.0,0.0,0.0,0.0,0.0,0.0,0.0,0.0,0.0,0.0,0.0,0.0,0.0,0.0,0.0,0.0,0.0,0.0,0.0,0.0,0.0,0.0,0.0,0.0,0.0,0.0,0.0,0.0,0.0,0.0,0.0,0.0,0.0,0.0,0.0,0.0,0.0,0.0,0.0,0.0,0.0,0.0,1.269,1.3119,1.3975,1.4309,1.4643,1.6046,1.6446,1.6687,1.7809,1.829,1.841,1.8022,1.7689,1.6954,1.529,1.4269,1.312,1.0988,1.0207,0.9937,1.0047,1.0087,1.0856,1.3214,0.0,1.491,1.7248,1.7622,1.7956,1.8824,1.8958,1.9078,1.9345,1.943,1.9466,1.972,1.8236,1.7824,1.8941,1.7728,1.7747,1.9359,1.943,1.943,1.943,1.943,1.943,1.9417,1.8811,1.8531,1.8477,1.7903,1.7595,1.7528,1.7528,1.7194,1.666,1.6978,1.6553,1.5811,1.6112,1.6059,1.5784,1.5784,1.5784,1.5784,0.0,0.0,0.0,0.0,0.0,0.0,0.0,0.0,0.0,0.0,0.0,0.0,0.0,0.0,0.0,0.0,0.0,0.0,0.0,0.0,0.0,0.0,0.0,0.0,0.0,0.0,0.0,0.0,0.0,0.0,0.0,0.0,0.0,0.0,0.0,0.0,0.0,0.0,0.0,0.0,0.0,0.0,0.0,0.0,0.0,0.0,0.0,0.0,0.0,0.0,1.3414,1.4057,1.4897,1.5498,1.6086,1.7074,1.7355,1.7515,1.8223,1.845,1.8357,1.7809,1.7074,1.6147,1.4589,1.3013,0.0,1.0421,0.9579,0.9178,0.9673,0.9953,1.0856,1.3214,1.3895,1.491,1.7248,1.7809,1.8155,0.0,1.9145,1.9319,1.9359,1.943,1.9444,1.9497,1.9153,1.91,1.9292,1.784,1.7747,1.9359,1.943,1.943,1.943,1.943,1.943,1.9417,1.9011,1.8718,1.8477,1.813,1.7689,1.7273,1.7273,1.6938,1.6353,1.6455,1.6192,1.5832,1.5838,1.5872,1.5784,1.5784,1.5784,1.5784,0.0,0.0,0.0,0.0,0.0,0.0,0.0,0.0,0.0,0.0,0.0,0.0,0.0,0.0,0.0,0.0,0.0,0.0,0.0,0.0,0.0,0.0,0.0,0.0,0.0,0.0,0.0,0.0,0.0,0.0,0.0,0.0,0.0,0.0,0.0,0.0,0.0,0.0,0.0,0.0,0.0,0.0,0.0,0.0,0.0,0.0,0.0,0.0,0.0,0.0,1.2652,1.3722,1.5337,1.6046,1.6469,1.7192,1.7569,1.7903,1.837,1.8718,1.8771,1.7996,1.7141,1.5952,1.3909,0.0,0.0,0.9713,0.9098,0.8991,0.9608,0.9927,0.0,1.2438,1.3093,1.4204,1.6366,1.7061,1.7742,1.8741,1.9185,1.9426,1.9573,1.9452,1.9484,1.9586,1.9452,1.943,1.943,1.8648,1.859,1.9372,1.943,1.943,1.943,1.943,1.943,1.9359,1.8918,1.8624,1.8477,1.8009,1.7649,1.742,1.742,1.7099,1.65,1.65,1.6233,1.5784,1.5784,1.5925,1.6059,1.6059,1.6152,1.6286,0.0,0.0,0.0,0.0,0.0,0.0,0.0,0.0,0.6343,0.7179,0.7206,0.7,0.6505,0.5772,0.0,0.0,0.0,0.0,0.0,0.0,0.0,0.0,0.0,0.0,0.0,0.0,0.0,0.4887,0.0,0.0,0.0,0.0,0.0,0.0,0.0,0.0,0.0,0.0,0.0,0.0,0.0,0.0,0.0,0.0,0.0,0.0,0.0,0.0,0.0,0.0,1.1545,1.2851,1.4834,1.5732,1.6161,1.675,1.7368,1.8023,1.8464,1.8971,1.9132,1.817,1.7168,1.5765,1.3266,1.1864,0.0,0.9125,0.8804,0.8965,0.9499,0.9726,1.0261,0.0,1.2194,1.3253,1.5337,1.6206,1.7141,1.8571,1.9052,0.0,1.9679,1.9506,1.9466,1.9693,1.9492,1.943,1.943,1.943,1.943,1.943,1.943,1.943,1.943,1.943,1.9332,1.9265,1.8798,1.8517,1.8384,1.7903,1.7649,1.7582,1.7582,1.7288,1.6794,1.6727,1.6433,1.6005,1.5952,1.6099,1.6366,1.6366,1.6513,1.67,0.0,0.0,0.0,0.0,0.0,0.0,0.0,0.0,0.6654,0.7759,0.7604,0.7278,0.7038,0.0,0.0,0.0,0.0,0.0,0.0,0.0,0.0,0.0,0.0,0.0,0.0,0.0,0.0,0.4887,0.4782,0.0,0.0,0.0,0.0,0.0,0.0,0.4908,0.0,0.0,0.0,0.0,0.0,0.0,0.0,0.0,0.0,0.0,0.0,0.0,0.0,0.0,0.0,1.1677,1.2425,1.3816,1.5249,1.5778,0.0,0.0,1.8651,1.9118,1.9149,1.7916,1.6567,1.4963,1.2826,0.0,0.9967,0.9005,0.8804,0.8884,0.9191,0.9058,0.9486,1.1162,0.0,1.2371,1.4754,1.5826,1.6767,1.7929,0.0,0.0,1.9372,1.9386,1.943,1.9399,1.9386,1.943,1.943,1.943,1.943,1.943,1.943,1.943,1.943,1.943,1.9225,1.8958,1.8905,1.8597,1.8035,1.7969,1.7849,1.7582,1.7582,1.7447,1.7139,1.682,1.6673,1.6593,1.6339,1.6406,1.666,1.666,1.6687,1.67,0.0,0.0,0.0,0.0,0.0,0.0,0.0,0.0,0.6647,0.8113,0.7997,0.7712,0.0,0.0,0.0,0.0,0.0,0.0,0.0,0.0,0.0,0.0,0.0,0.0,0.0,0.0,0.4614,0.4646,0.4674,0.0,0.0,0.0,0.0,0.0,0.0,0.4782,0.4775,0.0,0.0,0.0,0.0,0.0,0.0,0.0,0.0,0.0,0.0,0.0,0.0,0.0,0.0,0.0,1.018,1.1203,0.0,0.0,1.5351,1.65,1.7569,1.833,1.8637,1.7796,1.6353,1.4643,1.2732,0.0,0.9844,0.8991,0.8804,0.8844,0.8938,0.8858,0.9152,0.0,0.0,0.0,1.336,1.4242,1.5391,1.7288,1.7197,1.7616,1.9248,1.8519,1.8344,1.9314,1.943,1.943,1.943,1.943,1.9292,1.9105,1.9105,1.9011,1.8838,1.8838,1.8784,1.8664,1.8464,1.8209,1.7982,1.7849,1.7702,1.7582,1.7582,1.7474,1.7192,1.7072,1.6874,1.67,1.658,1.6714,1.7018,1.7018,1.7088,1.7235,0.0,0.0,0.0,0.0,0.0,0.0,0.0,0.6173,0.6607,0.8031,0.0,0.0,0.0,0.0,0.0,0.0,0.0,0.0,0.0,0.0,0.0,0.0,0.0,0.0,0.0,0.0,0.4511,0.4559,0.468,0.4755,0.0,0.0,0.4836,0.4687,0.0,0.0,0.0,0.0,0.0,0.0,0.0,0.0,0.0,0.0,0.0,0.0,0.0,0.0,0.0,0.0,0.0,0.0,0.0,0.0,0.0,0.0,1.3881,1.5244,1.6388,1.7393,1.7929,1.7235,1.5805,1.4135,0.0,0.0,0.963,0.8951,0.8804,0.8804,0.8804,0.8804,0.8965,0.0,0.0,1.0434,1.2275,1.316,1.4306,1.6321,1.584,1.6103,1.7943,1.7435,1.7479,1.8647,1.9179,1.943,1.943,1.9279,1.9145,1.8931,1.8918,1.8784,1.849,1.849,1.845,1.8357,1.813,1.7983,1.7903,1.7689,1.7582,1.7582,1.7582,1.7462,1.7326,1.7233,1.7125,1.6954,1.6874,1.7021,1.7326,1.7326,1.746,1.7582,0.0,0.0,0.0,0.0,0.0,0.0,0.0,0.0,0.0,0.0,0.0,0.0,0.0,0.0,0.0,0.0,0.0,0.0,0.0,0.0,0.0,0.0,0.0,0.0,0.0,0.0,0.0,0.4687,0.4843,0.4887,0.4887,0.4887,0.4836,0.468,0.0,0.0,0.0,0.0,0.0,0.0,0.0,0.0,0.0,0.0,0.0,0.0,0.0,0.0,0.0,0.0,0.0,0.0,0.0,0.0,0.0,0.0,1.2478,1.4295,1.5177,1.6321,1.7005,1.6072,1.4705,1.3227,0.0,1.027,0.9138,0.8871,0.8804,0.8804,0.8804,0.8804,0.8871,0.9164,0.0,0.0,1.1752,1.2893,1.3933,1.4928,1.4744,1.469,1.5205,1.6306,1.7079,1.7218,1.8568,1.943,1.943,1.9092,1.8931,1.8918,1.8918,1.8784,1.849,1.849,1.8343,1.7995,1.7995,1.7889,1.7582,1.7582,1.7582,1.7582,1.7582,1.7582,1.7555,1.7326,1.7367,1.7542,1.7313,1.738,1.7582,1.7582,1.7582,1.7582,0.0,0.0,0.0,0.0,0.0,0.0,0.0,0.0,0.0,0.0,0.0,0.0,0.0,0.0,0.0,0.0,0.0,0.0,0.0,0.0,0.0,0.0,0.0,0.0,0.0,0.0,0.0,0.4961,0.5345,0.5474,0.5372,0.527,0.5087,0.4836,0.4607,0.4491,0.0,0.0,0.0,0.0,0.0,0.0,0.0,0.0,0.0,0.0,0.0,0.0,0.0,0.0,0.0,0.0,0.0,0.0,0.0,0.8791,1.0221,1.1953,1.2986,1.3749,1.4164,1.4055,1.304,1.1868,1.1035,1.0007,0.9124,0.8871,0.8804,0.8804,0.8804,0.8804,0.8815,0.8793,0.953,0.0,0.0,0.0,0.0,1.3904,1.432,1.4169,1.323,1.4486,1.5817,1.6961,1.7491,1.8227,1.9359,1.9092,1.8838,1.8637,1.8382,1.8183,1.7876,1.7862,1.7822,1.7729,1.7729,1.7796,1.7849,1.7849,1.8009,1.8196,1.7983,1.7849,1.7876,1.7569,1.7502,1.7569,1.7527,1.7554,1.7582,1.7582,1.7582,1.7582,0.0,0.0,0.0,0.0,0.0,0.0,0.0,0.0,0.0,0.0,0.0,0.0,0.0,0.0,0.0,0.0,0.0,0.0,0.0,0.0,0.0,0.0,0.0,0.0,0.0,0.0,0.5013,0.5352,0.5718,0.5901,0.5922,0.5863,0.5569,0.5074,0.4823,0.4648,0.0,0.0,0.0,0.0,0.0,0.0,0.4924,0.0,0.0,0.0,0.0,0.0,0.0,0.0,0.0,0.0,0.0,0.0,0.0,0.0,0.8563,0.9729,0.0,1.185,1.2291,1.2492,1.181,1.0942,1.0399,0.0,0.9004,0.8844,0.8804,0.8804,0.8804,0.8804,0.8681,0.8334,0.8925,0.9457,0.9479,1.0818,1.1873,1.2093,1.316,1.3182,1.1347,1.2669,1.4391,1.6023,1.6667,1.7689,1.9301,1.8985,1.8677,1.8504,1.8142,1.7903,1.7582,1.7582,1.7582,1.7582,1.7582,1.7689,1.7876,1.7876,1.7969,1.8143,1.7956,1.7876,0.0,1.7662,1.7582,1.7582,1.7582,1.7582,1.7582,1.7582,1.7582,1.7582,0.0,0.0,0.0,0.0,0.0,0.0,0.0,0.0,0.0,0.0,0.0,0.0,0.0,0.0,0.0,0.0,0.0,0.0,0.0,0.0,0.0,0.0,0.0,0.0,0.0,0.4796,0.5094,0.582,0.5966,0.6234,0.6545,0.6532,0.6129,0.5405,0.5203,0.4884,0.4491,0.4491,0.4491,0.4519,0.4546,0.4952,0.0,0.0,0.0,0.0,0.0,0.0,0.0,0.0,0.0,0.0,0.0,0.0,0.0,0.0,0.0,0.0,0.0,1.0528,1.1122,1.1136,1.0768,1.0265,0.9742,0.0,0.0,0.0,0.0,0.8791,0.8858,0.8778,0.8513,0.7847,0.8115,0.8285,0.8019,0.8884,0.9583,0.9835,1.1492,1.1748,0.9585,1.0999,1.2819,1.464,1.6023,1.756,1.9274,1.8798,1.8477,1.8464,1.8115,1.7876,1.7582,1.7582,1.7582,1.7582,1.7582,1.7595,1.7609,1.7609,1.7622,1.7649,1.7622,1.7609,1.7609,1.7595,1.7582,1.7582,1.7582,1.7582,1.7582,1.7582,1.7582,1.7582,0.0,0.0,0.0,0.0,0.0,0.0,0.0,0.0,0.0,0.0,0.0,0.0,0.0,0.0,0.0,0.0,0.0,0.0,0.0,0.0,0.0,0.0,0.0,0.0,0.0,0.5078,0.546,0.5939,0.6431,0.6707,0.6817,0.6702,0.6247,0.0,0.5218,0.4884,0.4491,0.4491,0.4491,0.4546,0.5054,0.5355,0.0,0.0,0.0,0.0,0.8342,0.8646,0.0,0.0,0.0,0.0,0.0,0.0,0.0,0.0,0.7121,0.7268,0.7933,0.0,0.8482,0.8671,0.8618,0.8577,0.0,0.0,0.0,0.0,0.0,0.0,0.0,0.0,0.7991,0.8059,0.8192,0.8145,0.7879,0.894,0.9869,1.0212,1.038,1.0193,0.9453,1.0003,1.1571,1.4431,1.4986,1.6294,1.8867,1.8691,1.8384,1.8102,1.7849,1.7662,1.7582,1.7582,1.7582,1.7582,1.7582,1.7702,1.7916,1.7929,1.8063,1.8263,1.8036,1.7943,1.7862,1.7675,1.7582,1.7582,1.7582,1.7582,1.7582,1.7582,1.7582,1.7582,0.0,0.0,0.0,0.0,0.0,0.0,0.0,0.0,0.0,0.0,0.0,0.0,0.0,0.0,0.0,0.0,0.0,0.0,0.0,0.0,0.0,0.0,0.0,0.0,0.0,0.0,0.5576,0.6234,0.6627,0.6966,0.7231,0.0,0.0,0.0,0.5216,0.4755,0.4519,0.4842,0.4944,0.5034,0.571,0.0,0.0,0.0,0.0,0.0,0.8475,0.8524,0.0,0.8537,0.8591,0.8524,0.0,0.0,0.0,0.0,0.7006,0.7033,0.7214,0.7584,0.7973,0.8257,0.8405,0.8551,0.8738,0.0,0.0,0.0,0.0,0.0,0.0,0.0,0.0,0.7423,0.7457,0.7539,0.7591,0.9047,0.9959,0.9754,1.0307,1.0428,0.9644,0.9727,1.114,1.4361,1.4508,1.574,1.8761,1.8517,1.821,1.7995,1.7742,1.7582,1.7582,1.7582,1.7582,1.7582,1.7582,1.7662,1.7822,1.7836,1.7916,1.8063,1.7903,1.7836,1.7822,1.7649,1.7582,1.7582,1.7582,1.7582,1.7582,1.7582,1.7582,1.7582,0.0,0.0,0.0,0.0,0.0,0.0,0.0,0.0,0.0,0.0,0.0,0.0,0.0,0.0,0.0,0.0,0.0,0.0,0.0,0.0,0.0,0.0,0.0,0.0,0.0,0.0,0.0,0.0,0.0,0.0,0.0,0.0,0.708,0.0,0.5439,0.4962,0.4842,0.53,0.5565,0.5737,0.647,0.0,0.0,0.0,0.0,0.0,0.0,0.0,0.0,0.8457,0.847,0.8322,0.8228,0.0,0.0,0.0,0.0,0.0,0.706,0.7749,0.8496,0.8577,0.8791,0.9018,0.9071,0.0,0.0,0.0,0.0,0.0,0.0,0.7846,0.0,0.6746,0.6709,0.698,0.7517,0.9065,0.9836,0.8955,1.0406,1.102,0.9792,0.9747,1.1094,1.4262,1.4258,1.5497,1.8549,1.825,1.7876,1.7796,1.7635,1.7515,1.7515,1.7555,1.7582,1.7582,1.7582,1.7582,1.7582,1.7582,1.7582,1.7582,1.7582,1.7582,1.7582,1.7582,1.7582,1.7582,1.7582,1.7582,1.7582,1.7582,1.7582,1.7582,0.0,0.0,0.0,0.0,0.0,0.0,0.0,0.0,0.0,0.0,0.0,0.0,0.0,0.0,0.0,0.0,0.0,0.0,0.0,0.0,0.0,0.0,0.0,0.0,0.0,0.0,0.0,0.0,0.0,0.0,0.7173,0.7577,0.7418,0.6805,0.6636,0.6463,0.6236,0.5737,0.5873,0.6507,0.7235,0.0,0.0,0.0,0.0,0.0,0.0,0.0,0.0,0.7759,0.7816,0.7885,0.7366,0.0,0.0,0.0,0.0,0.0,0.7357,0.8056,0.8564,0.7879,0.7909,0.8179,0.0,0.0,0.0,0.0,0.0,0.0,0.0,0.8047,0.7555,0.7601,0.7401,0.7517,0.8245,0.8807,0.9056,0.875,0.9571,0.9808,0.9117,0.9422,1.0871,1.3767,1.3945,1.5054,1.7649,1.7702,1.7422,1.6927,1.7114,1.7259,1.7259,1.7514,1.7582,1.7582,1.7582,1.7582,1.7582,1.7582,1.7582,1.7582,1.7582,1.7582,1.7582,1.7582,1.7582,1.7582,1.7582,1.7582,1.7582,1.7582,1.7582,1.7582,0.0,0.0,0.0,0.0,0.0,0.0,0.0,0.0,0.0,0.0,0.0,0.0,0.0,0.0,0.0,0.0,0.0,0.0,0.0,0.0,0.0,0.0,0.0,0.0,0.0,0.0,0.0,0.0,0.0,0.7543,0.757,0.7831,0.7563,0.6903,0.7031,0.6915,0.6615,0.6659,0.6875,0.7251,0.0,0.0,0.0,0.0,0.0,0.0,0.0,0.0,0.0,0.0,0.7584,0.7629,0.7348,0.0,0.0,0.0,0.0,0.0,0.7188,0.7776,0.827,0.804,0.8442,0.0,0.0,0.0,0.0,0.0,0.0,0.0,0.0,0.0,0.7294,0.7624,0.7862,0.8147,0.8655,0.8852,0.8919,0.9062,0.93,0.9415,0.9313,0.9415,1.0686,1.3489,1.3527,1.4581,1.7264,1.7194,1.6981,1.6714,1.6834,1.6914,1.6914,1.7048,1.7194,1.7393,1.7181,1.7194,1.7393,1.7393,1.7435,1.7582,1.7582,1.7582,1.7582,1.7582,1.7582,1.7582,1.7582,1.7582,1.7582,1.7582,1.7582,1.7582,0.0,0.0,0.0,0.0,0.0,0.0,0.0,0.0,0.0,0.0,0.0,0.0,0.0,0.0,0.0,0.0,0.0,0.0,0.0,0.0,0.0,0.0,0.0,0.0,0.0,0.0,0.6688,0.7206,0.7556,0.7801,0.7963,0.8218,0.7922,0.0,0.7523,0.7386,0.6885,0.745,0.7691,0.7759,0.0,0.0,0.0,0.0,0.0,0.0,0.0,0.0,0.0,0.0,0.0,0.0,0.0,0.0,0.0,0.7073,0.7006,0.702,0.7086,0.7499,0.7939,0.8147,0.0,0.0,0.0,0.0,0.0,0.0,0.0,0.0,0.0,0.7476,0.7088,0.7622,0.8174,0.8655,0.8994,0.9042,0.9123,0.9354,0.9337,0.9259,0.9388,0.9608,1.0593,1.2676,1.316,1.4278,1.6432,1.6576,1.6567,1.65,1.6567,1.6607,1.6607,1.6607,1.6794,1.7192,1.6914,1.6967,1.73,1.73,1.742,1.7582,1.7582,1.7582,1.7582,1.7582,1.7582,1.7582,1.7582,1.7582,1.7582,1.7582,1.7582,1.7582,0.0,0.0,0.0,0.0,0.0,0.0,0.0,0.0,0.0,0.0,0.0,0.0,0.0,0.0,0.0,0.0,0.0,0.0,0.0,0.0,0.0,0.0,0.0,0.0,0.0,0.679,0.7109,0.7563,0.7813,0.7894,0.7856,0.8888,0.8855,0.7936,0.8591,0.8393,0.761,0.7676,0.7691,0.7759,0.8203,0.0,0.0,0.0,0.0,0.0,0.0,0.0,0.0,0.0,0.0,0.0,0.0,0.0,0.7033,0.7006,0.7006,0.706,0.7383,0.7682,0.7846,0.7625,0.0,0.0,0.0,0.0,0.0,1.1904,0.0,0.0,0.0,0.8041,0.7303,0.7853,0.8397,0.8845,0.9286,0.9347,0.9354,0.9381,0.9367,0.9211,0.8811,1.0023,1.0829,1.0889,1.307,1.4437,1.4479,1.5663,1.6179,1.5851,1.6166,1.6348,1.6348,1.6348,1.6643,1.7206,1.7179,1.7326,1.7555,1.7555,1.7569,1.7582,1.7582,1.7582,1.7582,1.7582,1.7582,1.7582,1.7582,1.7582,1.7582,1.7582,1.7582,1.7582,0.0,0.0,0.0,0.0,0.0,0.0,0.0,0.0,0.0,0.0,0.0,0.0,0.0,0.0,0.0,0.0,0.0,0.0,0.0,0.0,0.0,0.0,0.0,0.6098,0.6552,0.7075,0.7522,0.7875,0.7934,0.7867,0.7712,0.875,0.0,0.0,0.9189,0.9407,0.8933,0.8726,0.8765,0.891,0.8329,0.8096,0.0,0.0,0.0,0.0,0.0,0.0,0.0,0.0,0.7006,0.7006,0.0,0.0,0.0,0.0,0.7006,0.7033,0.7161,0.7816,0.8444,0.8323,0.0,0.0,0.0,0.0,0.0,1.2395,1.217,0.0,0.0,0.883,0.8449,0.8316,0.8615,0.8974,0.9334,0.9381,0.9381,0.9381,0.9357,0.9137,0.8879,1.0,1.0674,1.0391,1.2788,1.4196,1.4085,1.5306,1.5939,1.5784,1.5939,1.5992,1.5992,1.5992,1.6206,1.6656,1.6656,1.6754,1.7048,1.7286,1.746,1.7582,1.7582,1.7582,1.7582,1.7582,1.7582,1.7569,1.7434,1.7474,1.7555,1.7434,1.7474,1.7582,0.0,0.0,0.0,0.0,0.0,0.0,0.0,0.0,0.0,0.0,0.0,0.0,0.0,0.0,0.0,0.0,0.0,0.0,0.0,0.0,0.0,0.0,0.0,0.5895,0.6436,0.7054,0.7529,0.7828,0.8209,0.8266,0.7986,0.0,0.0,0.0,0.0,1.0151,0.9758,0.9464,0.9357,0.9263,0.8303,0.7912,0.0,0.0,0.0,0.0,0.0,0.0,0.0,0.0,0.7006,0.7006,0.0,0.0,0.0,0.0,0.7006,0.7006,0.7006,0.7739,0.8498,0.0,0.0,0.0,0.0,0.0,0.0,0.0,1.3012,1.1852,1.0263,0.0,0.9076,0.8459,0.8635,0.8954,0.9205,0.9239,0.9225,0.9178,0.9035,0.8886,0.8743,1.0208,1.088,1.0205,1.2953,1.4412,1.3932,1.5092,1.5784,1.5784,1.5784,1.5784,1.5784,1.5784,1.5939,1.6126,1.6233,1.6522,1.686,1.7112,1.7367,1.7582,1.7582,1.7582,1.7569,1.7488,1.7448,1.7474,1.7286,1.7326,1.7435,1.738,1.7407,1.7514,0.0,0.0,0.0,0.0,0.0,0.0,0.0,0.0,0.0,0.0,0.0,0.0,0.0,0.0,0.0,0.0,0.0,0.0,0.0,0.0,0.0,0.0,0.0,0.5672,0.6279,0.6688,0.7068,0.7412,0.8659,0.9104,0.873,1.0281,0.0,0.0,0.0,0.0,0.9883,0.9745,0.9266,0.8573,0.8101,0.7912,0.7846,0.0,0.0,0.0,0.0,0.0,0.0,0.0,0.7006,0.7006,0.0,0.0,0.0,0.0,0.7006,0.7006,0.7006,0.7459,0.7925,0.0,0.0,0.0,0.0,0.0,0.0,1.5358,1.4688,1.3287,1.1773,1.0315,0.9052,0.8188,0.8418,0.8757,0.8913,0.8933,0.8879,0.8723,0.8627,0.8477,0.8333,1.0676,1.1636,1.0109,1.3596,1.5248,1.3968,1.5092,1.5784,1.5784,1.5784,1.5784,1.5784,1.5784,1.5784,1.5784,1.6126,1.663,1.7192,1.7192,1.7353,1.7582,1.7582,1.7582,1.7555,1.7326,1.7206,1.7206,1.7206,1.7206,1.7233,1.7527,1.7447,1.7233,0.0,0.0,0.0,0.0,0.0,0.0,0.0,0.0,0.0,0.0,0.0,0.0,0.0,0.0,0.0,0.0,0.0,0.0,0.0,0.0,0.0,0.0,0.0,0.0,0.0,0.0,0.6491,0.721,0.8105,0.8402,0.0,0.0,0.0,0.9994,0.0,0.0,1.003,0.9784,0.9557,0.9305,0.8553,0.8123,0.7859,0.0,0.0,0.0,0.0,0.0,0.0,0.0,0.0,0.0,0.0,0.0,0.0,0.706,0.7299,0.7632,0.7632,0.8218,0.0,0.9619,0.0,0.0,0.0,0.0,0.0,0.0,1.5542,1.5035,1.3333,1.2914,1.2058,0.9756,0.9796,1.0076,0.9973,0.9981,1.0274,1.1211,1.1252,1.1187,1.1038,1.2573,1.2925,1.1424,1.4124,1.5248,1.3968,1.5092,1.5784,1.5784,1.5784,1.5784,1.5784,1.5784,1.5784,1.5784,1.5912,1.6166,1.6603,1.7005,1.7246,1.734,1.7541,1.7582,1.7569,1.7488,1.738,1.7206,1.7206,1.7206,1.7206,1.73,1.7139,1.6874,0.0,0.0,0.0,0.0,0.0,0.0,0.0,0.0,0.0,0.0,0.4092,0.4194,0.0,0.0,0.0,0.0,0.0,0.0,0.0,0.0,0.0,0.0,0.0,0.0,0.0,0.5739,0.6211,0.0,0.0,0.0,0.0,0.0,0.0,1.0972,0.0,1.1703,1.0942,1.0332,0.9997,0.978,0.8898,0.8363,0.807,0.0,0.0,0.0,0.0,0.0,0.0,0.0,0.0,0.0,0.0,0.0,0.0,0.7086,0.7339,0.7776,0.7872,0.8631,0.0,1.0546,1.157,1.2705,1.3895,0.0,0.0,0.0,1.5845,1.5682,1.4232,1.3932,1.3288,1.1225,1.1089,1.1244,1.1141,1.1141,1.1369,1.2103,1.2194,1.2194,1.2103,1.3138,1.3497,1.2775,1.4516,1.5368,1.4698,1.5391,1.5784,1.5784,1.5784,1.5784,1.5784,1.5784,1.5784,1.5784,1.5784,1.5925,1.6112,1.6643,1.6911,1.7032,1.7154,1.7168,1.7061,1.7061,1.7005,1.6857,1.6857,1.6857,1.6871,1.6978,1.678,1.658,0.0,0.0,0.6732,0.7158,0.0,0.0,0.0,0.0,0.0,0.0,0.3998,0.416,0.0,0.0,0.0,0.0,0.0,0.0,0.0,0.0,0.0,0.0,0.0,0.0,0.0,0.0,0.0,0.0,0.0,0.0,0.0,0.0,1.269,1.2757,0.0,1.2705,1.2064,1.0935,1.0278,0.9897,0.9072,0.8564,0.8322,0.7979,0.0,0.0,0.0,0.0,0.0,0.0,0.0,0.0,0.0,0.0,0.0,0.7134,0.7268,0.7598,0.7899,0.0,0.0,1.0902,1.2291,0.0,1.4834,1.5444,1.5771,1.5744,0.0,1.5582,1.4631,1.4028,1.3398,1.2529,1.2403,1.2363,1.2343,1.2333,1.2311,1.2262,1.2221,1.2211,1.2211,1.3036,1.3649,1.3981,1.4833,1.5484,1.5731,1.5744,1.5758,1.5784,1.5784,1.5784,1.5784,1.5784,1.5784,1.5784,1.5784,1.5784,1.5798,1.6139,1.6433,1.67,1.67,1.654,1.6273,1.6348,1.6299,1.6273,1.6348,1.6348,1.6313,1.6593,1.65,1.6286,0.0,0.0,0.6598,0.6607,0.0,0.0,0.0,0.0,0.0,0.0,0.0,0.0,0.0,0.418,0.0,0.0,0.0,0.0,0.0,0.0,0.0,0.0,0.0,0.0,0.0,0.0,0.0,0.0,0.0,0.0,0.0,0.0,0.0,1.2385,0.0,1.1476,1.0894,0.9686,0.9152,0.9031,0.8352,0.8059,0.7965,0.7682,0.7335,0.0,0.0,0.0,0.0,0.0,0.0,0.0,0.7343,0.7437,0.7477,0.741,0.7589,0.7925,0.0,0.9138,0.0,0.0,1.3695,1.5057,1.5538,1.5738,1.5718,1.5538,1.6046,1.6295,1.5595,1.5742,1.5453,1.3808,1.3728,1.3785,1.3542,1.3519,1.3895,1.4867,1.476,1.4633,1.4633,1.4656,1.4708,1.4774,1.4948,1.5177,1.5471,1.5484,1.5591,1.5771,1.5784,1.5784,1.5784,1.5784,1.5784,1.5784,1.5784,1.5784,1.5798,1.6139,1.6433,1.67,1.67,1.654,1.6335,1.6513,1.6473,1.6348,1.6526,1.6473,1.6313,1.6593,1.638,1.5992,0.0,0.0,0.0,0.0,0.0,0.0,0.0,0.0,0.0,0.0,0.0,0.0,0.0,0.4233,0.0,0.0,0.4402,0.0,0.0,0.0,0.4497,0.4796,0.0,0.0,0.0,0.0,0.0,0.0,0.0,0.0,0.0,0.0,0.0,1.1864,0.0,1.1102,1.0533,0.9606,0.9152,0.8951,0.8498,0.8325,0.8298,0.804,0.7651,0.7228,0.7228,0.0,0.0,0.0,0.0,0.0,0.0,0.0,0.7655,0.7531,0.7812,0.827,0.0,0.0,0.0,1.2625,0.0,1.5471,1.5718,1.5784,1.5744,1.5631,1.5965,1.6192,1.5838,1.6086,1.5936,1.4952,1.4919,1.4969,1.4819,1.4694,1.4854,1.5524,1.5364,1.519,1.519,1.4923,1.4816,1.4995,1.483,1.4883,1.5177,1.519,1.5257,1.5404,1.5551,1.5618,1.5618,1.5765,1.5784,1.5784,1.5784,1.5784,1.5832,1.5992,1.6139,1.6286,1.6286,1.6192,1.6072,1.6219,1.6192,1.6072,1.6233,1.6192,1.6086,1.6233,1.6086,1.5824,0.0,0.0,0.0,0.0,0.0,0.0,0.0,0.0,0.0,0.0,0.0,0.0,0.0,0.0,0.445,0.0,0.0,0.0,0.0,0.4335,0.4415,0.4721,0.0,0.0,0.0,0.0,0.0,0.0,0.0,0.0,0.0,0.0,0.0,1.149,0.0,0.0,1.0546,0.9742,0.9299,0.9098,0.8738,0.8631,0.8697,0.8404,0.8013,0.7571,0.7571,0.7571,0.7531,0.7246,0.0,0.0,0.0,0.0,0.7726,0.7611,0.7893,0.8375,0.0,0.0,0.0,1.3067,1.4456,0.0,1.5618,1.5712,1.5752,1.5752,1.5792,1.5784,1.5784,1.5784,1.5758,1.5718,1.5752,1.5691,1.5685,1.5471,1.5324,1.5324,1.5057,1.4928,1.4928,1.4616,1.4549,1.4834,1.4589,1.4576,1.4914,1.4928,1.4955,1.5008,1.5204,1.5324,1.5324,1.5565,1.5712,1.5752,1.5758,1.5784,1.5784,1.5784,1.5784,1.5784,1.5784,1.5784,1.5784,1.5784,1.5784,1.5784,1.5784,1.5784,1.5784,1.5784,1.5784,1.5784,0.0,0.0,0.0,0.0,0.0,0.0,0.0,0.0,0.0,0.0,0.4031,0.4099,0.0,0.0,0.0,0.4247,0.4207,0.0,0.4247,0.0,0.0,0.0,0.0,0.0,0.0,0.0,0.0,0.0,0.0,0.0,0.0,0.0,0.0,1.1806,0.0,0.0,0.0,0.8844,0.8405,0.8791,0.8,0.7986,0.8429,0.8085,0.7912,0.7846,0.7846,0.7846,0.7832,0.7792,0.7682,0.0,0.0,0.0,0.7219,0.7699,0.7736,0.7799,0.0,0.0,0.0,0.0,1.4106,1.471,0.0,0.0,1.5458,1.5458,1.5658,1.5784,1.5784,1.5784,1.5704,1.5498,1.5458,1.5364,1.5156,1.5089,1.5062,1.5062,1.4763,1.4576,1.4576,1.4322,1.4162,1.4202,1.4162,1.4269,1.4563,1.4576,1.4696,1.4995,1.5048,1.5062,1.5062,1.5102,1.5204,1.5458,1.5712,1.5784,1.5784,1.5784,1.5784,1.5784,1.5784,1.5784,1.5784,1.5784,1.5784,1.5784,1.5784,1.5784,1.5784,1.5784,1.5784,1.5824,0.0,0.0,0.0,0.0,0.0,0.0,0.0,0.0,0.0,0.0,0.0,0.4294,0.0,0.0,0.0,0.0,0.0,0.0,0.3964,0.4247,0.0,0.0,0.0,0.0,0.0,0.0,0.0,0.0,0.0,0.0,0.0,0.998,1.0488,0.0,0.0,0.0,0.0,0.0,0.8417,0.8751,0.8016,0.7989,0.0,0.0,0.807,0.7925,0.8123,0.8176,0.815,0.7965,0.7949,0.8,0.7912,0.0,0.0,0.0,0.8203,0.0,0.8871,0.0,0.0,0.0,1.3067,1.3908,1.4362,1.4696,1.495,1.5124,1.5124,1.5145,1.5524,1.5458,1.5297,1.5223,1.5196,1.511,1.5022,1.4816,1.471,1.471,1.4456,1.4282,1.4282,1.4162,1.4082,1.4082,1.4082,1.4135,1.4269,1.4282,1.4335,1.4512,1.4629,1.471,1.471,1.4928,1.511,1.5391,1.5524,1.5671,1.5784,1.5784,1.5784,1.5784,1.5784,1.5784,1.5784,1.5784,1.5784,1.5784,1.5784,1.5784,1.5784,1.5784,1.5784,1.5798,0.0,0.0,0.0,0.0,0.0,0.0,0.0,0.0,0.0,0.0,0.0,0.0,0.0,0.0,0.0,0.0,0.0,0.0,0.3792,0.0,0.0,0.0,0.0,0.0,0.0,0.0,0.0,0.0,0.0,0.0,0.9579,0.9873,1.0127,0.0,1.0064,0.0,0.0,0.0,0.0,0.0,0.8179,0.811,0.0,0.0,0.0,0.0,0.8322,0.8442,0.8469,0.8205,0.8257,0.8348,0.8005,0.8083,0.0,0.0,0.0,0.0,0.0,0.0,0.0,1.1062,1.1984,1.2906,0.0,0.0,1.4295,1.4713,1.4509,1.4412,1.4977,1.495,1.4856,1.4856,1.4856,1.4874,1.4794,1.4482,1.4279,1.4402,1.4082,1.3921,1.4068,1.4015,1.4001,1.4082,1.4082,1.4082,1.4082,1.4082,1.4082,1.4082,1.4295,1.4416,1.4416,1.4696,1.4963,1.5177,1.5324,1.5511,1.5725,1.5744,1.5784,1.5784,1.5784,1.5784,1.5784,1.5784,1.5784,1.5784,1.5784,1.5784,1.5784,1.5784,1.5784,1.5784,0.0,0.0,0.0,0.0,0.0,0.0,0.0,0.0,0.0,0.0,0.0,0.0,0.0,0.0,0.0,0.4286,0.0,0.0,0.0,0.0,0.0,0.0,0.0,0.0,0.0,0.0,0.0,0.0,0.0,0.0,0.9244,0.9566,0.9742,0.9782,1.0305,1.0238,0.9675,0.0,0.0,0.0,0.8245,0.811,0.8375,0.0,0.0,0.0,0.8389,0.855,0.8778,0.8764,0.8591,0.8348,0.8005,0.7912,0.7925,0.0,0.0,0.0,0.0,0.9486,0.0,1.0492,0.0,0.0,0.0,0.0,1.344,1.4015,1.3895,1.3746,1.4095,1.4362,1.4549,1.4549,1.4549,1.4442,1.4175,1.3881,1.3746,1.4082,1.3601,1.3467,1.4028,1.3786,1.3746,1.4068,1.4082,1.4082,1.4082,1.4082,1.4082,1.4082,1.4095,1.4108,1.4108,1.4402,1.4549,1.4576,1.5124,1.5404,1.5431,1.5698,1.5784,1.5784,1.5784,1.5784,1.5784,1.5784,1.5784,1.5784,1.5784,1.5784,1.5784,1.5784,1.5784,1.5784,0.0,0.0,0.0,0.0,0.0,0.0,0.0,0.0,0.0,0.0,0.0,0.0,0.0,0.4591,0.454,0.4227,0.4085,0.0,0.0,0.0,0.0,0.0,0.0,0.0,0.0,0.0,0.0,0.0,0.0,0.8555,0.9217,0.9539,0.9486,0.9125,0.9339,0.9419,0.9311,0.8363,0.0,0.8644,0.8112,0.7965,0.8123,0.0,0.8564,0.8697,0.9112,0.9406,0.9646,0.9646,0.9459,0.9165,0.8831,0.8618,0.8472,0.8472,0.0,0.0,0.0,0.0,0.0,0.9619,1.0154,1.0688,1.1122,1.1637,1.2238,1.2826,1.2852,1.2879,1.3213,1.348,1.3681,1.3681,1.3681,1.3641,1.3534,1.3427,1.34,1.3507,1.3333,1.336,1.372,1.3666,1.372,1.4068,1.4082,1.4082,1.4082,1.4082,1.4001,1.3814,1.376,1.376,1.376,1.4095,1.4335,1.4522,1.4923,1.5217,1.5404,1.5698,1.5784,1.5784,1.5784,1.5784,1.5784,1.5784,1.5784,1.5784,1.5784,1.5784,1.5784,1.5784,1.5784,1.5784,0.0,0.0,0.0,0.0,0.0,0.5164,0.0,0.0,0.0,0.0,0.0,0.0,0.0,0.0,0.4506,0.4227,0.4132,0.4004,0.388,0.3914,0.0,0.0,0.0,0.0,0.0,0.0,0.0,0.0,0.0,0.0,0.0,0.9299,0.9125,0.8657,0.855,0.8698,0.0,0.0,0.0,0.8631,0.8243,0.8112,0.8245,0.8657,0.8925,0.9165,0.9659,1.002,1.0261,1.0261,1.0007,0.9633,0.9311,0.8951,0.8684,0.0,0.0,0.0,0.8644,0.0,0.0,0.0,0.0,0.9753,1.0047,1.0488,1.1035,1.1717,1.1864,1.1984,1.2422,1.2545,1.2705,1.2999,1.3053,1.3093,1.32,1.312,1.3093,1.32,1.3026,1.3066,1.3413,1.336,1.3467,1.3774,1.3881,1.3935,1.3935,1.3935,1.3801,1.3467,1.3547,1.36,1.36,1.3935,1.4188,1.4376,1.4821,1.5115,1.5257,1.5658,1.5784,1.5784,1.5784,1.5784,1.5784,1.5784,1.5784,1.5784,1.5784,1.5784,1.5784,1.5784,1.5784,1.5784,0.0,0.5527,0.4759,0.541,0.4979,0.4519,0.0,0.0,0.0,0.0,0.0,0.0,0.0,0.0,0.0,0.4313,0.422,0.4173,0.4018,0.3887,0.0,0.0,0.0,0.0,0.0,0.0,0.0,0.0,0.0,0.0,0.0,0.0,0.8644,0.8375,0.8032,0.8218,0.8778,0.0,0.8911,0.9124,0.8604,0.8576,0.8804,0.8831,0.9205,0.9753,1.0047,1.0341,1.0626,1.0626,1.0238,0.9659,0.9311,0.8844,0.0,0.0,0.0,0.0,0.0,0.0,0.0,0.0,0.0,0.8884,0.9151,0.9459,0.993,1.0782,1.0969,1.1142,1.1752,1.1597,1.1677,1.2596,1.2744,1.2851,1.3133,1.2945,1.2878,1.3146,1.2665,1.2532,1.3133,1.2958,1.2918,1.3186,1.3427,1.3586,1.3586,1.3586,1.3453,1.3213,1.3427,1.3586,1.3586,1.3921,1.4082,1.4095,1.4713,1.4995,1.5022,1.5538,1.5758,1.5771,1.5771,1.5771,1.5784,1.5784,1.5784,1.5784,1.5784,1.5784,1.5784,1.5784,1.5784,1.5784,0.7289,0.6669,0.6073,0.6263,0.571,0.5218,0.0,0.0,0.0,0.0,0.0,0.0,0.0,0.0,0.0,0.486,0.4759,0.4619,0.4382,0.4206,0.4343,0.4882,0.0,0.0,0.0,0.0,0.0,0.0,0.0,0.0,0.0,0.0,0.0,0.0,0.7939,0.7992,0.8139,0.7936,0.8016,0.8285,0.8577,0.8738,0.8871,0.9512,0.9993,1.0412,1.0889,1.1249,1.1538,1.1538,1.1149,1.0474,0.9497,0.0,0.0,0.0,0.0,0.0,0.8711,0.0,0.0,0.0,0.0,0.0,0.9151,0.9111,0.9299,1.018,1.0354,1.0474,1.0881,1.0881,1.0975,1.143,1.165,1.1891,1.2234,1.2208,1.2261,1.2518,1.2398,1.2452,1.2878,1.2837,1.2918,1.3186,1.328,1.3333,1.3333,1.312,1.3066,1.3213,1.3066,1.3106,1.3333,1.3573,1.3868,1.4095,1.4469,1.4643,1.4656,1.503,1.5324,1.5511,1.5511,1.5631,1.5784,1.5784,1.5784,1.5784,1.5784,1.5784,1.5784,1.5784,1.5784,1.5784,0.6389,0.6018,0.5745,0.5795,0.5506,0.5264,0.0,0.0,0.0,0.0,0.0,0.0,0.0,0.0,0.0,0.5047,0.4911,0.4748,0.46,0.4335,0.4364,0.0,0.0,0.0,0.0,0.0,0.0,0.0,0.0,0.0,0.0,0.0,0.0,0.0,0.811,0.8019,0.0,0.0,0.8083,0.8472,0.8698,0.9031,0.9419,1.006,1.0555,1.0995,1.1583,1.1904,1.2087,1.2087,1.1583,1.0782,0.9577,0.9098,0.0,0.0,0.0,0.0,0.0,0.0,0.0,0.0,0.0,0.0,0.8658,0.8538,0.8617,0.9259,0.9392,0.9512,0.994,0.9913,0.9927,1.0221,1.0376,1.0763,1.157,1.169,1.1744,1.1917,1.2051,1.2221,1.2395,1.2529,1.2677,1.2812,1.2946,1.3013,1.3013,1.3012,1.2906,1.2839,1.2906,1.2998,1.3013,1.3307,1.3614,1.3908,1.4202,1.4402,1.4536,1.4874,1.5169,1.5391,1.5391,1.5565,1.5784,1.5784,1.5784,1.5784,1.5784,1.5784,1.5784,1.5784,1.5784,1.5784,0.0,0.4601,0.4545,0.4687,0.483,0.0,0.0,0.0,0.0,0.0,0.0,0.0,0.0,0.0,0.0,0.0,0.4863,0.4755,0.4741,0.4449,0.0,0.0,0.0,0.0,0.0,0.0,0.0,0.0,0.0,0.0,0.0,0.0,0.0,0.0,0.8402,0.823,0.7979,0.8297,0.8751,0.9244,0.9018,0.9459,1.0247,1.0613,1.1022,1.1543,1.2104,1.2305,1.2291,1.2225,1.169,1.0848,0.971,0.9337,0.9257,0.8991,0.8884,0.0,0.0,0.0,0.0,0.0,0.8496,0.0,0.8085,0.7979,0.8032,0.8348,0.8375,0.8497,0.9018,0.8911,0.8858,0.9124,0.9164,0.9657,1.1056,1.1242,1.1269,1.1335,1.161,1.1819,1.1859,1.2051,1.2225,1.2251,1.2569,1.2757,1.2784,1.2973,1.2879,1.2371,1.2839,1.2986,1.2784,1.3026,1.332,1.36,1.3908,1.4188,1.4482,1.475,1.5089,1.5351,1.5351,1.5524,1.5784,1.5784,1.5784,1.5784,1.5784,1.5784,1.5784,1.5784,1.5784,1.5784,0.6127,0.5281,0.458,0.4823,0.0,0.0,0.0,0.0,0.0,0.0,0.0,0.0,0.0,0.0,0.0,0.0,0.0,0.5208,0.0,0.0,0.0,0.0,0.0,0.0,0.0,0.0,0.0,0.0,0.0,0.0,0.0,0.0,0.0,0.0,0.8402,0.8362,0.8335,0.8604,0.9058,0.9619,0.9793,1.0247,1.0875,1.1444,1.1712,1.1859,1.2171,1.2305,1.2225,1.1757,1.1455,1.1223,1.0559,1.014,0.9857,0.9593,0.9339,0.9071,0.0,0.0,0.9058,0.8791,0.9085,0.0,0.8751,0.8457,0.8335,0.8389,0.8176,0.8099,0.8484,0.8523,0.855,0.8844,0.8884,0.9217,1.0203,1.0336,1.0541,1.1022,1.1129,1.1249,1.149,1.1535,1.1703,1.198,1.2225,1.2529,1.277,1.2572,1.2532,1.269,1.2545,1.2572,1.2784,1.2851,1.3106,1.36,1.3666,1.3881,1.4175,1.4229,1.4593,1.5089,1.5089,1.5351,1.5784,1.5784,1.5784,1.5784,1.5784,1.5784,1.5784,1.5784,1.5784,1.5784,0.5609,0.5048,0.4674,0.4941,0.0,0.0,0.0,0.0,0.0,0.0,0.0,0.0,0.0,0.0,0.0,0.0,0.0,0.0,0.0,0.0,0.0,0.0,0.0,0.0,0.0,0.0,0.0,0.0,0.0,0.0,0.0,0.0,0.0,0.0,0.0,0.0,0.0,0.0,0.9526,1.0314,1.002,1.0341,1.1035,1.1476,1.1744,1.194,1.2198,1.2305,1.2238,1.1797,1.1543,1.1322,1.0915,1.0474,1.006,0.9766,0.9472,0.9151,0.8858,0.8884,0.8991,0.8991,0.9138,0.0,0.0,0.8577,0.8442,0.8564,0.811,0.7842,0.8322,0.8147,0.8,0.8134,0.827,0.8498,0.8938,0.9526,1.0007,1.0301,1.0626,1.0835,1.0982,1.1249,1.1455,1.1637,1.1784,1.1997,1.2328,1.2305,1.2371,1.2556,1.2556,1.2636,1.2784,1.2636,1.2893,1.36,1.3453,1.3654,1.4082,1.4082,1.4402,1.5008,1.5008,1.5297,1.5784,1.5784,1.5784,1.5784,1.5784,1.5784,1.5784,1.5784,1.5784,1.5784,0.5393,0.5195,0.5262,0.5588,0.0,0.0,0.0,0.0,0.0,0.0,0.0,0.0,0.0,0.0,0.0,0.0,0.0,0.0,0.0,0.0,0.0,0.0,0.0,0.5206,0.0,0.0,0.0,0.0,0.0,0.0,0.0,0.0,0.0,0.0,0.0,0.0,0.0,0.0,0.9967,1.0929,1.0287,1.0474,1.1196,1.149,1.1703,1.194,1.2198,1.2305,1.2265,1.2007,1.1744,1.153,1.1182,1.0755,1.0301,0.9953,0.9646,0.9324,0.9058,0.9058,0.9178,0.9271,0.9204,0.9085,0.0,0.0,0.0,0.8617,0.8056,0.7732,0.8228,0.7866,0.7513,0.7513,0.7722,0.7885,0.7819,0.8764,0.9474,0.9512,0.9916,1.0238,1.0412,1.0862,1.1189,1.1295,1.1309,1.1476,1.1806,1.2064,1.2225,1.2225,1.2596,1.2757,1.2703,1.2516,1.2786,1.352,1.328,1.352,1.4082,1.4082,1.4402,1.5008,1.5008,1.5297,1.5784,1.5784,1.5784,1.5784,1.5784,1.5784,1.5784,1.5784,1.5784,1.5784,0.7542,0.7267,0.7003,0.7582,0.0,0.0,0.0,0.0,0.0,0.0,0.0,0.0,0.0,0.0,0.0,0.0,0.0,0.5664,0.5872,0.5664,0.0,0.0,0.0,0.0,0.5175,0.0,0.0,0.0,0.0,0.0,0.0,0.0,0.0,0.0,0.8791,0.0,0.0,0.0,1.0154,1.1009,1.1169,1.145,1.1832,1.2091,1.2064,1.194,1.2198,1.2305,1.2265,1.2007,1.2011,1.2104,1.1509,1.1295,1.1136,1.0653,1.0247,0.9953,0.9659,0.9997,1.0278,0.9753,1.0037,1.0117,0.9045,0.0,0.8617,0.8112,0.0,0.7872,0.7939,0.0,0.0,0.7513,0.7722,0.7806,0.7584,0.812,0.8643,0.8871,0.8764,0.8951,0.9742,1.0074,1.0474,1.1009,1.1049,1.1169,1.1429,1.1757,1.1953,1.1953,1.2489,1.2663,1.2358,1.2623,1.2918,1.3267,1.3227,1.352,1.4082,1.4082,1.4402,1.5008,1.5008,1.5297,1.5784,1.5784,1.5784,1.5784,1.5784,1.5784,1.5784,1.5784,1.5784,1.5784,0.6336,0.6109,0.6049,0.6408,0.0,0.0,0.0,0.0,0.0,0.0,0.0,0.0,0.6702,0.6586,0.6505,0.6511,0.6211,0.6067,0.6159,0.5881,0.0,0.0,0.5781,0.5549,0.0,0.0,0.0,0.0,0.7192,0.0,0.0,0.0,0.0,0.0,0.8884,0.0,0.9431,0.0,1.0533,1.1022,1.1282,1.1469,1.1663,1.2131,1.2225,1.2131,1.2265,1.2305,1.2278,1.2158,1.2198,1.2291,1.2211,1.1837,1.1349,1.1129,1.0608,1.0087,0.9967,1.0114,1.0318,1.0238,1.0278,1.018,0.9686,0.9271,0.9004,0.8965,0.0,0.0,0.0,0.0,0.0,0.0,0.7722,0.7739,0.7281,0.7428,0.7762,0.8218,0.8337,0.867,0.9352,0.9379,0.9526,0.991,1.014,1.0354,1.0616,1.1263,1.169,1.1899,1.2315,1.2556,1.2596,1.2717,1.3025,1.3427,1.3427,1.3681,1.4095,1.4255,1.4563,1.5022,1.5137,1.5444,1.5784,1.5784,1.5784,1.5784,1.5784,1.5784,1.5784,1.5784,1.5784,1.5784,0.5593,0.0,0.0,0.0,0.0,0.0,0.0,0.0,0.0,0.0,0.0,0.6763,0.6817,0.6824,0.6824,0.6837,0.6634,0.6559,0.66,0.62,0.6084,0.6347,0.6071,0.584,0.565,0.5576,0.0,0.0,0.0,0.0,0.0,0.0,0.0,0.0,0.0,0.9351,0.9617,1.0399,1.0975,1.1369,1.1583,1.1663,1.1703,1.2051,1.2238,1.2305,1.2305,1.2305,1.2318,1.2398,1.2425,1.2502,1.2717,1.2342,1.177,1.1655,1.1209,1.0701,1.0621,1.0595,1.0635,1.0768,1.0514,1.0234,1.0234,0.9817,0.9471,0.9552,0.9152,0.0,0.0,0.0,0.8228,0.0,0.0,0.7699,0.7086,0.7073,0.7308,0.7726,0.807,0.8417,0.8818,0.8658,0.8698,0.9071,0.9325,0.9606,0.998,1.0755,1.1356,1.173,1.2104,1.2412,1.2663,1.2824,1.3093,1.348,1.356,1.3801,1.4095,1.4309,1.4603,1.5022,1.519,1.5484,1.5784,1.5784,1.5784,1.5784,1.5784,1.5784,1.5784,1.5784,1.5784,1.5784,0.6637,0.7067,0.0,0.0,0.0,0.0,0.0,0.0,0.5779,0.6252,0.6313,0.6498,0.7018,0.7085,0.7253,0.7733,0.7321,0.7177,0.7371,0.6825,0.6497,0.6504,0.6361,0.6143,0.58,0.5786,0.0,0.0,0.0,0.0,0.0,0.0,0.0,0.0,0.0,0.9713,1.0573,1.0848,1.1476,1.2265,1.2265,1.2278,1.2238,1.1984,1.2051,1.2305,1.2305,1.2305,1.2345,1.2677,1.277,1.277,1.2784,1.277,1.269,1.2358,1.2251,1.2171,1.1926,1.1846,1.1779,1.1463,1.0969,1.0573,1.0573,1.0314,0.9897,0.9337,0.9459,0.9472,0.8911,0.8564,0.0,0.0,0.0,0.0,0.0,0.7268,0.7477,0.7504,0.7762,0.7925,0.7952,0.7939,0.8179,0.8778,0.8831,0.9085,0.9688,1.0291,1.0881,1.1389,1.1997,1.2305,1.2318,1.2906,1.3213,1.3227,1.3467,1.3801,1.4082,1.4095,1.4459,1.5008,1.5022,1.5297,1.5784,1.5784,1.5784,1.5784,1.5784,1.5784,1.5784,1.5784,1.5784,1.5784,0.5848,0.0,0.0,0.0,0.6046,0.5774,0.5631,0.5922,0.6302,0.6654,0.7048,0.7441,0.7848,0.7889,0.795,0.8106,0.7787,0.7604,0.7658,0.7285,0.7112,0.7112,0.6831,0.6559,0.6254,0.6051,0.6502,0.7631,0.0,0.0,0.0,0.0,0.0,0.0,0.0,0.998,1.0314,1.0995,1.1415,1.1708,1.1931,1.206,1.2024,1.2118,1.2211,1.2305,1.2305,1.2305,1.2318,1.2412,1.2719,1.3053,1.3053,1.3053,1.3039,1.2933,1.2612,1.2318,1.2462,1.2489,1.2462,1.2355,1.1899,1.1404,1.1182,1.0902,1.0528,0.991,1.006,1.005,0.9204,0.8991,0.0,0.0,0.0,0.0,0.0,0.7686,0.7695,0.7517,0.7584,0.7651,0.7651,0.7442,0.7552,0.8152,0.8404,0.8778,0.9324,1.0314,1.1022,1.1375,1.1997,1.2305,1.2305,1.2906,1.3213,1.3213,1.3707,1.3988,1.4095,1.4482,1.4821,1.5035,1.5378,1.5645,1.5784,1.5784,1.5784,1.5784,1.5784,1.5784,1.5784,1.5784,1.5784,1.5784,0.6094,0.6222,0.6184,0.5512,0.544,0.5562,0.5829,0.6288,0.6722,0.693,0.7475,0.7909,0.816,0.8235,0.8316,0.8418,0.8248,0.8085,0.7984,0.7692,0.7502,0.7455,0.7163,0.6892,0.6641,0.6342,0.6625,0.7496,0.0,0.8234,0.0,0.0,0.0,0.0,0.0,1.018,1.0327,1.1069,1.1455,1.1597,1.1832,1.1966,1.2074,1.2118,1.2211,1.2305,1.2305,1.2305,1.2318,1.2425,1.2799,1.3227,1.3293,1.344,1.352,1.352,1.324,1.2959,1.3039,1.3025,1.2945,1.2945,1.2502,1.1971,1.1784,1.1597,1.1263,1.0568,1.0581,1.0474,0.967,0.9351,0.0,0.0,0.0,0.0,0.0,0.8005,0.7976,0.7669,0.7651,0.7571,0.7357,0.7335,0.7446,0.7749,0.8174,0.8631,0.9178,1.0123,1.0915,1.1375,1.1891,1.2251,1.2489,1.2959,1.3267,1.3333,1.3961,1.4188,1.4108,1.474,1.5008,1.5035,1.5471,1.5691,1.5784,1.5784,1.5784,1.5784,1.5784,1.5784,1.5784,1.5784,1.5784,1.5784,0.722,0.6373,0.5754,0.5555,0.5556,0.5759,0.6224,0.6634,0.6943,0.7098,0.7563,0.7909,0.8015,0.8221,0.8425,0.8696,0.8723,0.8594,0.8354,0.8004,0.7773,0.7617,0.7274,0.7051,0.6903,0.6634,0.6718,0.713,0.7463,0.0,0.0,0.0,0.0,0.0,1.0097,0.0,1.0626,1.1169,1.1597,1.1926,1.1926,1.2078,1.2318,1.206,1.2091,1.2345,1.2331,1.2318,1.2371,1.269,1.2998,1.328,1.3493,1.3841,1.4082,1.4082,1.4082,1.4028,1.3706,1.3427,1.3253,1.3253,1.2799,1.2345,1.2345,1.2345,1.2104,1.1236,1.1076,1.0889,1.0274,0.9644,0.9151,0.0,0.0,0.0,0.0,0.8216,0.8297,0.7979,0.7952,0.7712,0.71,0.7566,0.7792,0.7558,0.8067,0.8631,0.0,0.9777,1.0496,1.1349,1.173,1.2221,1.2784,1.3066,1.3373,1.3613,1.4199,1.4376,1.4122,1.4723,1.5035,1.5048,1.5297,1.5578,1.5784,1.5784,1.5784,1.5784,1.5784,1.5784,1.5784,1.5784,1.5784,1.5784,0.633,0.5943,0.6064,0.6877,0.6397,0.5956,0.6071,0.6525,0.7018,0.7434,0.7963,0.8411,0.8629,0.8838,0.8913,0.8886,0.8824,0.875,0.8445,0.835,0.8147,0.7773,0.7577,0.736,0.7045,0.6681,0.673,0.7232,0.7147,0.0,0.8355,0.0,0.0,0.0,0.0,0.0,1.0613,1.0955,1.153,1.2184,1.2184,1.2505,1.2946,1.2677,1.2744,1.2946,1.2757,1.2663,1.2677,1.2757,1.3093,1.3467,1.332,1.3667,1.4082,1.4082,1.4082,1.4068,1.4001,1.3921,1.3854,1.3854,1.3414,1.2973,1.2973,1.2973,1.2786,1.2104,1.2181,1.202,1.0955,1.0287,0.9697,0.0,0.0,0.0,0.8591,0.8644,0.8671,0.8591,0.8577,0.8325,0.7739,0.7819,0.7965,0.8161,0.8308,0.8631,0.9178,1.0007,1.068,1.1089,1.206,1.2636,1.2784,1.3267,1.3533,1.3613,1.4199,1.4482,1.4429,1.5017,1.5284,1.5297,1.5591,1.5765,1.5784,1.5784,1.5784,1.5784,1.5784,1.5784,1.5784,1.5784,1.5784,1.5784,0.6219,0.6051,0.6356,0.7068,0.6748,0.6424,0.6593,0.7014,0.7455,0.7841,0.835,0.8696,0.8737,0.8872,0.8899,0.875,0.8737,0.8642,0.8404,0.8391,0.8248,0.7923,0.7712,0.7516,0.7346,0.6837,0.6662,0.6874,0.696,0.0,0.7437,0.0,0.0,0.0,0.0,1.0238,1.0626,1.1176,1.173,1.2318,1.2438,1.2786,0.0,1.2904,1.2985,1.32,1.316,1.3053,1.2985,1.2985,1.3253,1.3573,1.3413,1.3721,1.4082,1.4082,1.4082,1.4082,1.4082,1.4082,1.4082,1.4082,1.3841,1.3561,1.3427,1.336,1.3267,1.2799,1.2625,1.2382,1.169,1.0875,1.0114,0.9526,0.9164,0.8964,0.8964,0.8884,0.8804,0.8804,0.8804,0.8671,0.8325,0.8285,0.8337,0.8402,0.8604,0.9005,0.9564,1.0221,1.0787,1.1169,1.2234,1.2717,1.2596,1.3534,1.3853,1.3613,1.4496,1.4763,1.4506,1.5257,1.5511,1.5404,1.5698,1.5784,1.5784,1.5784,1.5784,1.5784,1.5784,1.5784,1.5784,1.5784,1.5784,1.5784,0.6549,0.6457,0.6559,0.6729,0.6865,0.7075,0.7434,0.7672,0.7916,0.8201,0.8628,0.8798,0.8513,0.8621,0.8648,0.8499,0.8479,0.8425,0.8333,0.832,0.8201,0.7995,0.7773,0.7631,0.7631,0.7054,0.6614,0.6361,0.6758,0.0,0.0,0.0,0.0,0.0,0.0,0.0,0.0,1.1605,1.2118,1.2438,1.2744,1.3052,1.3293,1.3025,1.3092,1.336,1.3573,1.348,1.3267,1.3267,1.3427,1.3653,1.3613,1.3841,1.4082,1.4082,1.4082,1.4082,1.4082,1.4082,1.4082,1.4082,1.4082,1.4015,1.3666,1.3626,1.3573,1.328,1.2786,1.2398,1.2318,1.1377,1.0412,0.9863,0.9486,0.9271,0.9271,0.9084,0.8965,0.8925,0.8951,0.0,0.8871,0.8831,0.8697,0.8482,0.8898,0.9391,0.995,1.0314,1.0768,1.1322,1.2301,1.2703,1.2478,1.3841,1.4239,1.3786,1.4883,1.5124,1.4656,1.5425,1.5698,1.5471,1.5725,1.5784,1.5784,1.5784,1.5784,1.5784,1.5784,1.5784,1.5784,1.5784,1.5784,1.5784,0.6825,0.6647,0.6749,0.697,0.7045,0.7333,0.8011,0.7943,0.7875,0.8008,0.8472,0.8682,0.8499,0.8621,0.8648,0.8499,0.8479,0.8425,0.8333,0.832,0.8201,0.7995,0.7868,0.7773,0.7773,0.726,0.6919,0.662,0.6353,0.0,0.0,0.0,0.0,0.0,0.0,0.0,1.1316,1.1957,1.2545,1.3053,1.3106,1.3454,1.3895,1.3601,1.3667,1.3935,1.3988,1.3814,1.3533,1.3533,1.372,1.3961,1.368,1.3841,1.4082,1.4082,1.4082,1.4082,1.4082,1.4082,1.4082,1.4082,1.4082,1.4015,1.3666,1.3786,1.3854,1.332,1.3133,1.2893,1.2398,1.1377,1.0479,1.01,0.9793,0.9606,0.9606,0.9766,0.9793,0.9552,0.974,0.967,0.9178,0.8924,0.8791,0.8738,0.8831,0.9004,0.9351,0.987,1.0461,1.1049,1.2194,1.2998,1.336,1.4106,1.4589,1.478,1.5177,1.5337,1.5257,1.5645,1.5758,1.5704,1.5758,1.5784,1.5784,1.5784,1.5784,1.5784,1.5784,1.5784,1.5784,1.5784,1.5784,1.5784,0.6888,0.6817,0.6939,0.7312,0.7456,0.7732,0.8303,0.8391,0.8397,0.8391,0.8574,0.8621,0.8397,0.8506,0.8499,0.8275,0.8255,0.8221,0.8153,0.8153,0.8119,0.7995,0.7896,0.7814,0.7814,0.7321,0.695,0.6702,0.6329,0.5996,0.0,0.0,0.0,0.0,0.0,0.9997,0.0,0.0,1.2376,1.324,1.3547,1.3841,1.4068,1.3935,1.3961,1.4082,1.4082,1.4001,1.3868,1.3868,1.3975,1.4055,1.3921,1.3975,1.4082,1.4082,1.4082,1.4082,1.4082,1.4082,1.4082,1.4082,1.4082,1.4055,1.3908,1.3988,1.3961,1.348,1.332,1.2973,1.2211,1.1658,1.1229,1.1049,1.0559,1.0224,1.0341,1.0221,1.003,0.9927,1.0033,0.9977,0.9697,0.9271,0.8938,0.8818,0.8924,0.9204,0.9644,0.9937,1.0461,1.1196,1.2248,1.2851,1.2907,1.4295,1.4816,1.4566,1.5271,1.5538,1.5404,1.5698,1.5784,1.5784,1.5784,1.5784,1.5784,1.5784,1.5784,1.5784,1.5784,1.5784,1.5784,1.5784,1.5925,1.6032,0.7031,0.7071,0.7251,0.7672,0.7936,0.8187,0.8486,0.8737,0.8804,0.8771,0.873,0.8608,0.8343,0.8391,0.833,0.8015,0.7988,0.7988,0.7988,0.7988,0.7988,0.7988,0.7923,0.7862,0.7862,0.7435,0.7136,0.6844,0.6552,0.6238,0.5895,0.0,0.0,0.0,0.0,0.0,1.1782,1.1645,1.2305,1.344,1.3895,1.4082,1.4082,1.4082,1.4082,1.4082,1.4082,1.4082,1.4082,1.4082,1.4082,1.4082,1.4082,1.4082,1.4082,1.4082,1.4082,1.4082,1.4082,1.4082,1.4082,1.4082,1.4082,1.4068,1.4001,1.4041,1.3961,1.3507,1.3227,1.2799,1.2091,1.1953,1.1899,1.1899,1.127,1.0827,1.0969,1.0701,1.0421,1.0234,1.0327,1.0283,1.014,0.967,0.9284,0.9018,0.9124,0.9471,1.0087,1.0083,1.0483,1.1362,1.2194,1.261,1.2585,1.4335,1.495,1.4469,1.5391,1.5712,1.5498,1.5678,1.5784,1.5784,1.5784,1.5784,1.5784,1.5784,1.5784,1.5784,1.5899,1.5925,1.5925,1.5992,1.6166,1.6326,0.7645,0.7726,0.7828,0.8153,0.8228,0.835,0.8642,0.8716,0.8777,0.8844,0.8798,0.8648,0.8479,0.8357,0.8221,0.8002,0.7988,0.7988,0.7988,0.7988,0.7988,0.7988,0.7975,0.7968,0.7968,0.7841,0.7604,0.7351,0.6871,0.6505,0.6252,0.0,0.0,0.0,0.86,0.9974,1.1556,1.1782,1.2688,1.4015,1.4068,1.4082,1.4082,1.4082,1.4082,1.4082,1.4082,1.4082,1.4082,1.4082,1.4082,1.4082,1.4082,1.4082,1.4082,1.4082,1.4082,1.4082,1.4082,1.4082,1.4082,1.4082,1.4082,1.4015,1.3706,1.3895,1.3896,1.3038,1.2599,1.2358,1.2278,1.2051,1.1899,1.1899,1.157,1.1263,1.1022,1.141,1.1444,1.064,1.0982,1.0962,1.0194,1.003,0.9913,0.9619,0.9351,0.9471,1.0087,1.0083,1.0483,1.1362,1.177,1.2452,1.3467,1.4199,1.4963,1.5624,1.5731,1.5771,1.5744,1.5771,1.5784,1.5784,1.5784,1.5784,1.5784,1.5784,1.5784,1.5811,1.6126,1.6233,1.6259,1.6526,1.6647,1.662,0.7847,0.7901,0.8045,0.8343,0.8472,0.8608,0.8818,0.892,0.8967,0.8885,0.8804,0.8655,0.8499,0.8357,0.8208,0.8002,0.7988,0.7988,0.7988,0.7988,0.7988,0.7988,0.7988,0.7988,0.7988,0.7889,0.7712,0.7509,0.7143,0.6905,0.6783,0.6546,0.6976,0.7957,0.7926,0.8974,1.0826,1.0403,1.138,1.3176,1.3058,1.3464,1.4082,1.4082,1.4082,1.4082,1.4082,1.4082,1.4082,1.4082,1.4082,1.4082,1.4082,1.4082,1.4082,1.4082,1.4082,1.4082,1.4082,1.4082,1.4082,1.4082,1.4082,1.4055,1.3935,1.4001,1.3881,1.3173,1.2639,1.2305,1.2305,1.2395,1.2435,1.2435,1.2328,1.2087,1.1618,1.1913,1.1832,1.0929,1.1182,1.1255,1.0896,1.039,1.0221,1.0448,0.9873,0.9686,1.01,1.0448,1.0875,1.1375,1.2238,1.2986,1.36,1.4402,1.5057,1.5578,1.5704,1.5784,1.5784,1.5784,1.5784,1.5784,1.5784,1.5784,1.5784,1.5784,1.5784,1.5798,1.5965,1.6112,1.6308,1.6206,1.6406,1.666,0.8157,0.8224,0.8319,0.8581,0.8703,0.8811,0.8865,0.9022,0.9055,0.8898,0.8764,0.8601,0.8492,0.8357,0.8208,0.8002,0.7988,0.7988,0.7988,0.7988,0.7988,0.7988,0.7988,0.7988,0.7988,0.7887,0.7807,0.7658,0.74,0.7206,0.7204,0.6946,0.7232,0.7955,0.7416,0.825,1.0032,0.9408,1.0545,1.2682,1.247,1.3108,1.4202,1.4122,1.4082,1.4082,1.4082,1.4082,1.4082,1.4082,1.4082,1.4082,1.4082,1.4082,1.4082,1.4082,1.4082,1.4082,1.4082,1.4082,1.4082,1.4082,1.4082,1.4082,1.4082,1.4082,1.3948,1.344,1.2933,1.2572,1.2572,1.2746,1.2918,1.2918,1.2918,1.2717,1.2114,1.2288,1.2104,1.1223,1.1269,1.1389,1.1389,1.0782,1.0541,1.0955,1.0421,1.0194,1.0456,1.0808,1.1169,1.1543,1.2452,1.3173,1.36,1.4429,1.507,1.5524,1.5725,1.5784,1.5784,1.5784,1.5784,1.5784,1.5784,1.5784,1.5784,1.5784,1.5784,1.5798,1.6019,1.6219,1.6393,1.6353,1.6607,1.6927,0.8669,0.8825,0.8871,0.8878,0.8878,0.8885,0.8885,0.8885,0.8885,0.8885,0.8676,0.8486,0.8479,0.8357,0.8208,0.8002,0.7988,0.7988,0.7988,0.7988,0.7988,0.7988,0.7988,0.7988,0.7988,0.7988,0.7914,0.7807,0.7665,0.7516,0.7412,0.721,0.7217,0.7405,0.7412,0.8131,0.9296,0.9296,1.0721,1.2995,1.2694,1.3348,1.4482,1.4202,1.4082,1.4082,1.4082,1.4082,1.4082,1.4082,1.4082,1.4082,1.4082,1.4082,1.4082,1.4082,1.4082,1.4082,1.4082,1.4082,1.4082,1.4082,1.4082,1.4082,1.4082,1.4082,1.4001,1.3653,1.336,1.32,1.32,1.32,1.32,1.32,1.32,1.2986,1.2385,1.2596,1.2449,1.153,1.1389,1.1389,1.1389,1.1156,1.0982,1.0995,1.0982,1.1102,1.1362,1.1142,1.1263,1.1886,1.2158,1.2746,1.36,1.4186,1.4918,1.5784,1.5784,1.5784,1.5784,1.5784,1.5784,1.5784,1.5784,1.5784,1.5784,1.5784,1.5784,1.5838,1.6473,1.67,1.6767,1.7355,1.7569,1.7528,0.8838,0.8851,0.8885,0.8885,0.8885,0.8885,0.8885,0.8885,0.8885,0.8885,0.8797,0.8716,0.8506,0.8262,0.8092,0.7995,0.7988,0.7988,0.7988,0.7988,0.7988,0.7988,0.7988,0.7988,0.7988,0.7988,0.7968,0.7921,0.7814,0.7719,0.7672,0.7617,0.7624,0.7672,0.7672,0.7882,0.8299,0.9027,1.0214,1.1745,1.2233,1.312,1.4215,1.4122,1.4082,1.4082,1.4082,1.4082,1.4082,1.4082,1.4082,1.4082,1.4082,1.4082,1.4082,1.4082,1.4082,1.4082,1.4082,1.4082,1.4082,1.4082,1.4082,1.4082,1.4082,1.3935,1.372,1.3626,1.3373,1.3213,1.3213,1.3333,1.34,1.324,1.3547,1.3454,1.2438,1.2596,1.2529,1.1846,1.173,1.181,1.1997,1.1757,1.1631,1.1631,1.1396,1.1295,1.1389,1.1717,1.2158,1.2759,1.3454,1.4041,1.4536,1.4923,1.5351,1.5784,1.5784,1.5784,1.5784,1.5784,1.5784,1.5784,1.5784,1.5784,1.5784,1.5784,1.5784,1.5824,1.6259,1.6526,1.6727,1.6914,1.7114,1.7326,0.9001,0.9022,0.9001,0.8892,0.8885,0.8885,0.8885,0.8885,0.8885,0.8885,0.8831,0.8757,0.8506,0.8269,0.8106,0.7995,0.7988,0.7988,0.7988,0.7988,0.7988,0.7988,0.7988,0.7988,0.7988,0.7988,0.7988,0.7988,0.7894,0.7896,0.7896,0.7896,0.7896,0.7896,0.7896,0.7896,0.7938,0.8557,0.9746,1.1317,1.1715,1.2829,1.4242,1.4135,1.4082,1.4082,1.4082,1.4082,1.4082,1.4082,1.4082,1.4082,1.4082,1.4082,1.4082,1.4082,1.4082,1.4082,1.4082,1.4082,1.4082,1.4082,1.4082,1.4082,1.4082,1.3948,1.3814,1.3814,1.3667,1.3534,1.3534,1.3681,1.368,1.3387,1.3681,1.3574,1.2612,1.2663,1.261,1.2127,1.2074,1.2181,1.2476,1.2342,1.2234,1.2234,1.2024,1.1971,1.2055,1.2331,1.2746,1.332,1.4122,1.4669,1.5008,1.5257,1.5538,1.5784,1.5784,1.5784,1.5784,1.5784,1.5784,1.5784,1.5784,1.5784,1.5784,1.5784,1.5851,1.6019,1.6326,1.662,1.6887,1.6994,1.7154,1.7367,0.9193,0.9193,0.9096,0.8905,0.8885,0.8885,0.8885,0.8885,0.8885,0.8885,0.8811,0.8669,0.8513,0.837,0.8221,0.8022,0.7995,0.7988,0.7988,0.7988,0.7988,0.7988,0.7988,0.7988,0.7988,0.7988,0.7988,0.7988,0.7988,0.7988,0.7988,0.7988,0.7988,0.7988,0.7988,0.7988,0.7988,0.8081,0.9437,1.1482,1.1297,1.2529,1.4482,1.4202,1.4082,1.4082,1.4082,1.4082,1.4082,1.4082,1.4082,1.4082,1.4082,1.4082,1.4082,1.4082,1.4082,1.4082,1.4082,1.4082,1.4082,1.4082,1.4082,1.4082,1.4082,1.4082,1.4082,1.4082,1.4082,1.4082,1.4082,1.4082,1.3988,1.3653,1.36,1.3387,1.2837,1.2808,1.2677,1.2358,1.2358,1.2478,1.2824,1.2851,1.2837,1.2811,1.2837,1.2971,1.3227,1.3065,1.3199,1.368,1.4239,1.4723,1.5062,1.5297,1.5565,1.5784,1.5784,1.5784,1.5784,1.5784,1.5784,1.5784,1.5784,1.5784,1.5784,1.5784,1.6005,1.6348,1.6593,1.6887,1.7233,1.7475,1.7582,1.7582,0.8988,0.8988,0.8981,0.8892,0.8885,0.8885,0.8885,0.8885,0.8885,0.8885,0.8851,0.8825,0.8676,0.852,0.8377,0.8228,0.8106,0.7988,0.7988,0.7988,0.7988,0.7988,0.7988,0.7988,0.7988,0.7988,0.7988,0.7988,0.7988,0.7988,0.7988,0.7988,0.7988,0.7988,0.7988,0.7988,0.8031,0.8837,1.0036,1.1556,1.2044,1.3145,1.4482,1.4202,1.4082,1.4082,1.4082,1.4082,1.4082,1.4082,1.4082,1.4082,1.4082,1.4082,1.4082,1.4082,1.4082,1.4082,1.4082,1.4082,1.4082,1.4082,1.4082,1.4082,1.4082,1.4082,1.4082,1.4082,1.4082,1.4082,1.4082,1.4082,1.3988,1.3653,1.36,1.3307,1.2518,1.2636,1.2757,1.269,1.2852,1.3106,1.336,1.3387,1.3333,1.312,1.3307,1.3427,1.3493,1.4108,1.4553,1.4643,1.5003,1.5324,1.5618,1.5698,1.5765,1.5784,1.5784,1.5784,1.5784,1.5784,1.5784,1.5784,1.5784,1.5784,1.5784,1.5784,1.6005,1.6348,1.6593,1.6887,1.7233,1.7475,1.7582,1.7582,0.9022,0.8981,0.8885,0.8885,0.8885,0.8885,0.8885,0.8885,0.8885,0.8885,0.8885,0.8824,0.873,0.8574,0.8425,0.8333,0.8126,0.7988,0.7988,0.7988,0.7988,0.7988,0.7988,0.7988,0.7988,0.7988,0.7988,0.7988,0.7988,0.7988,0.7988,0.7988,0.7988,0.7988,0.7988,0.7988,0.8031,0.8581,0.9839,1.1529,1.1932,1.3138,1.4696,1.4402,1.4282,1.4269,1.4135,1.4082,1.4082,1.4082,1.4082,1.4082,1.4082,1.4082,1.4082,1.4082,1.4082,1.4082,1.4082,1.4082,1.4082,1.4082,1.4188,1.4255,1.4122,1.4295,1.4416,1.4148,1.4188,1.4242,1.4108,1.3975,1.3788,1.3453,1.3174,1.2812,1.2184,1.2395,1.269,1.2958,1.3347,1.3774,1.4202,1.4242,1.4175,1.4028,1.4162,1.4242,1.4242,1.483,1.5142,1.5008,1.5378,1.5671,1.5784,1.5784,1.5784,1.5784,1.5784,1.5784,1.5784,1.5784,1.5784,1.5784,1.5784,1.5784,1.5798,1.5979,1.6206,1.65,1.6794,1.7088,1.742,1.7528,1.7582,1.7582,0.9187,0.9055,0.8974,0.8974,0.8898,0.8885,0.8885,0.8885,0.8885,0.8885,0.8885,0.8838,0.8757,0.8608,0.8465,0.835,0.8194,0.8035,0.7995,0.7988,0.7988,0.7988,0.7988,0.7988,0.7988,0.7988,0.7988,0.7988,0.7988,0.7988,0.7988,0.7988,0.7988,0.7988,0.7988,0.7988,0.7988,0.7988,0.9274,1.1267,1.1238,1.2614,1.472,1.4374,1.4375,1.4482,1.4242,1.4122,1.4082,1.4082,1.4082,1.4082,1.4082,1.4122,1.4148,1.4148,1.4188,1.4202,1.4108,1.4122,1.4148,1.4148,1.4376,1.4522,1.4282,1.4646,1.4861,1.4322,1.4376,1.4442,1.4202,1.3826,1.3507,1.3253,1.2692,1.2211,1.2007,1.2225,1.2652,1.3213,1.3841,1.4459,1.4955,1.5008,1.5022,1.5075,1.5075,1.5075,1.5075,1.5297,1.5324,1.5089,1.5551,1.5784,1.5784,1.5784,1.5845,1.5899,1.5899,1.5899,1.5899,1.5899,1.5872,1.5784,1.5784,1.5784,1.5845,1.6152,1.6446,1.674,1.7085,1.738,1.7582,1.7582,1.7582,1.7582,0.9228,0.9193,0.9173,0.9173,0.9022,0.8885,0.8885,0.8885,0.8885,0.8885,0.8885,0.8871,0.8851,0.8764,0.8669,0.8642,0.8499,0.8309,0.8008,0.7988,0.7988,0.7988,0.7988,0.7988,0.7988,0.7988,0.7988,0.7988,0.7988,0.7988,0.7988,0.7988,0.7988,0.7988,0.7988,0.7988,0.7988,0.7988,0.8859,1.0227,0.9926,1.135,1.3634,1.3326,1.378,1.4466,1.4469,1.4295,1.4082,1.4082,1.4082,1.4082,1.4082,1.4255,1.4456,1.4456,1.4629,1.4767,1.4229,1.4269,1.4456,1.4456,1.4669,1.4928,1.4888,1.4941,1.4981,1.4888,1.4669,1.4509,1.4469,1.3973,1.3507,1.3253,1.2692,1.2291,1.2238,1.2719,1.32,1.3493,1.4322,1.4914,1.4995,1.5008,1.5115,1.5311,1.5324,1.5324,1.5324,1.5605,1.5631,1.5337,1.5658,1.5784,1.5784,1.5784,1.5952,1.6206,1.6206,1.6206,1.6206,1.6206,1.6072,1.5784,1.5784,1.5784,1.5845,1.6152,1.6446,1.674,1.7085,1.738,1.7582,1.7582,1.7582,1.7582,0.935,0.933,0.933,0.933,0.9218,0.9178,0.9178,0.911,0.9055,0.9055,0.8988,0.8885,0.8885,0.8804,0.871,0.871,0.8567,0.8391,0.818,0.8167,0.8126,0.7995,0.7988,0.7988,0.7988,0.7988,0.7988,0.7988,0.7988,0.7988,0.7988,0.7988,0.7988,0.7988,0.7988,0.7988,0.7988,0.7988,0.8775,0.9993,0.9811,1.0922,1.2628,1.3042,1.3513,1.3993,1.4537,1.4669,1.4606,1.4606,1.4456,1.4322,1.4322,1.4416,1.4522,1.4522,1.4736,1.4955,1.4673,1.47,1.4763,1.4763,1.4977,1.5196,1.5048,1.5204,1.5337,1.5075,1.4977,1.495,1.479,1.4282,1.3841,1.3707,1.3079,1.2636,1.2772,1.3173,1.3573,1.4026,1.475,1.5257,1.5418,1.5431,1.5484,1.5618,1.5631,1.5631,1.5631,1.5704,1.5718,1.5631,1.5765,1.5784,1.5784,1.5992,1.6139,1.6273,1.6433,1.6513,1.6513,1.6513,1.6353,1.6072,1.6072,1.5979,1.5845,1.6152,1.6446,1.674,1.7085,1.738,1.7582,1.7582,1.7582,1.7582,0.9442,0.9435,0.9435,0.9435,0.9401,0.9381,0.9381,0.9337,0.9262,0.9262,0.911,0.9042,0.9042,0.8906,0.8811,0.8811,0.8676,0.8526,0.8384,0.837,0.8275,0.8002,0.7988,0.7988,0.7988,0.7988,0.7988,0.7988,0.7988,0.7988,0.7988,0.7988,0.7988,0.7988,0.7988,0.7988,0.7988,0.7988,0.8577,0.9558,0.9558,1.0288,1.159,1.2654,1.3204,1.3554,1.467,1.5062,1.5008,1.5008,1.4816,1.4629,1.4629,1.4669,1.4723,1.4723,1.4937,1.5182,1.5048,1.5062,1.5115,1.5115,1.5284,1.5444,1.5217,1.5511,1.5698,1.5257,1.5284,1.5324,1.5156,1.4589,1.4188,1.4188,1.3494,1.3132,1.3467,1.3666,1.4026,1.4656,1.5177,1.5578,1.5758,1.5784,1.5784,1.5784,1.5784,1.5784,1.5784,1.5784,1.5858,1.5925,1.5824,1.5858,1.5939,1.6152,1.6388,1.6536,1.67,1.6807,1.6807,1.6807,1.6647,1.638,1.638,1.6246,1.6046,1.6273,1.654,1.6834,1.7112,1.738,1.7582,1.7582,1.7582,1.7582,0.9618,0.9591,0.9591,0.9591,0.9476,0.9381,0.9381,0.9374,0.9361,0.9361,0.9354,0.9347,0.9347,0.9268,0.918,0.918,0.8988,0.8838,0.8689,0.8676,0.8486,0.8008,0.7988,0.7988,0.7988,0.7988,0.7988,0.7988,0.7988,0.7988,0.7988,0.7988,0.7988,0.7988,0.7988,0.7988,0.7988,0.7988,0.8038,0.8137,0.8137,0.8973,1.0288,1.1541,1.2602,1.3578,1.489,1.519,1.5008,1.5008,1.4995,1.4981,1.4981,1.511,1.5324,1.5324,1.5538,1.5645,1.511,1.5164,1.5364,1.5364,1.5578,1.5792,1.5765,1.5744,1.5771,1.5731,1.5565,1.5391,1.5364,1.4883,1.4482,1.4482,1.3933,1.3733,1.4306,1.4399,1.4669,1.5257,1.5605,1.5758,1.5784,1.5784,1.5784,1.5784,1.5784,1.5784,1.5784,1.5784,1.5952,1.6233,1.5979,1.5965,1.6233,1.6308,1.6603,1.7139,1.7152,1.7166,1.7166,1.7166,1.7005,1.6673,1.6673,1.666,1.6647,1.666,1.6847,1.7166,1.7192,1.738,1.7582,1.7582,1.7582,1.7582,0.9747,0.9741,0.9741,0.9741,0.9693,0.9652,0.9652,0.9578,0.9523,0.9523,0.9442,0.9381,0.9381,0.9327,0.9316,0.9221,0.9103,0.8967,0.8723,0.871,0.8554,0.8201,0.8092,0.7988,0.7988,0.7988,0.7988,0.7988,0.7988,0.7988,0.7988,0.7988,0.7988,0.7988,0.7988,0.7988,0.7988,0.7988,0.7988,0.7988,0.7988,0.8287,0.8973,1.1121,1.2131,1.273,1.4892,1.5591,1.5498,1.5498,1.5378,1.5231,1.5231,1.5311,1.5431,1.5618,1.5738,1.5778,1.5565,1.5578,1.5658,1.5658,1.5704,1.5784,1.5784,1.5784,1.5784,1.5784,1.5738,1.5658,1.5658,1.5337,1.507,1.507,1.4723,1.4603,1.5003,1.507,1.5217,1.5618,1.5765,1.5899,1.6086,1.5939,1.5979,1.6339,1.6032,1.5944,1.6353,1.638,1.642,1.654,1.6433,1.6433,1.654,1.6777,1.6978,1.7206,1.738,1.7474,1.7474,1.7474,1.7313,1.7032,1.7032,1.6874,1.67,1.67,1.6874,1.7206,1.7206,1.738,1.7582,1.7582,1.7702,1.7836,0.9822,0.9822,0.9822,0.9822,0.9822,0.9822,0.9822,0.9741,0.968,0.968,0.9585,0.9517,0.9517,0.9483,0.9395,0.9296,0.9234,0.9105,0.8798,0.8737,0.8581,0.8333,0.8167,0.8092,0.7988,0.7988,0.7988,0.7988,0.7988,0.7988,0.7988,0.7988,0.7988,0.7988,0.7988,0.7988,0.7988,0.7988,0.7988,0.7988,0.7988,0.7988,0.8287,1.0925,1.1901,1.2242,1.4854,1.5784,1.5784,1.5784,1.5698,1.5538,1.5538,1.5538,1.5578,1.5765,1.5784,1.5784,1.5784,1.5784,1.5784,1.5784,1.5784,1.5784,1.5784,1.5784,1.5784,1.5784,1.5784,1.5784,1.5784,1.5671,1.5538,1.5538,1.5364,1.5311,1.5511,1.5538,1.5605,1.5758,1.5784,1.5912,1.6112,1.6032,1.6139,1.654,1.6273,1.6286,1.6687,1.67,1.6754,1.6847,1.6847,1.6887,1.6981,1.7139,1.7246,1.734,1.7488,1.7582,1.7582,1.7582,1.7475,1.734,1.734,1.7219,1.6967,1.6887,1.7021,1.7326,1.7233,1.738,1.7595,1.7689,1.7796,1.7889,0.9822,0.9822,0.9822,0.9822,0.9822,0.9822,0.9822,0.9822,0.9822,0.9822,0.9822,0.9822,0.9822,0.9693,0.9551,0.9395,0.9303,0.9096,0.8892,0.8798,0.8581,0.834,0.8327,0.8201,0.7995,0.7995,0.7988,0.7988,0.7988,0.7988,0.7988,0.7988,0.7988,0.7988,0.7988,0.7988,0.7988,0.7988,0.7988,0.7988,0.7988,0.7988,0.8287,1.0925,1.1901,1.2242,1.4854,1.5784,1.5784,1.5784,1.5784,1.5784,1.5784,1.5784,1.5784,1.5784,1.5784,1.5784,1.5784,1.5784,1.5784,1.5784,1.5784,1.5784,1.5784,1.5784,1.5784,1.5784,1.5784,1.5784,1.5784,1.5784,1.5784,1.5784,1.5784,1.5784,1.5784,1.5784,1.5784,1.5784,1.5784,1.5784,1.5784,1.6099,1.6321,1.6335,1.6553,1.6714,1.6714,1.6714,1.6847,1.7192,1.7206,1.734,1.7582,1.7353,1.7353,1.7582,1.7582,1.7582,1.7582,1.7582,1.7582,1.7582,1.7582,1.7582,1.7555,1.7326,1.738,1.7555,1.7313,1.738,1.7622,1.7876,1.7849,1.7635,0.9822,0.9822,0.9822,0.9822,0.9822,0.9822,0.9822,0.9822,0.9822,0.9822,0.9822,0.9822,0.9822,0.9781,0.9652,0.9401,0.934,0.9205,0.8898,0.8844,0.8784,0.8587,0.8479,0.835,0.8208,0.8303,0.8248,0.7988,0.8147,0.8147,0.7988,0.7988,0.7988,0.7988,0.7988,0.7988,0.7988,0.7988,0.7988,0.7988,0.7988,0.8577,0.9608,1.1268,1.2474,1.3536,1.5188,1.5784,1.5784,1.5784,1.5784,1.5784,1.5784,1.5784,1.5784,1.5784,1.5784,1.5784,1.5784,1.5784,1.5885,1.6086,1.5979,1.5838,1.6086,1.5979,1.5784,1.5784,1.5784,1.5784,1.5784,1.5784,1.5784,1.5784,1.5784,1.5899,1.6112,1.5965,1.5912,1.6112,1.6139,1.6219,1.642,1.6526,1.6754,1.7154,1.7275,1.7235,1.7072,1.7208,1.7355,1.7501,1.7501,1.7502,1.7582,1.7502,1.7502,1.7582,1.7582,1.7582,1.7582,1.7582,1.7582,1.7582,1.7582,1.7582,1.7569,1.7488,1.7554,1.7569,1.7488,1.7502,1.7622,1.7876,1.8116,1.8196,0.9822,0.9822,0.9822,0.9822,0.9822,0.9822,0.9822,0.9822,0.9822,0.9822,0.9822,0.9822,0.9822,0.9822,0.9727,0.949,0.9415,0.9279,0.9035,0.9022,0.8954,0.8804,0.871,0.8567,0.8357,0.8438,0.8364,0.8133,0.8221,0.8221,0.8133,0.8015,0.8022,0.8126,0.8015,0.7988,0.7988,0.7988,0.7988,0.7988,0.7988,0.8478,0.9361,1.0632,1.1648,1.263,1.4533,1.521,1.5306,1.58,1.5925,1.5784,1.5784,1.5912,1.5979,1.5858,1.5992,1.6152,1.6032,1.6086,1.6246,1.654,1.6219,1.5824,1.6059,1.6046,1.6005,1.6005,1.6099,1.6179,1.6179,1.6086,1.6046,1.6152,1.6086,1.6112,1.6406,1.6286,1.6246,1.642,1.6446,1.6513,1.6687,1.6807,1.7074,1.7542,1.7582,1.7502,1.738,1.7488,1.7582,1.7582,1.7582,1.7582,1.7582,1.7582,1.7582,1.7582,1.7582,1.7582,1.7582,1.7582,1.7582,1.7582,1.7582,1.7582,1.7582,1.7582,1.7582,1.7582,1.7582,1.7582,1.7622,1.7876,1.8102,1.8303,0.9842,0.9856,0.9863,0.9863,0.9863,0.9856,0.9842,0.9842,0.9836,0.9822,0.9822,0.9822,0.9822,0.9822,0.9768,0.9618,0.9469,0.932,0.9241,0.9228,0.9117,0.8932,0.8912,0.8825,0.8547,0.8526,0.8445,0.834,0.8354,0.8347,0.832,0.814,0.8147,0.832,0.814,0.8029,0.8029,0.8015,0.8008,0.8008,0.7995,0.8088,0.8336,0.9525,1.0068,1.0538,1.3303,1.4345,1.4542,1.5908,1.6126,1.5864,1.5864,1.6099,1.6259,1.5992,1.6286,1.6647,1.638,1.65,1.6767,1.7099,1.65,1.5912,1.5939,1.6139,1.6362,1.6362,1.6526,1.67,1.67,1.6486,1.6393,1.666,1.6486,1.642,1.67,1.6727,1.6714,1.674,1.674,1.674,1.674,1.7021,1.7353,1.7555,1.7582,1.7582,1.7582,1.7582,1.7582,1.7582,1.7582,1.7582,1.7582,1.7582,1.7582,1.7582,1.7582,1.7582,1.7582,1.7582,1.7582,1.7582,1.7582,1.7582,1.7582,1.7582,1.7582,1.7582,1.7582,1.7582,1.7622,1.7876,1.8009,1.8075,0.9936,1.01,1.0181,1.0181,1.0181,1.0141,0.9957,0.9936,0.9896,0.9836,0.9822,0.9822,0.9822,0.9822,0.9768,0.9618,0.9469,0.9367,0.9334,0.9334,0.932,0.9286,0.9171,0.9132,0.9064,0.8899,0.871,0.8438,0.8554,0.8499,0.8327,0.835,0.8343,0.8327,0.835,0.8384,0.8377,0.8269,0.8221,0.8208,0.8085,0.8627,0.9624,1.0004,1.0806,1.1974,1.3808,1.4465,1.4779,1.6145,1.6567,1.6513,1.6513,1.6553,1.6607,1.654,1.6607,1.6687,1.6633,1.666,1.6727,1.678,1.666,1.658,1.6857,1.674,1.6607,1.6607,1.666,1.67,1.67,1.666,1.6633,1.67,1.6647,1.6714,1.7058,1.686,1.6794,1.7072,1.7099,1.7099,1.7099,1.7367,1.7515,1.7582,1.7582,1.7582,1.7582,1.7582,1.7582,1.7582,1.7582,1.7582,1.7582,1.7582,1.7582,1.7582,1.7582,1.7582,1.7582,1.7582,1.7582,1.7582,1.7582,1.7582,1.7582,1.7582,1.7582,1.7582,1.7582,1.7582,1.7622,1.7876,1.8196,1.8477,1.0161,1.0222,1.0283,1.0283,1.0283,1.0256,1.0175,1.0161,1.0134,1.0053,1.0039,1.0012,0.9876,0.9869,0.9869,0.9727,0.9639,0.9564,0.9496,0.949,0.9456,0.9388,0.9364,0.9316,0.9316,0.9191,0.8967,0.8587,0.8669,0.8628,0.8479,0.8479,0.8479,0.8479,0.8479,0.8479,0.8479,0.8404,0.837,0.8364,0.8282,0.8656,0.9318,0.9351,1.0246,1.1693,1.3234,1.467,1.5935,1.6711,1.682,1.67,1.67,1.6807,1.6887,1.674,1.6901,1.7088,1.6954,1.7021,1.7128,1.7128,1.7128,1.7088,1.6967,1.6927,1.6914,1.6914,1.7034,1.7128,1.7128,1.7007,1.6967,1.7101,1.7007,1.7021,1.7367,1.7221,1.7181,1.7393,1.7407,1.7407,1.7407,1.7541,1.7582,1.7582,1.7582,1.7582,1.7582,1.7582,1.7582,1.7582,1.7582,1.7582,1.7582,1.7582,1.7662,1.7809,1.7649,1.7582,1.7582,1.7582,1.7582,1.7582,1.7582,1.7582,1.7582,1.7582,1.7582,1.7582,1.7582,1.7582,1.7609,1.7769,1.8103,1.8655,1.0317,1.0337,1.0358,1.0358,1.0358,1.0344,1.0324,1.0317,1.031,1.0283,1.0283,1.0229,1.0038,1.0004,0.9936,0.9869,0.9836,0.9774,0.9652,0.9646,0.9591,0.9462,0.9435,0.9422,0.9422,0.9395,0.9198,0.8825,0.8798,0.8771,0.875,0.8621,0.8615,0.8703,0.8608,0.856,0.856,0.8533,0.852,0.852,0.8492,0.8479,0.8486,0.8513,0.9452,1.0924,1.2572,1.4954,1.734,1.73,1.7061,1.686,1.686,1.7021,1.7219,1.6927,1.7235,1.7595,1.7353,1.7527,1.7729,1.7675,1.7702,1.7609,1.7114,1.7114,1.7273,1.7273,1.7474,1.7582,1.7582,1.7434,1.7353,1.7542,1.7434,1.7367,1.7555,1.7582,1.7609,1.7649,1.7702,1.7689,1.7595,1.7675,1.7689,1.7595,1.7635,1.7662,1.7662,1.7662,1.7689,1.7729,1.7742,1.7742,1.7742,1.7742,1.7862,1.8062,1.7862,1.7742,1.7742,1.7742,1.7742,1.7729,1.7689,1.7662,1.7662,1.7609,1.7582,1.7582,1.7582,1.7582,1.7595,1.7649,1.8009,1.8739,1.0466,1.0568,1.0663,1.0663,1.0663,1.0616,1.048,1.0466,1.0419,1.0297,1.0283,1.0276,1.0249,1.0127,0.9977,0.9957,0.9835,0.9815,0.9795,0.9795,0.9781,0.9761,0.9646,0.9578,0.9578,0.9449,0.9354,0.9293,0.9214,0.9028,0.8851,0.8831,0.8818,0.8716,0.8825,0.8824,0.8811,0.8737,0.8676,0.8669,0.8533,0.8479,0.8499,0.8628,0.9571,1.1097,1.2974,1.5433,1.7889,1.7609,1.7502,1.7462,1.7462,1.7488,1.7515,1.7475,1.7716,1.7862,1.7609,1.7943,1.8303,1.7995,1.8183,1.8343,1.8263,1.7876,1.7528,1.7528,1.7555,1.7582,1.7582,1.7555,1.7542,1.7569,1.7555,1.7542,1.7569,1.7582,1.7689,1.7902,1.821,1.8156,1.7635,1.8063,1.8143,1.7622,1.7836,1.7929,1.7929,1.7929,1.8103,1.8357,1.837,1.837,1.837,1.837,1.8384,1.8437,1.8384,1.837,1.837,1.837,1.837,1.8357,1.8103,1.7929,1.7916,1.7689,1.7582,1.7582,1.7582,1.7582,1.7609,1.7889,1.8196,1.8712,1.0622,1.0677,1.0717,1.0717,1.0717,1.0697,1.0629,1.0622,1.0595,1.0534,1.0527,1.0493,1.0405,1.027,1.0181,1.0181,1.0114,1.0039,0.9896,0.9889,0.9849,0.9822,0.9761,0.9727,0.9727,0.9659,0.9625,0.9625,0.9395,0.9245,0.9184,0.9096,0.9022,0.8954,0.8947,0.8885,0.8885,0.8954,0.896,0.896,0.8974,0.8988,0.9099,1.0054,1.1295,1.2911,1.5443,1.7219,1.8277,1.8143,1.809,1.809,1.809,1.809,1.809,1.809,1.8183,1.8263,1.813,1.829,1.8464,1.833,1.8397,1.849,1.849,1.8277,1.809,1.809,1.809,1.809,1.809,1.809,1.809,1.809,1.809,1.809,1.809,1.7943,1.7889,1.7969,1.8303,1.8384,1.8116,1.833,1.8384,1.8103,1.821,1.829,1.829,1.829,1.8357,1.849,1.849,1.849,1.849,1.849,1.8571,1.8731,1.8731,1.8651,1.849,1.849,1.849,1.8477,1.8183,1.7995,1.7969,1.7716,1.7582,1.7582,1.7582,1.7582,1.7635,1.8116,1.8384,1.8836]}]]